[[{"header":{"parameterUnit":"m.s-1","parameterCategory":1,"la1":30.6,"la2":28.766,"lo1":-90.7593,"lo2":-88.6598,"dy":0.0162,"dx":0.0183,"nx":116,"ny":114,"refTime":"2024-02-08T18:00:00:Z","depth":0,"parameterNumber":2,"parameterNumberName":"U-component_of_WINDS"},"data":[0.0,0.0,0.0,0.0,0.0,0.0,0.0,0.0,0.0,0.0,0.0,0.0,0.0,0.0,0.0,0.0,0.0,0.0,0.0,0.0,0.0,0.0,0.0,0.0,0.0,0.0,0.0,0.0,0.0,0.0,0.0,0.0,0.0,0.0,0.0,0.0,0.0,0.0,0.0,0.0,0.0,0.0,0.0,0.0,0.0,0.0,0.0,0.0,0.0,0.0,0.0,0.0,0.0,0.0,0.0,0.0,0.0,0.0,0.0,0.0,0.0,0.0,0.0,0.0,0.0,0.0,0.0,0.0,0.0,0.0,0.0,0.0,0.0,0.0,0.0,0.0,0.0,0.0,0.0,0.0,0.0,0.0,0.0,0.0,0.0,0.0,0.0,0.0,0.0,0.0,0.0,0.0,0.0,0.0,0.0,0.0,0.0,0.0,0.0,0.0,0.0,0.0,0.0,0.0,0.0,0.0,0.0,0.0,0.0,0.0,0.0,0.0,0.0,0.0,0.0,0.0,0.0,0.0,0.0,0.0,0.0,0.0,0.0,0.0,0.0,0.0,0.0,0.0,0.0,0.0,0.0,0.0,0.0,0.0,0.0,0.0,0.0,0.0,0.0,0.0,0.0,0.0,0.0,0.0,0.0,0.0,0.0,0.0,0.0,0.0,0.0,0.0,0.0,0.0,0.0,0.0,0.0,0.0,0.0,0.0,0.0,0.0,0.0,0.0,0.0,0.0,0.0,0.0,0.0,0.0,0.0,0.0,0.0,0.0,0.0,0.0,0.0,0.0,0.0,0.0,0.0,0.0,0.0,0.0,0.0,0.0,0.0,0.0,0.0,0.0,0.0,0.0,0.0,0.0,0.0,0.0,0.0,0.0,0.0,0.0,0.0,0.0,0.0,0.0,0.0,0.0,0.0,0.0,0.0,0.0,0.0,0.0,0.0,0.0,0.0,0.0,0.0,0.0,0.0,0.0,0.0,0.0,0.0,0.0,0.0,0.0,0.0,0.0,0.0,0.0,0.0,0.0,0.0,0.0,0.0,0.0,0.0,0.0,0.0,0.0,0.0,0.0,0.0,0.0,0.0,0.0,0.0,0.0,0.0,0.0,0.0,0.0,0.0,0.0,0.0,0.0,0.0,0.0,0.0,0.0,0.0,0.0,0.0,0.0,0.0,0.0,0.0,0.0,0.0,0.0,0.0,0.0,0.0,0.0,0.0,0.0,0.0,0.0,0.0,0.0,0.0,0.0,0.0,0.0,0.0,0.0,0.0,0.0,0.0,0.0,0.0,0.0,0.0,0.0,0.0,0.0,0.0,0.0,0.0,0.0,0.0,0.0,0.0,0.0,0.0,0.0,0.0,0.0,0.0,0.0,0.0,0.0,0.0,0.0,0.0,0.0,0.0,0.0,0.0,0.0,0.0,0.0,0.0,0.0,0.0,0.0,0.0,0.0,0.0,0.0,0.0,0.0,0.0,0.0,0.0,0.0,0.0,0.0,0.0,0.0,0.0,0.0,0.0,0.0,0.0,0.0,0.0,0.0,0.0,0.0,0.0,0.0,0.0,0.0,0.0,0.0,0.0,0.0,0.0,0.0,0.0,0.0,0.0,0.0,0.0,0.0,0.0,0.0,0.0,0.0,0.0,0.0,0.0,0.0,0.0,0.0,0.0,0.0,0.0,0.0,0.0,0.0,0.0,0.0,0.0,0.0,0.0,0.0,0.0,0.0,0.0,0.0,0.0,0.0,0.0,0.0,0.0,0.0,0.0,0.0,0.0,0.0,0.0,0.0,0.0,0.0,0.0,0.0,0.0,0.0,0.0,0.0,0.0,0.0,0.0,0.0,0.0,0.0,0.0,0.0,0.0,0.0,0.0,0.0,0.0,0.0,0.0,0.0,0.0,0.0,0.0,0.0,0.0,0.0,0.0,0.0,0.0,0.0,0.0,0.0,0.0,0.0,0.0,0.0,0.0,0.0,0.0,0.0,0.0,0.0,0.0,0.0,0.0,0.0,0.0,0.0,0.0,0.0,0.0,0.0,0.0,0.0,0.0,0.0,0.0,0.0,0.0,0.0,0.0,0.0,0.0,0.0,0.0,0.0,0.0,0.0,0.0,0.0,0.0,0.0,0.0,0.0,0.0,0.0,0.0,0.0,0.0,0.0,0.0,0.0,0.0,0.0,0.0,0.0,0.0,0.0,0.0,0.0,0.0,0.0,0.0,0.0,0.0,0.0,0.0,0.0,0.0,0.0,0.0,0.0,0.0,0.0,0.0,0.0,0.0,0.0,0.0,0.0,0.0,0.0,0.0,0.0,0.0,0.0,0.0,0.0,0.0,0.0,0.0,0.0,0.0,0.0,0.0,0.0,0.0,0.0,0.0,0.0,0.0,0.0,0.0,0.0,0.0,0.0,0.0,0.0,0.0,0.0,0.0,0.0,0.0,0.0,0.0,0.0,0.0,0.0,0.0,0.0,0.0,0.0,0.0,0.0,0.0,0.0,0.0,0.0,0.0,0.0,0.0,0.0,0.0,0.0,0.0,0.0,0.0,0.0,0.0,0.0,0.0,0.0,0.0,0.0,0.0,0.0,0.0,0.0,0.0,0.0,0.0,0.0,0.0,0.0,0.0,0.0,0.0,0.0,0.0,0.0,0.0,0.0,0.0,0.0,0.0,0.0,0.0,0.0,0.0,0.0,0.0,0.0,0.0,0.0,0.0,0.0,0.0,0.0,0.0,0.0,0.0,0.0,0.0,0.0,0.0,0.0,0.0,0.0,0.0,0.0,0.0,0.0,0.0,0.0,0.0,0.0,0.0,0.0,0.0,0.0,0.0,0.0,0.0,0.0,0.0,0.0,0.0,0.0,0.0,0.0,0.0,0.0,0.0,0.0,0.0,0.0,0.0,0.0,0.0,0.0,0.0,0.0,0.0,0.0,0.0,0.0,0.0,0.0,0.0,0.0,0.0,0.0,0.0,0.0,0.0,0.0,0.0,0.0,0.0,0.0,0.0,0.0,0.0,0.0,0.0,0.0,0.0,0.0,0.0,0.0,0.0,0.0,0.0,0.0,0.0,0.0,0.0,0.0,0.0,0.0,0.0,0.0,0.0,0.0,0.0,0.0,0.0,0.0,0.0,0.0,0.0,0.0,0.0,0.0,0.0,0.0,0.0,0.0,0.0,0.0,0.0,0.0,0.0,0.0,0.0,0.0,0.0,0.0,0.0,0.0,0.0,0.0,0.0,0.0,0.0,0.0,0.0,0.0,0.0,0.0,0.0,0.0,0.0,0.0,0.0,0.0,0.0,0.0,0.0,0.0,0.0,0.0,0.0,0.0,0.0,0.0,0.0,0.0,0.0,0.0,0.0,0.0,0.0,0.0,0.0,0.0,0.0,0.0,0.0,0.0,0.0,0.0,0.0,0.0,0.0,0.0,0.0,0.0,0.0,0.0,0.0,0.0,0.0,0.0,0.0,0.0,0.0,0.0,0.0,0.0,0.0,0.0,0.0,0.0,0.0,0.0,0.0,0.0,0.0,0.0,0.0,0.0,0.0,0.0,0.0,0.0,0.0,0.0,0.0,0.0,0.0,0.0,0.0,0.0,0.0,0.0,0.0,0.0,0.0,0.0,0.0,0.0,0.0,0.0,0.0,0.0,0.0,0.0,0.0,0.0,0.0,0.0,0.0,0.0,0.0,0.0,0.0,0.0,0.0,0.0,0.0,0.0,0.0,0.0,0.0,0.0,0.0,0.0,0.0,0.0,0.0,0.0,0.0,0.0,0.0,0.0,0.0,0.0,0.0,0.0,0.0,0.0,0.0,0.0,0.0,0.0,0.0,0.0,0.0,0.0,0.0,0.0,0.0,0.0,0.0,0.0,0.0,0.0,0.0,0.0,0.0,0.0,0.0,0.0,0.0,0.0,0.0,0.0,0.0,0.0,0.0,0.0,0.0,0.0,0.0,0.0,0.0,0.0,0.0,0.0,0.0,0.0,0.0,0.0,0.0,0.0,0.0,0.0,0.0,0.0,0.0,0.0,0.0,0.0,0.0,0.0,0.0,0.0,0.0,0.0,0.0,0.0,0.0,0.0,0.0,0.0,0.0,0.0,0.0,0.0,0.0,0.0,0.0,0.0,0.0,0.0,0.0,0.0,0.0,0.0,0.0,0.0,0.0,0.0,0.0,0.0,0.0,0.0,0.0,0.0,0.0,0.0,0.0,0.0,0.0,0.0,0.0,0.0,0.0,0.0,0.0,0.0,0.0,0.0,0.0,0.0,0.0,0.0,0.0,0.0,0.0,0.0,0.0,0.0,0.0,0.0,0.0,0.0,0.0,0.0,0.0,0.0,0.0,0.0,0.0,0.0,0.0,0.0,0.0,0.0,0.0,0.0,0.0,0.0,0.0,0.0,0.0,0.0,0.0,0.0,0.0,0.0,0.0,0.0,0.0,0.0,0.0,0.0,0.0,0.0,0.0,0.0,0.0,0.0,0.0,0.0,0.0,0.0,0.0,0.0,0.0,0.0,0.0,0.0,0.0,0.0,0.0,0.0,0.0,0.0,0.0,0.0,0.0,0.0,0.0,0.0,0.0,0.0,0.0,0.0,0.0,0.0,0.0,0.0,0.0,0.0,0.0,0.0,0.0,0.0,0.0,0.0,0.0,0.0,0.0,0.0,0.0,0.0,0.0,0.0,0.0,0.0,0.0,0.0,0.0,0.0,0.0,0.0,0.0,0.0,0.0,0.0,0.0,0.0,0.0,0.0,0.0,0.0,0.0,0.0,0.0,0.0,0.0,0.0,0.0,0.0,0.0,0.0,0.0,0.0,0.0,0.0,0.0,0.0,0.0,0.0,0.0,0.0,0.0,0.0,0.0,0.0,0.0,0.0,0.0,0.0,0.0,0.0,0.0,0.0,0.0,0.0,0.0,0.0,0.0,0.0,0.0,0.0,0.0,0.0,0.0,0.0,0.0,0.0,0.0,0.0,0.0,0.0,0.0,0.0,0.0,0.0,0.0,0.0,0.0,0.0,0.0,0.0,0.0,0.0,0.0,0.0,0.0,0.0,0.0,0.0,0.0,0.0,0.0,0.0,0.0,0.0,0.0,0.0,0.0,0.0,0.0,0.0,0.0,0.0,0.0,0.0,0.0,0.0,0.0,0.0,0.0,0.0,0.0,0.0,0.0,0.0,0.0,0.0,0.0,0.0,0.0,0.0,0.0,0.0,0.0,0.0,0.0,0.0,0.0,0.0,0.0,0.0,0.0,0.0,0.0,0.0,0.0,0.0,0.0,0.0,0.0,0.0,0.0,0.0,0.0,0.0,0.0,0.0,0.0,0.0,0.0,0.0,0.0,0.0,0.0,0.0,0.0,0.0,0.0,0.0,0.0,0.0,0.0,0.0,0.0,0.0,0.0,0.0,0.0,0.0,0.0,0.0,0.0,0.0,0.0,0.0,0.0,0.0,0.0,0.0,0.0,0.0,0.0,0.0,0.0,0.0,0.0,0.0,0.0,0.0,0.0,0.0,0.0,0.0,0.0,0.0,0.0,0.0,0.0,0.0,0.0,0.0,0.0,0.0,0.0,0.0,0.0,0.0,0.0,0.0,0.0,0.0,0.0,0.0,0.0,0.0,0.0,0.0,0.0,0.0,0.0,0.0,0.0,0.0,0.0,0.0,0.0,0.0,0.0,0.0,0.0,0.0,0.0,0.0,0.0,0.0,0.0,0.0,0.0,0.0,0.0,0.0,0.0,0.0,0.0,0.0,0.0,0.0,0.0,0.0,0.0,0.0,0.0,0.0,0.0,0.0,0.0,0.0,0.0,0.0,0.0,0.0,0.0,0.0,0.0,0.0,0.0,0.0,0.0,0.0,0.0,0.0,0.0,0.0,0.0,0.0,0.0,0.0,0.0,0.0,0.0,0.0,0.0,0.0,0.0,0.0,0.0,0.0,0.0,0.0,0.0,0.0,0.0,0.0,0.0,0.0,0.0,0.0,0.0,0.0,0.0,0.0,0.0,0.0,0.0,0.0,0.0,0.0,0.0,0.0,0.0,0.0,0.0,0.0,0.0,0.0,0.0,0.0,0.0,0.0,0.0,0.0,0.0,0.0,0.0,0.0,3.6783,0.0,0.0,0.0,0.0,0.0,0.0,0.0,0.0,0.0,0.0,0.0,0.0,0.0,0.0,0.0,0.0,0.0,0.0,0.0,0.0,0.0,0.0,0.0,0.0,0.0,0.0,0.0,0.0,0.0,0.0,0.0,0.0,0.0,0.0,0.0,0.0,0.0,3.0833,3.0983,3.139,3.1939,3.2553,0.0,0.0,0.0,0.0,0.0,0.0,0.0,0.0,0.0,0.0,0.0,0.0,0.0,0.0,0.0,0.0,0.0,0.0,0.0,0.0,0.0,0.0,0.0,0.0,0.0,0.0,0.0,0.0,0.0,0.0,0.0,0.0,0.0,0.0,0.0,0.0,0.0,0.0,0.0,0.0,0.0,0.0,0.0,0.0,0.0,0.0,0.0,0.0,0.0,0.0,0.0,0.0,0.0,0.0,0.0,0.0,0.0,0.0,0.0,0.0,0.0,0.0,0.0,0.0,0.0,0.0,0.0,0.0,0.0,0.0,0.0,0.0,0.0,0.0,3.7741,0.0,0.0,0.0,0.0,0.0,0.0,0.0,0.0,0.0,0.0,0.0,0.0,0.0,0.0,0.0,0.0,0.0,0.0,0.0,0.0,0.0,0.0,0.0,2.8994,2.8863,2.854,2.8496,2.8551,0.0,0.0,0.0,0.0,0.0,3.0723,3.1384,3.1587,3.1792,3.2005,3.2262,3.2821,3.3696,0.0,0.0,0.0,0.0,0.0,0.0,0.0,0.0,0.0,0.0,0.0,0.0,0.0,0.0,0.0,0.0,0.0,0.0,0.0,0.0,0.0,0.0,0.0,0.0,0.0,0.0,0.0,0.0,0.0,0.0,0.0,0.0,0.0,0.0,0.0,0.0,0.0,0.0,0.0,0.0,0.0,0.0,0.0,0.0,0.0,0.0,0.0,0.0,0.0,0.0,0.0,0.0,0.0,0.0,0.0,0.0,0.0,0.0,0.0,0.0,0.0,0.0,0.0,0.0,0.0,0.0,0.0,3.8799,3.8707,3.8707,3.8707,3.8707,3.8707,3.8707,3.8456,3.8028,0.0,0.0,0.0,0.0,0.0,0.0,0.0,0.0,0.0,0.0,0.0,0.0,0.0,0.0,0.0,0.0,0.0,0.0,0.0,0.0,0.0,0.0,2.8994,2.8994,2.8929,2.8929,2.9222,2.9917,0.0,0.0,3.1201,3.1237,3.1274,3.1384,3.2321,3.2794,3.284,3.4074,3.475,3.488,3.488,3.4805,3.4639,0.0,0.0,0.0,0.0,0.0,0.0,0.0,0.0,0.0,0.0,0.0,0.0,0.0,0.0,0.0,0.0,0.0,0.0,0.0,0.0,0.0,0.0,0.0,0.0,0.0,0.0,0.0,0.0,0.0,0.0,0.0,0.0,0.0,0.0,0.0,0.0,0.0,0.0,0.0,0.0,0.0,0.0,0.0,0.0,3.556,3.5668,0.0,0.0,0.0,0.0,0.0,0.0,0.0,0.0,0.0,0.0,0.0,0.0,0.0,0.0,3.9161,3.9105,3.8965,3.8744,3.8726,3.8707,3.8707,3.8707,3.8707,3.8707,3.8707,0.0,3.8585,3.8585,0.0,0.0,0.0,0.0,0.0,0.0,0.0,0.0,0.0,0.0,0.0,0.0,0.0,0.0,0.0,0.0,0.0,0.0,0.0,0.0,0.0,2.9134,2.9225,2.9225,2.9783,3.0213,3.0409,3.0857,3.1399,3.2045,3.2201,3.2524,3.2969,3.3624,3.4026,3.4187,3.4947,3.532,3.532,3.532,3.532,3.532,3.5207,3.4981,3.4694,3.4551,0.0,0.0,0.0,0.0,0.0,0.0,0.0,0.0,0.0,0.0,0.0,0.0,0.0,0.0,0.0,0.0,0.0,0.0,0.0,0.0,0.0,0.0,0.0,0.0,0.0,0.0,0.0,0.0,0.0,0.0,0.0,0.0,0.0,0.0,0.0,0.0,0.0,0.0,0.0,3.5746,3.6338,3.6354,3.6552,3.6814,0.0,0.0,0.0,0.0,0.0,0.0,0.0,0.0,0.0,3.9861,3.9697,3.9621,3.9671,3.9298,3.9126,3.9189,3.9017,3.9036,3.9185,3.9017,3.8915,3.8934,3.8773,3.8707,3.8707,3.8707,3.8707,3.8707,0.0,0.0,0.0,0.0,3.8224,3.8028,0.0,0.0,0.0,0.0,0.0,0.0,0.0,0.0,0.0,0.0,0.0,0.0,2.9089,2.9332,2.9568,2.9792,3.0528,3.1092,3.1289,3.1869,3.2493,3.3111,3.3324,3.3717,3.4315,3.4634,3.4944,3.5207,3.5609,3.5815,3.5815,3.6045,3.6142,3.6142,3.6142,3.5691,3.4908,3.4831,3.4655,0.0,0.0,0.0,0.0,0.0,0.0,0.0,0.0,0.0,0.0,0.0,0.0,0.0,0.0,0.0,0.0,0.0,0.0,0.0,0.0,0.0,0.0,0.0,0.0,0.0,0.0,0.0,0.0,0.0,0.0,0.0,0.0,0.0,0.0,0.0,0.0,0.0,0.0,3.663,3.7207,3.7137,3.7379,3.7686,0.0,0.0,0.0,0.0,0.0,0.0,3.9734,3.9734,3.9851,4.0195,3.9964,3.9903,4.0101,3.9599,3.9438,3.9599,3.9264,3.9227,3.9455,3.9137,3.9026,3.9093,3.8905,3.8844,3.8931,3.8762,3.8707,3.8707,3.8707,3.8707,3.8707,3.8707,3.8707,3.8707,0.0,0.0,0.0,0.0,0.0,0.0,0.0,0.0,0.0,0.0,0.0,2.9392,2.9392,2.9551,3.0017,3.0845,3.0977,3.1637,3.3166,3.3298,3.3694,3.4559,3.4617,3.4636,3.4674,3.4944,3.5207,3.5493,3.6262,3.6642,3.6661,3.7488,3.7873,3.7873,3.7873,3.6974,3.5432,3.52,3.5077,3.5003,0.0,0.0,0.0,0.0,0.0,0.0,0.0,0.0,0.0,0.0,0.0,0.0,0.0,0.0,0.0,0.0,0.0,0.0,0.0,0.0,0.0,0.0,0.0,0.0,0.0,0.0,0.0,0.0,0.0,0.0,0.0,0.0,0.0,0.0,0.0,0.0,0.0,0.0,0.0,3.8256,3.9233,0.0,0.0,0.0,0.0,3.9557,3.9599,3.9735,4.0062,4.0062,4.0213,4.0473,4.0473,4.0339,4.0101,4.0081,3.9901,3.9599,3.9264,3.9099,3.9117,3.8844,3.8855,3.9107,3.9099,3.9257,3.9505,3.8931,3.8707,3.8707,3.8707,3.8707,3.8707,3.8707,3.8707,3.8707,0.0,0.0,0.0,0.0,0.0,0.0,0.0,0.0,2.8994,2.8994,2.9225,2.9412,2.9412,3.0204,3.0839,3.1178,3.2333,3.3226,3.3631,3.4182,3.4548,3.4675,3.487,3.5281,3.5968,3.6071,3.6454,3.7103,3.7411,3.7546,3.7546,3.7853,3.8007,3.8007,3.8007,3.7661,3.7103,3.7015,3.6868,3.6677,3.6458,3.629,0.0,0.0,0.0,0.0,0.0,0.0,0.0,0.0,0.0,0.0,0.0,0.0,0.0,0.0,0.0,0.0,0.0,0.0,0.0,0.0,0.0,0.0,0.0,0.0,0.0,0.0,0.0,0.0,0.0,0.0,0.0,0.0,0.0,0.0,0.0,0.0,0.0,3.9169,3.9711,0.0,0.0,3.9797,3.9922,3.9922,4.0082,4.023,4.0356,4.0356,4.0389,4.0489,4.0339,4.0195,4.0101,3.988,3.9819,3.9922,3.9797,3.9821,4.0005,3.9731,3.9641,3.9731,3.9529,3.9364,3.9264,3.9054,3.8961,3.8933,3.8762,3.8707,3.8707,3.8707,3.8707,3.8707,0.0,0.0,0.0,0.0,0.0,0.0,0.0,0.0,2.9021,2.9134,2.9353,2.9645,3.0002,3.0874,3.1661,3.223,3.3473,3.4241,3.4359,3.4913,3.5174,3.4981,3.5405,3.5971,3.6666,3.6988,3.743,3.8007,3.8296,3.843,3.845,3.8757,3.8911,3.8911,3.8931,3.8945,3.8945,3.8926,3.846,3.7737,3.7651,3.7505,3.7314,0.0,0.0,0.0,0.0,0.0,0.0,0.0,0.0,0.0,0.0,0.0,0.0,0.0,0.0,0.0,0.0,0.0,0.0,0.0,0.0,0.0,0.0,0.0,0.0,0.0,0.0,0.0,0.0,0.0,0.0,0.0,0.0,0.0,0.0,0.0,3.9982,3.9645,3.9983,4.012,3.9797,4.0043,4.0232,4.0232,4.0389,4.0489,4.0489,4.0489,4.0489,4.0489,4.0339,4.0232,4.0232,4.0004,4.0157,4.0672,4.0559,4.0749,4.12,4.092,4.084,4.094,4.0696,4.0457,4.0246,4.0139,4.0045,3.9909,3.9319,3.9093,3.9148,3.9423,3.9515,3.9515,0.0,0.0,0.0,0.0,0.0,0.0,0.0,2.8994,2.9089,2.9372,2.9589,3.0139,3.118,3.1596,3.2429,3.4064,3.4218,3.4603,3.5449,3.5512,3.5565,3.5584,3.6334,0.0,3.6776,3.7603,3.8046,3.8084,3.8931,3.9335,3.9373,4.0292,4.0696,4.0712,4.077,4.0808,4.0793,4.0735,3.9692,3.8064,3.779,3.7702,3.7663,0.0,0.0,0.0,0.0,0.0,0.0,0.0,0.0,0.0,0.0,0.0,0.0,0.0,0.0,0.0,0.0,0.0,0.0,0.0,0.0,0.0,0.0,0.0,0.0,0.0,0.0,0.0,0.0,0.0,0.0,0.0,0.0,0.0,3.9668,3.9901,4.0002,3.9668,4.0157,4.0389,4.0139,4.0356,4.0489,4.0489,4.0489,4.0489,4.0489,4.0489,4.0489,4.0489,4.0527,4.0527,4.0527,4.0566,4.1008,4.1854,4.1513,4.1819,4.2601,4.2284,4.2306,4.262,4.262,4.2562,4.2481,4.2233,4.1905,4.151,4.04,3.9937,4.0029,4.0818,4.1111,4.1111,0.0,0.0,0.0,0.0,0.0,0.0,0.0,2.8994,2.9089,2.9372,3.0133,3.0818,3.1257,3.2626,3.3699,3.416,3.4776,3.5238,3.5488,3.6065,3.6661,0.0,0.0,0.0,3.8565,3.8815,3.9277,3.9965,4.0196,4.035,4.0389,4.0658,4.0764,4.0762,4.0781,4.0808,4.0793,4.0773,4.0485,4.0019,3.9796,3.9704,3.9665,0.0,0.0,0.0,0.0,0.0,0.0,0.0,0.0,0.0,0.0,0.0,0.0,0.0,0.0,0.0,0.0,0.0,0.0,0.0,0.0,0.0,0.0,0.0,0.0,0.0,0.0,0.0,0.0,0.0,0.0,0.0,0.0,4.0081,3.9982,4.0213,4.0356,4.0266,4.0406,4.0473,4.0389,4.0457,4.0489,4.0489,4.0489,4.0489,4.0489,4.0489,4.0489,4.0489,4.1104,4.145,4.145,4.2066,4.2508,4.2739,4.2633,4.2731,4.2961,4.287,4.2889,4.2961,4.2961,4.2813,4.2581,4.2498,4.2261,4.1875,4.1083,4.0781,4.0799,4.1038,4.1111,4.1111,0.0,0.0,0.0,0.0,0.0,0.0,0.0,2.9071,2.9259,2.9994,3.0603,3.14,3.2388,3.3511,3.4353,3.4718,3.5218,3.5641,3.5988,3.6776,0.0,0.0,0.0,3.8777,3.933,3.9696,4.0177,4.0735,4.0739,4.0764,4.0803,4.0848,4.0872,4.0884,4.0948,4.0963,4.0947,4.0908,4.087,4.087,4.0696,4.062,4.0562,4.0354,4.02,4.0069,3.9881,3.9719,3.954,3.9062,0.0,0.0,0.0,0.0,0.0,0.0,0.0,0.0,0.0,0.0,0.0,0.0,0.0,0.0,0.0,0.0,0.0,0.0,0.0,0.0,0.0,0.0,0.0,0.0,4.0081,4.0286,4.0286,4.0389,4.0489,4.0489,4.0489,4.0489,4.0489,4.0489,4.0489,4.0489,4.0489,4.0489,4.0489,4.0854,4.1046,4.1046,4.1893,4.2335,4.2335,4.2854,4.3278,4.3605,4.3605,4.3797,4.4143,4.4143,4.4143,0.0,4.4143,4.3962,4.3649,4.3649,4.3456,0.0,0.0,0.0,0.0,0.0,4.2567,4.2567,0.0,0.0,0.0,0.0,0.0,0.0,0.0,2.9169,2.947,3.0824,3.1073,3.1925,3.398,3.4276,3.4661,3.543,3.5493,3.5853,3.668,3.7526,0.0,3.7065,3.8584,3.9484,3.9557,4.0318,4.0761,4.0812,4.0826,4.0882,4.0986,4.1102,4.1156,4.1164,4.1285,4.1281,4.1175,4.1059,4.1021,4.1001,4.0886,4.0771,4.0696,4.0581,4.0373,4.015,4.0158,3.9945,3.9696,3.97,0.0,0.0,0.0,0.0,0.0,0.0,0.0,0.0,0.0,0.0,0.0,0.0,0.0,0.0,0.0,0.0,0.0,0.0,0.0,0.0,0.0,0.0,0.0,0.0,4.0321,4.0489,4.0489,4.0489,4.0489,4.0489,4.0489,4.0489,4.0489,4.0489,4.0489,4.0489,4.0585,4.0642,4.0642,0.0,0.0,0.0,0.0,4.3239,4.3239,4.3335,4.3739,4.4451,4.4451,4.4893,4.574,4.574,4.5797,4.5874,4.5874,4.5707,4.5426,4.5426,4.5274,4.4896,4.3857,4.3454,4.3548,4.4322,4.458,4.458,0.0,0.0,0.0,0.0,0.0,0.0,0.0,2.9181,2.9477,3.0829,3.1562,3.2549,3.4038,3.4834,3.5334,3.5488,3.5493,3.5878,3.6801,0.0,3.8315,3.9012,3.9931,4.0466,4.0523,4.0676,4.0843,4.0947,4.0964,4.1345,4.2083,4.2112,4.2126,4.2129,4.2166,4.1813,4.1208,4.1169,4.1169,4.115,4.1013,4.0852,4.0696,4.0677,4.0562,4.0431,4.0406,4.037,4.0332,4.0317,4.0336,4.0302,4.0081,0.0,0.0,0.0,0.0,0.0,0.0,0.0,0.0,0.0,0.0,0.0,0.0,0.0,0.0,0.0,0.0,0.0,0.0,0.0,0.0,4.0081,4.0321,4.0489,4.0489,4.0489,4.0489,4.0489,4.0489,4.0489,4.0489,4.0489,4.0489,4.0489,4.1143,4.1546,4.1546,4.2374,0.0,4.2854,4.3643,4.4066,4.4066,4.4759,4.5182,4.5336,0.0,0.0,4.6644,4.6644,4.7009,4.7625,4.7625,4.7587,4.7511,4.7511,4.7492,4.7221,4.5147,4.436,4.4379,4.4549,4.458,4.458,0.0,0.0,0.0,0.0,0.0,0.0,0.0,2.9768,3.0292,3.1632,3.2367,3.3311,3.4697,3.5238,3.5493,3.5493,3.5935,3.6205,0.0,3.7841,3.8851,3.895,4.0114,4.0804,4.0889,4.09,4.0974,4.1101,4.1101,4.134,4.1797,4.1797,4.1797,4.1797,4.1797,4.1582,4.1191,4.1191,4.1191,4.1191,4.1133,4.0991,4.0835,4.0745,4.0658,4.06,4.0508,4.0489,4.0489,4.0489,4.0489,4.0473,4.0339,4.0304,4.0267,0.0,0.0,0.0,0.0,0.0,0.0,0.0,0.0,0.0,0.0,0.0,0.0,0.0,0.0,3.9645,3.9819,0.0,4.0139,4.0286,4.0406,4.0489,4.0489,4.0489,4.0489,4.0489,4.0489,4.0489,4.0489,4.0893,4.1143,4.1143,4.197,4.245,4.245,4.3258,4.3701,4.3701,4.4509,4.4951,4.4951,4.5817,4.624,4.6259,4.6663,4.7086,4.7509,4.7509,4.7721,4.8105,4.8105,4.8105,4.8105,4.8105,4.8105,4.7991,4.6811,4.6358,4.6358,4.6358,4.6358,4.6358,0.0,0.0,0.0,0.0,0.0,0.0,0.0,3.0395,3.1149,3.2417,3.3111,3.3991,3.535,3.5493,3.5493,3.5493,3.6205,0.0,0.0,3.7957,3.9043,3.8404,3.9946,4.0897,4.1035,4.1054,4.1088,4.1191,4.1191,4.1289,4.1426,4.1426,4.1426,4.1426,4.1426,4.1348,4.1191,4.1191,4.1191,4.1191,4.1191,4.1133,4.1013,4.08,4.0699,4.0677,4.0562,4.0489,4.0489,4.0489,4.0489,4.0489,4.0489,4.0489,4.0489,4.0489,4.0356,0.0,0.0,0.0,0.0,0.0,0.0,0.0,0.0,0.0,3.9389,3.9712,3.9778,3.9861,4.0139,4.0177,4.025,4.0473,4.0489,4.0489,4.0489,4.0489,4.0489,4.0489,4.0489,4.0566,4.0739,4.1393,4.1873,4.2047,4.2854,4.3335,4.3335,4.4105,4.4547,4.4547,4.5393,4.5836,4.5836,4.6701,4.7144,4.7144,4.7798,4.8202,4.8355,4.8355,4.8432,4.8606,4.8606,4.8606,4.8606,4.8606,4.8606,4.8606,4.8606,4.8606,4.8567,4.8221,4.8105,4.8105,0.0,0.0,0.0,0.0,0.0,0.0,0.0,0.0,3.135,3.2451,3.3271,3.4194,3.5364,3.5493,3.5493,3.5493,3.5661,0.0,3.5698,3.7416,3.8477,3.8565,4.0111,4.1042,4.1162,4.1183,4.1188,4.1191,4.1191,4.1562,4.2266,4.2266,4.2266,4.2266,4.2266,4.1875,4.1191,4.1191,4.1191,4.1191,4.1191,4.1191,4.1151,4.089,4.0754,4.0677,4.0562,4.0489,4.0489,4.0489,4.0489,4.0489,4.0489,4.0489,4.0489,4.0489,0.0,4.0336,3.98,3.9414,3.9289,3.9901,3.9797,3.9694,0.0,0.0,4.0062,4.0336,4.0406,4.0406,4.0457,4.0457,4.0473,4.0489,4.0489,4.0489,4.0489,4.0489,4.0489,4.0489,4.0489,4.0796,4.1585,4.1739,4.2124,4.2893,4.3701,4.4162,4.4162,4.4989,4.5451,4.5451,4.6297,4.6759,4.6759,4.7567,4.7971,4.7971,4.8067,4.8509,4.924,4.924,4.9683,5.0414,5.0414,5.0414,5.0414,5.0414,5.0414,5.0414,5.0414,5.0414,5.0221,4.8663,4.8105,4.8105,0.0,0.0,0.0,0.0,0.0,0.0,0.0,0.0,0.0,3.3384,3.4133,3.4802,3.5422,3.5493,3.5493,3.5493,0.0,0.0,3.5696,3.7449,3.8504,3.8594,4.0227,4.1139,4.1191,4.1191,4.1191,4.1191,4.1191,4.1367,4.1699,4.1699,4.1699,4.1699,4.1699,4.1504,4.1191,4.1191,4.1191,4.1191,4.1191,4.1191,4.1171,4.0986,4.0846,4.0735,4.0562,4.0489,0.0,0.0,4.0489,4.0489,4.0489,4.0489,4.0489,4.0489,4.0489,0.0,4.0193,4.0024,3.9985,0.0,4.012,4.0003,4.0406,4.0285,4.0177,4.0438,4.0489,4.0489,4.0489,4.0489,4.0489,0.0,4.0489,4.0489,4.0489,4.0489,4.0489,4.0489,4.095,4.1393,4.1758,4.2681,4.3412,4.3778,4.4586,4.5047,4.5047,4.5874,4.6355,4.6355,4.7163,4.7605,4.7605,4.8432,4.8856,4.8856,4.9375,4.9798,5.0164,5.0164,5.0356,5.0702,5.0702,5.0702,5.0702,5.0702,5.0702,5.0702,5.0702,5.0702,5.0606,4.9875,4.9606,4.9606,0.0,0.0,0.0,0.0,0.0,0.0,0.0,0.0,0.0,0.0,3.4783,3.5289,3.5479,3.5493,3.5493,0.0,0.0,0.0,0.0,3.7491,3.8555,3.8594,4.0273,4.1191,4.1191,4.1191,4.1191,4.1191,4.1191,4.1191,4.1191,4.1191,4.1191,4.1191,4.1191,4.1191,4.1191,4.1191,4.1191,4.1191,4.1191,4.1191,4.1191,4.1046,4.0915,4.0783,4.0611,4.0543,0.0,0.0,4.0489,4.0489,4.0489,4.0489,4.0489,4.0489,4.0457,4.0425,4.0473,0.0,0.0,4.0489,4.0356,4.025,4.0457,4.0356,4.0269,4.0457,4.0489,4.0489,4.0489,4.0489,4.0489,4.0489,4.0489,4.0489,4.0489,4.0489,4.0585,4.0835,4.1623,4.2258,4.247,4.3585,4.4393,4.4643,4.524,4.5586,4.5586,4.6432,4.6913,4.6913,4.7913,4.8471,4.8471,4.9317,4.976,4.976,5.0394,5.0702,5.0702,5.0702,5.0702,5.0702,5.0702,5.0702,5.0702,5.0702,5.0702,5.0702,5.0702,5.0702,5.0702,5.0702,5.0702,5.0702,0.0,0.0,0.0,0.0,0.0,0.0,0.0,0.0,0.0,0.0,0.0,0.0,0.0,0.0,0.0,0.0,0.0,0.0,0.0,3.741,3.8457,3.8594,4.0273,4.1191,4.1191,4.1191,4.1191,4.1191,4.1191,4.1191,4.1191,4.1191,4.1191,4.1191,4.1191,4.1191,4.1191,4.1191,4.1191,4.1191,4.1191,4.1191,4.1191,4.1054,4.0925,4.0779,4.0731,0.0,0.0,0.0,4.0489,4.0489,4.0489,4.0489,0.0,4.0489,4.0321,4.0158,0.0,0.0,4.0177,4.0441,4.0489,4.0489,4.0489,4.0489,4.0489,4.0489,4.0489,4.0489,4.0489,4.0489,4.0489,4.0489,4.0489,4.0489,4.0489,4.0489,4.0796,4.1662,4.2527,4.3374,0.0,4.4259,4.4643,4.549,4.5586,4.5586,4.5586,4.6432,4.6913,4.6913,4.8509,4.9356,4.9356,5.0221,5.0644,5.0644,5.0683,5.0702,5.0702,5.0702,5.0702,5.0702,5.0702,5.0702,5.0702,5.0702,5.0702,5.0702,5.0702,5.0702,5.0702,5.0702,5.0702,5.0702,0.0,0.0,0.0,0.0,0.0,0.0,0.0,0.0,0.0,0.0,0.0,0.0,0.0,0.0,0.0,0.0,0.0,0.0,0.0,3.7366,3.8418,3.8476,4.0215,4.1191,4.1191,4.1191,4.1191,4.1191,4.1191,4.1191,4.1191,4.1191,4.1191,4.1191,4.1191,4.1191,4.1191,4.1191,4.1191,4.1191,4.1191,4.1191,4.119,4.1042,4.0917,4.0788,0.0,0.0,0.0,0.0,4.0489,4.0489,4.0489,0.0,4.0489,4.0489,4.0441,4.0389,4.0473,0.0,4.0389,4.0473,4.0489,4.0489,4.0489,4.0489,4.0489,4.0489,4.0489,4.0489,4.0489,4.0489,4.0489,4.0489,4.0489,4.0489,4.0489,4.0989,4.147,4.1777,4.3047,0.0,0.0,0.0,0.0,4.5566,4.5586,4.5836,4.6432,4.7259,4.7971,4.8548,4.9663,5.026,5.026,5.0548,5.0702,5.0702,5.0702,5.0702,5.0702,5.0702,5.0702,5.0702,5.0702,5.0991,5.151,5.151,5.1837,5.2356,5.2356,5.2356,5.2356,5.2356,5.2356,5.2202,0.0,0.0,0.0,0.0,0.0,0.0,0.0,0.0,0.0,0.0,0.0,0.0,0.0,0.0,0.0,0.0,0.0,0.0,0.0,0.0,3.8365,3.8398,4.0195,4.1191,4.1191,4.1191,4.1191,4.1191,4.1191,4.1191,4.1191,4.1191,4.1191,4.1191,4.1191,4.1191,4.1191,4.1191,4.1191,4.1191,4.1191,4.1191,4.1188,4.1044,4.0919,0.0,0.0,0.0,0.0,0.0,4.0489,4.0489,4.0489,4.0489,4.0489,4.0489,4.0489,4.0489,4.0489,4.0489,4.0489,4.0489,4.0489,4.0489,4.0489,4.0489,4.0489,4.0489,4.0489,4.0489,4.0489,4.0489,4.0489,4.0489,4.0758,4.095,4.095,4.172,4.2374,4.2662,4.3643,4.4412,0.0,0.0,0.0,4.5586,4.5893,4.6317,4.6874,4.7971,4.8817,4.9375,5.024,5.0702,5.0702,5.0702,5.0702,5.0702,5.0702,5.0702,5.0702,5.0702,5.0856,5.1125,5.1125,5.1606,5.2375,5.2375,5.2702,5.3203,5.3203,5.3203,5.3203,5.3203,5.3203,5.3049,0.0,0.0,0.0,0.0,0.0,0.0,0.0,0.0,0.0,0.0,0.0,0.0,0.0,0.0,0.0,0.0,0.0,0.0,0.0,0.0,0.0,3.8398,4.0156,4.1152,4.1191,4.1191,4.1191,4.1191,4.1191,4.1191,4.1191,4.1191,4.1191,4.1191,4.1191,4.1191,4.1191,4.1191,4.1191,4.1191,4.119,4.119,4.1162,4.1033,0.0,0.0,0.0,0.0,0.0,0.0,0.0,0.0,4.0489,4.0489,4.0489,4.0489,4.0489,4.0489,4.0489,4.0489,4.0489,4.0489,4.0489,4.0489,4.0489,4.0489,4.0489,4.0489,4.0489,4.0489,0.0,0.0,4.0489,4.0489,4.1239,4.1797,4.1797,4.2585,4.3431,0.0,0.0,0.0,0.0,0.0,0.0,4.5663,0.0,4.6951,4.7028,4.8548,4.9413,4.9471,5.026,5.0702,5.0702,5.0702,5.0702,5.0702,5.0702,5.0721,5.076,5.076,5.1202,5.1972,5.1972,5.2472,5.328,5.328,5.3299,5.3337,5.3337,5.3337,5.3337,5.3337,5.3337,5.3337,0.0,0.0,0.0,0.0,0.0,0.0,0.0,0.0,0.0,0.0,0.0,0.0,0.0,0.0,0.0,0.0,0.0,0.0,0.0,0.0,0.0,0.0,0.0,0.0,0.0,0.0,0.0,0.0,0.0,4.1191,4.1191,4.1191,4.1191,4.1191,4.1191,4.1191,4.1191,4.1191,4.1191,4.119,0.0,4.1044,4.1033,0.0,0.0,0.0,0.0,0.0,0.0,0.0,0.0,0.0,0.0,4.0489,4.0489,4.0489,4.0489,4.0489,4.0489,4.0489,4.0489,4.0489,4.0489,4.0489,4.0489,4.0489,4.0489,4.0489,4.0489,4.0489,0.0,0.0,0.0,4.0489,4.1239,0.0,4.1797,4.3066,0.0,4.4278,0.0,4.5355,4.5566,4.5586,0.0,0.0,4.6778,4.7451,4.8702,4.9163,4.9702,5.0337,5.0567,5.0702,5.0702,5.0702,5.0702,5.0702,5.0702,5.101,5.1587,5.1587,5.2068,5.2876,5.2876,5.3356,5.4164,5.4164,5.4511,5.5049,5.5049,5.5049,5.5049,5.5049,5.5049,5.5049,0.0,0.0,0.0,0.0,0.0,0.0,0.0,0.0,0.0,0.0,0.0,0.0,0.0,0.0,0.0,0.0,0.0,0.0,0.0,0.0,0.0,0.0,0.0,0.0,0.0,0.0,0.0,0.0,0.0,0.0,0.0,4.1191,4.1191,4.1191,4.1191,4.1191,4.1191,0.0,0.0,0.0,0.0,0.0,0.0,0.0,0.0,0.0,0.0,0.0,0.0,0.0,0.0,4.0489,4.0489,4.0489,4.0489,4.0489,0.0,4.0489,4.0489,4.0489,4.0489,4.0489,4.0489,4.0489,4.0489,4.0489,4.0489,4.0489,4.0489,0.0,4.0489,0.0,0.0,0.0,0.0,0.0,4.2854,4.4047,4.4874,0.0,4.5297,0.0,4.5586,4.5951,4.6528,0.0,4.7451,4.8009,4.9336,4.976,5.0183,5.0683,5.0702,5.0702,5.0702,5.0702,5.0702,5.0702,5.1048,5.1471,5.1914,5.2299,5.2953,5.378,0.0,5.4241,5.503,5.503,5.528,5.5703,5.5703,5.5703,5.5703,5.5703,5.5703,5.5703,0.0,0.0,0.0,0.0,0.0,0.0,0.0,0.0,0.0,0.0,0.0,0.0,0.0,0.0,0.0,0.0,0.0,0.0,0.0,0.0,0.0,0.0,0.0,0.0,0.0,0.0,0.0,0.0,0.0,0.0,0.0,0.0,0.0,0.0,0.0,0.0,0.0,0.0,0.0,0.0,0.0,0.0,0.0,0.0,0.0,0.0,0.0,0.0,0.0,0.0,4.0489,4.0489,4.0489,4.0489,4.0489,4.0489,4.0489,4.0489,4.0489,4.0489,4.0489,4.0489,4.0489,4.0489,4.0489,4.0489,4.0489,4.0489,0.0,4.0489,4.0489,4.0585,4.0912,4.1681,0.0,4.3508,4.4201,4.5047,4.5586,4.5586,4.5586,4.5605,4.5605,4.6413,4.7335,4.8257,4.8332,4.8698,4.9548,5.0298,5.0702,5.0702,5.0702,5.0702,5.0702,5.0702,5.0741,5.0856,5.1568,5.2029,5.2279,5.3029,5.3837,5.4664,0.0,0.0,5.5703,5.5703,5.5703,5.5703,5.5703,5.5703,5.5703,5.5703,5.5703,5.5703,0.0,0.0,0.0,0.0,0.0,0.0,0.0,0.0,0.0,0.0,3.5359,3.5493,0.0,0.0,0.0,0.0,0.0,0.0,0.0,0.0,0.0,0.0,0.0,0.0,0.0,0.0,0.0,0.0,0.0,0.0,0.0,0.0,0.0,0.0,0.0,0.0,0.0,0.0,0.0,0.0,0.0,0.0,0.0,0.0,0.0,0.0,0.0,0.0,0.0,0.0,4.0489,4.0489,4.0489,4.0489,4.0489,4.0489,4.0489,4.0489,4.0489,4.0489,4.0489,4.0489,4.0489,4.0489,4.0489,4.0489,0.0,0.0,4.0489,4.0489,4.0489,4.1085,4.1623,4.1777,0.0,0.0,0.0,0.0,4.5586,0.0,0.0,0.0,0.0,0.0,0.0,0.0,0.0,4.9834,5.0606,5.0664,5.0702,5.0702,5.0702,5.0702,5.0702,5.0702,5.1029,5.1702,5.1837,5.2664,5.4049,5.4203,5.4722,5.5491,5.5491,0.0,5.5703,5.5703,5.5703,5.5703,5.5703,5.5703,5.5703,5.5703,5.5703,5.5703,0.0,0.0,0.0,0.0,0.0,0.0,0.0,3.468,3.4679,3.4636,3.4909,3.5185,3.5455,3.5493,3.5493,0.0,0.0,0.0,0.0,0.0,0.0,0.0,0.0,0.0,0.0,0.0,0.0,0.0,0.0,0.0,0.0,0.0,0.0,0.0,0.0,0.0,0.0,0.0,0.0,0.0,0.0,0.0,0.0,0.0,0.0,0.0,0.0,0.0,0.0,0.0,4.0489,4.0489,4.0489,4.0489,4.0489,4.0489,4.0489,4.0489,4.0489,4.0489,4.0489,4.0489,4.0489,4.0489,4.0489,0.0,0.0,0.0,4.0489,4.0642,4.1085,4.1527,0.0,4.297,0.0,0.0,0.0,0.0,0.0,0.0,0.0,0.0,0.0,0.0,0.0,0.0,0.0,5.0603,5.0875,5.076,5.0702,5.0702,5.0702,5.0702,5.0702,5.1125,5.1529,5.1914,5.2818,5.3683,5.4511,5.4934,5.5338,5.5703,5.5703,0.0,5.5703,5.5703,5.5703,5.5703,5.5703,5.5703,5.5703,5.5703,5.5703,5.5703,0.0,0.0,0.0,0.0,0.0,0.0,0.0,3.4386,3.4433,3.4215,3.4423,3.4814,3.5346,3.5407,3.5397,0.0,0.0,0.0,0.0,0.0,0.0,0.0,0.0,0.0,0.0,0.0,0.0,0.0,0.0,0.0,0.0,0.0,0.0,0.0,0.0,0.0,0.0,0.0,0.0,0.0,0.0,0.0,0.0,0.0,0.0,0.0,0.0,0.0,0.0,0.0,4.0489,4.0489,4.0489,4.0489,4.0489,4.0489,4.0489,4.0489,4.0489,4.0489,4.0489,4.0489,4.0489,4.0489,4.0489,4.0489,0.0,0.0,4.0489,4.0758,4.1643,0.0,4.2566,0.0,4.4451,4.4816,0.0,0.0,0.0,0.0,0.0,0.0,0.0,0.0,0.0,0.0,0.0,0.0,5.0933,5.0837,5.0741,5.0741,5.0702,5.0779,5.0952,5.1587,5.2106,5.2472,5.3857,5.4587,5.478,5.5415,5.5703,5.5703,5.5703,0.0,0.0,5.5703,5.5703,5.5703,5.5703,5.5703,5.5703,5.5703,5.5818,5.5972,0.0,0.0,0.0,0.0,0.0,0.0,0.0,3.4027,3.395,3.4173,3.4242,3.4467,3.508,3.5135,3.5147,0.0,0.0,0.0,0.0,0.0,0.0,0.0,0.0,0.0,0.0,0.0,0.0,0.0,0.0,0.0,0.0,0.0,0.0,0.0,0.0,0.0,0.0,0.0,0.0,0.0,0.0,0.0,0.0,0.0,0.0,0.0,0.0,0.0,0.0,0.0,0.0,4.0489,4.0489,4.0489,4.0489,4.0489,0.0,0.0,4.0489,4.0489,4.0489,4.0489,4.0489,4.0489,4.0489,0.0,0.0,4.0489,4.0489,4.0758,4.1643,4.245,4.3278,0.0,0.0,4.5509,4.5586,0.0,0.0,0.0,0.0,0.0,0.0,0.0,0.0,0.0,0.0,0.0,5.1106,5.0952,5.0895,5.0895,5.076,5.1048,5.1779,5.1875,5.2702,5.426,5.4414,5.4876,5.5588,5.5665,5.5703,5.5703,5.5703,0.0,0.0,5.5703,5.5703,5.5703,5.5703,5.5703,5.5703,5.5703,5.6203,5.6876,0.0,0.0,0.0,0.0,0.0,0.0,3.395,3.3854,3.3844,3.3962,3.3962,3.4054,3.4283,3.4643,3.4979,3.5301,0.0,0.0,0.0,0.0,0.0,0.0,0.0,0.0,0.0,0.0,0.0,0.0,0.0,0.0,0.0,0.0,0.0,0.0,0.0,0.0,0.0,0.0,0.0,0.0,0.0,0.0,0.0,0.0,0.0,0.0,0.0,0.0,0.0,0.0,0.0,0.0,4.0489,4.0489,0.0,0.0,4.0489,4.0489,4.0489,4.0489,4.0508,4.06,4.0562,4.0508,4.06,0.0,4.0489,4.0489,4.0912,4.1546,4.2431,4.3258,4.4105,4.4951,4.5355,0.0,4.5586,4.5586,0.0,0.0,0.0,0.0,0.0,0.0,0.0,0.0,0.0,0.0,5.1277,5.1117,5.0979,5.0895,5.1318,5.1664,5.1914,5.2953,5.3818,5.4511,5.4991,5.5395,5.5703,5.5703,5.5703,5.5703,5.5703,0.0,0.0,5.5703,5.5703,5.5703,5.5703,5.6011,5.6472,5.6472,5.703,5.778,0.0,0.0,0.0,0.0,0.0,3.3807,3.3807,3.3807,3.3807,3.3807,3.3807,3.3825,3.3925,3.4377,3.4883,3.5339,3.5435,0.0,0.0,0.0,0.0,0.0,0.0,0.0,0.0,0.0,0.0,0.0,0.0,0.0,0.0,0.0,0.0,0.0,0.0,0.0,0.0,0.0,0.0,0.0,0.0,0.0,0.0,0.0,0.0,0.0,0.0,0.0,0.0,0.0,0.0,0.0,0.0,0.0,0.0,0.0,4.0489,4.0489,4.0489,4.0543,4.0581,4.0677,4.0626,4.0574,0.0,0.0,4.0489,4.0489,4.1181,4.2066,4.2931,4.3758,4.4586,4.5451,4.5586,4.5586,4.5586,4.5586,4.5586,0.0,0.0,0.0,0.0,0.0,0.0,0.0,0.0,0.0,0.0,5.1269,5.1122,5.0998,5.1699,5.2183,5.2336,5.378,5.4626,5.4857,5.5434,5.5703,5.5703,5.5703,5.5703,5.5703,0.0,0.0,0.0,5.5703,5.5703,5.5722,5.5972,5.6453,5.703,5.728,5.7915,5.8646,0.0,0.0,0.0,0.0,0.0,0.0,3.3807,3.3807,3.3807,3.3807,3.3807,3.388,3.4173,3.451,3.4807,3.5089,3.5339,0.0,0.0,0.0,0.0,0.0,0.0,0.0,0.0,0.0,0.0,0.0,0.0,0.0,0.0,0.0,0.0,0.0,0.0,0.0,0.0,0.0,0.0,0.0,0.0,0.0,0.0,0.0,0.0,0.0,0.0,0.0,0.0,0.0,0.0,0.0,0.0,4.0489,0.0,0.0,4.0489,4.0489,4.0489,4.06,4.0696,4.0696,4.0694,4.0696,0.0,0.0,4.0489,4.0489,4.1181,4.2066,4.2931,4.3758,4.4586,4.5451,4.5586,4.5586,4.5586,4.5586,0.0,0.0,0.0,0.0,0.0,0.0,0.0,0.0,0.0,0.0,0.0,5.1406,5.1347,5.1191,5.1781,5.251,5.3374,5.4126,5.4895,5.5684,5.5703,5.5703,5.5703,5.5703,5.5703,0.0,0.0,0.0,0.0,5.5703,5.5703,5.578,5.6646,5.6973,5.7088,5.7973,5.88,5.9492,0.0,0.0,0.0,0.0,0.0,0.0,0.0,3.3925,3.3807,3.3807,3.3807,3.3825,3.3925,3.4377,3.473,3.4826,3.5243,0.0,0.0,0.0,0.0,0.0,0.0,0.0,0.0,0.0,3.6133,3.6406,3.7012,3.7441,0.0,0.0,0.0,0.0,0.0,0.0,0.0,0.0,0.0,0.0,0.0,0.0,0.0,0.0,0.0,0.0,0.0,0.0,0.0,0.0,0.0,0.0,0.0,0.0,0.0,4.0489,4.0489,4.0489,4.0489,4.0543,4.0592,4.0681,4.0617,4.0593,4.0673,0.0,4.0489,4.0489,4.1662,4.2777,4.3047,4.4239,4.5278,4.5547,4.5586,4.5586,0.0,0.0,0.0,0.0,0.0,0.0,0.0,0.0,0.0,0.0,0.0,0.0,0.0,5.1953,5.2226,5.209,5.2858,5.363,5.4417,5.5109,5.5568,5.5838,5.5742,5.5703,5.5703,5.5703,0.0,0.0,0.0,0.0,0.0,5.5703,5.6049,5.6607,5.6876,5.7703,5.8742,5.9011,5.9665,6.0396,0.0,0.0,0.0,0.0,0.0,0.0,0.0,3.4246,3.4091,3.3981,3.3962,3.3925,3.3807,3.4356,3.4699,3.4699,3.5187,0.0,0.0,0.0,0.0,0.0,0.0,0.0,0.0,3.5968,3.5996,3.5996,3.6543,3.6816,3.6836,3.7695,0.0,0.0,0.0,0.0,0.0,0.0,0.0,0.0,0.0,0.0,4.0735,0.0,0.0,0.0,0.0,0.0,0.0,0.0,0.0,0.0,0.0,0.0,0.0,0.0,4.0489,4.0489,4.0489,4.0543,4.0592,4.0688,4.064,4.06,0.0,0.0,4.0581,4.062,4.1986,4.3214,4.3201,4.4547,4.568,4.568,4.568,4.568,4.568,0.0,0.0,0.0,0.0,0.0,0.0,0.0,0.0,0.0,0.0,0.0,0.0,5.2226,5.2812,5.3066,5.3867,5.4517,5.4971,5.5668,5.6001,5.6013,5.5838,5.578,5.5761,5.5722,0.0,0.0,0.0,0.0,0.0,5.6049,5.6511,5.7049,5.7703,5.8569,5.955,5.9877,6.0319,6.0819,0.0,0.0,0.0,0.0,0.0,0.0,0.0,3.4707,3.457,3.4268,3.4234,3.4134,3.3895,3.4381,3.4734,3.4735,0.0,0.0,0.0,0.0,0.0,0.0,0.0,0.0,0.0,3.5977,3.5996,3.5996,3.5996,3.5996,3.6016,3.6836,3.7246,3.7363,0.0,0.0,0.0,0.0,0.0,0.0,0.0,4.0922,0.0,0.0,0.0,0.0,0.0,0.0,0.0,0.0,0.0,0.0,0.0,0.0,0.0,0.0,0.0,0.0,0.0,4.06,4.0696,4.0696,4.0696,4.0716,4.0773,0.0,0.0,0.0,4.2179,4.3389,4.34,4.4713,4.5811,4.5815,4.5815,4.5796,4.5811,4.5871,0.0,0.0,0.0,0.0,0.0,0.0,0.0,0.0,0.0,0.0,0.0,5.2285,5.3164,5.3965,5.4785,5.5215,5.5215,5.5874,5.622,5.6193,5.6018,5.5919,5.5915,5.578,0.0,0.0,0.0,0.0,0.0,5.6646,5.7049,5.7242,5.8877,5.955,5.9685,6.0492,6.08,6.0819,0.0,0.0,0.0,0.0,0.0,0.0,0.0,0.0,0.0,0.0,3.4584,3.4548,3.4485,3.4802,3.5021,0.0,0.0,0.0,0.0,0.0,0.0,0.0,0.0,0.0,0.0,3.5973,3.5996,3.5996,3.5996,3.5996,3.5996,3.6211,3.666,3.7324,3.7734,0.0,0.0,0.0,0.0,0.0,4.1055,4.0918,0.0,0.0,0.0,0.0,4.0489,4.0489,0.0,0.0,0.0,0.0,0.0,0.0,0.0,0.0,4.0489,4.0489,4.0489,0.0,4.0562,4.0562,4.062,4.0696,0.0,0.0,0.0,0.0,0.0,4.3404,4.3394,4.4762,4.5886,4.5885,4.5873,4.5873,4.5875,0.0,0.0,0.0,0.0,0.0,0.0,0.0,0.0,0.0,0.0,0.0,0.0,5.2851,5.3789,5.3984,5.5469,5.625,5.625,5.6323,5.6344,5.6358,5.6202,5.6137,5.6128,5.6109,0.0,0.0,0.0,0.0,5.5915,5.678,5.7492,5.8088,5.9108,5.9915,6.0512,6.0723,6.0858,6.0973,0.0,0.0,0.0,0.0,0.0,0.0,0.0,0.0,0.0,0.0,0.0,0.0,0.0,0.0,0.0,0.0,0.0,0.0,0.0,0.0,0.0,0.0,0.0,0.0,3.5898,3.5976,3.5996,3.5996,3.5996,3.5996,3.5996,3.5996,3.625,3.6738,3.7539,0.0,0.0,0.0,0.0,0.0,4.1113,0.0,0.0,0.0,0.0,0.0,4.0489,4.0489,0.0,4.0489,4.0489,4.0489,0.0,0.0,0.0,0.0,4.0489,4.0489,4.0489,4.0543,4.06,4.06,4.0677,4.0754,4.0812,0.0,0.0,0.0,0.0,0.0,4.4059,0.0,0.0,4.5992,4.5988,4.6003,0.0,0.0,0.0,0.0,0.0,0.0,0.0,0.0,0.0,0.0,0.0,0.0,0.0,5.3262,5.418,5.457,5.5898,5.6601,5.6601,5.6523,5.6484,5.6484,5.6356,5.6293,5.6294,5.6218,5.6198,0.0,0.0,0.0,5.6142,5.7369,5.8091,5.8511,5.9723,6.0435,6.08,6.0858,6.0935,6.1031,0.0,0.0,0.0,0.0,0.0,0.0,0.0,0.0,0.0,0.0,0.0,0.0,0.0,0.0,0.0,0.0,0.0,0.0,0.0,0.0,0.0,0.0,0.0,3.5737,3.5875,3.5957,3.5996,3.5996,3.5996,3.5996,3.5996,3.5996,3.5996,3.6074,3.7812,3.9004,0.0,0.0,4.1191,4.1191,4.1191,0.0,0.0,0.0,0.0,0.0,0.0,0.0,0.0,4.0489,4.0489,4.0489,4.0489,0.0,0.0,0.0,0.0,0.0,4.0508,4.062,4.0716,4.0696,4.0773,4.085,4.0966,0.0,0.0,0.0,0.0,0.0,0.0,0.0,0.0,0.0,0.0,0.0,0.0,0.0,0.0,0.0,0.0,0.0,0.0,0.0,0.0,0.0,0.0,0.0,0.0,5.3535,5.4394,5.5273,5.6152,5.6601,5.6601,5.6601,5.6601,5.6601,5.6484,5.6426,5.6426,5.6316,5.6251,0.0,0.0,0.0,5.6553,5.8099,5.8742,5.8892,6.0442,6.0973,6.0877,6.0993,6.105,6.1135,0.0,0.0,0.0,0.0,0.0,0.0,0.0,0.0,0.0,0.0,0.0,0.0,0.0,0.0,0.0,0.0,0.0,0.0,0.0,0.0,0.0,0.0,3.5584,3.5643,3.5741,3.5847,3.5937,3.5996,3.5996,3.5996,3.5996,3.5996,3.5996,3.6074,3.7812,3.8672,3.8906,4.0527,4.1191,4.1191,4.1191,0.0,0.0,0.0,0.0,0.0,0.0,0.0,0.0,4.0489,4.0489,4.0489,4.0489,0.0,0.0,0.0,0.0,0.0,4.0639,4.0735,4.0773,4.0716,4.0831,4.0966,0.0,0.0,0.0,0.0,0.0,0.0,0.0,0.0,0.0,0.0,0.0,0.0,0.0,0.0,0.0,0.0,0.0,0.0,0.0,0.0,0.0,0.0,0.0,0.0,0.0,5.3535,5.4394,5.5273,5.6152,5.6601,5.6601,5.6601,5.6601,5.6601,5.6582,5.6562,5.6562,5.6541,5.6538,0.0,0.0,5.689,5.7534,5.8482,5.9228,5.9873,6.0884,6.1247,6.1228,6.1247,6.1343,6.1439,0.0,0.0,0.0,0.0,0.0,0.0,0.0,0.0,0.0,0.0,0.0,0.0,0.0,0.0,0.0,0.0,0.0,0.0,0.0,0.0,0.0,3.5493,3.5545,3.5592,3.5706,3.5822,3.5937,3.5996,3.5996,3.5996,3.5996,3.5996,3.5996,3.6074,3.7812,3.8594,3.8711,4.0469,4.1191,4.1191,0.0,0.0,0.0,0.0,0.0,0.0,0.0,0.0,0.0,0.0,4.0489,4.0489,4.0489,0.0,0.0,0.0,0.0,0.0,4.0735,4.0831,4.0889,4.087,4.099,0.0,0.0,0.0,0.0,0.0,0.0,0.0,0.0,0.0,0.0,0.0,0.0,0.0,0.0,0.0,0.0,0.0,0.0,0.0,0.0,0.0,0.0,0.0,0.0,0.0,0.0,0.0,5.4629,5.5957,5.6387,5.6601,5.6601,5.6601,5.6601,5.6601,5.6601,5.6601,5.6601,5.6601,5.6601,5.6601,0.0,5.7051,5.7871,5.8711,5.9485,6.0196,6.107,6.1361,6.1307,6.1379,6.1483,6.1617,0.0,0.0,0.0,0.0,0.0,0.0,0.0,0.0,0.0,0.0,0.0,0.0,0.0,0.0,0.0,0.0,0.0,0.0,0.0,0.0,3.5493,3.5493,3.5493,3.5565,3.5699,3.58,3.5895,3.5996,3.5996,3.5996,3.5996,3.5996,3.5996,3.6074,3.7812,3.8594,3.8711,4.0469,4.1191,4.1191,0.0,0.0,0.0,0.0,0.0,0.0,0.0,0.0,0.0,0.0,0.0,0.0,0.0,0.0,0.0,4.0658,4.0696,4.0716,4.0812,4.0908,4.1004,0.0,0.0,0.0,0.0,0.0,0.0,0.0,0.0,0.0,0.0,0.0,0.0,0.0,0.0,0.0,0.0,0.0,0.0,0.0,0.0,0.0,0.0,0.0,0.0,0.0,0.0,0.0,0.0,0.0,5.4805,5.6543,5.6601,5.6601,5.6601,5.6601,5.6601,5.6601,5.6601,5.6601,5.6601,5.6601,5.6601,5.6601,5.6601,5.7207,5.8262,5.8926,5.9726,6.0624,6.129,6.148,6.1403,6.152,6.1617,6.1699,0.0,0.0,0.0,0.0,0.0,0.0,0.0,0.0,0.0,0.0,0.0,0.0,0.0,0.0,0.0,0.0,0.0,0.0,0.0,0.0,3.5493,3.5493,3.5493,3.5565,3.5699,3.5706,3.5806,3.5996,3.5996,3.5996,3.5996,3.5996,3.5996,3.6074,3.7812,3.8594,3.8711,4.0469,4.1191,4.1191,4.1191,0.0,0.0,0.0,0.0,0.0,0.0,0.0,0.0,0.0,0.0,0.0,0.0,0.0,4.0543,4.0658,4.0696,4.0735,4.0927,4.0985,4.1024,4.1155,0.0,0.0,0.0,0.0,0.0,0.0,0.0,0.0,0.0,0.0,0.0,0.0,0.0,0.0,0.0,0.0,0.0,0.0,0.0,0.0,0.0,0.0,0.0,0.0,0.0,0.0,0.0,0.0,0.0,5.6543,5.6601,5.6601,5.6601,5.6601,5.6601,5.6601,5.6601,5.6601,5.6601,5.6601,5.6601,5.6601,5.6601,5.7558,5.9101,5.918,6.0156,6.1601,6.1659,6.1678,6.1678,6.1676,6.1698,6.1699,0.0,0.0,0.0,0.0,0.0,0.0,0.0,0.0,0.0,0.0,0.0,0.0,0.0,0.0,0.0,0.0,0.0,0.0,0.0,0.0,3.5493,3.5493,3.5493,3.5565,3.5699,3.5688,3.5797,3.5996,3.5996,3.5996,3.5996,3.5996,3.6289,3.6855,3.8066,3.8906,3.9492,4.0684,4.1191,4.1191,4.1191,4.1191,0.0,0.0,0.0,0.0,0.0,0.0,0.0,0.0,4.0765,4.0754,4.0658,4.0658,4.0696,4.0754,4.0812,4.0916,4.1081,4.1119,4.1142,0.0,0.0,0.0,0.0,0.0,0.0,0.0,0.0,0.0,0.0,0.0,0.0,0.0,0.0,0.0,0.0,0.0,0.0,0.0,0.0,0.0,0.0,0.0,0.0,0.0,0.0,0.0,0.0,0.0,0.0,5.5742,5.6328,5.6601,5.6601,5.6601,5.6601,5.6601,5.6601,5.6601,5.6601,5.6601,5.6601,5.6601,5.6601,5.7598,5.9199,5.9199,6.0195,6.1699,6.1699,6.1699,6.1699,6.1699,6.1699,6.1699,0.0,0.0,0.0,0.0,0.0,0.0,0.0,0.0,0.0,0.0,0.0,0.0,0.0,0.0,0.0,0.0,0.0,0.0,0.0,3.5493,3.5493,3.5493,3.5493,3.5565,3.5699,3.5688,3.5797,3.5996,3.5996,3.5996,3.6016,3.6289,3.6738,3.7344,3.8496,3.9336,3.9961,4.082,4.1191,4.1191,4.1191,4.1191,0.0,0.0,0.0,0.0,0.0,0.0,0.0,0.0,4.0859,4.0846,4.0771,4.0747,4.0812,4.085,4.0927,4.1042,4.1153,4.1203,4.1207,0.0,0.0,0.0,0.0,0.0,0.0,0.0,0.0,0.0,0.0,0.0,0.0,0.0,0.0,0.0,0.0,0.0,0.0,0.0,0.0,0.0,0.0,0.0,0.0,0.0,0.0,0.0,0.0,0.0,0.0,0.0,5.6152,5.6601,5.6601,5.6601,5.6601,5.6601,5.6601,5.6601,5.6601,5.6601,5.6601,5.6601,5.6601,5.7598,5.9199,5.9199,6.0195,6.1699,6.1699,6.1699,6.1699,6.1699,6.1699,6.1699,0.0,0.0,0.0,0.0,0.0,0.0,0.0,0.0,0.0,0.0,0.0,0.0,0.0,0.0,0.0,0.0,0.0,0.0,3.5493,3.5493,3.5493,3.5493,3.5493,3.5565,3.5699,3.5697,3.5802,3.5996,3.5996,3.5996,3.6016,3.6894,3.7305,3.7383,3.9121,3.9902,3.9961,4.082,4.1191,4.1191,4.1191,4.1191,4.1191,0.0,0.0,0.0,0.0,0.0,0.0,0.0,4.0996,4.0974,4.0838,4.0804,4.0827,4.0947,4.1001,4.1023,4.1153,4.1191,0.0,0.0,0.0,0.0,0.0,0.0,0.0,0.0,0.0,0.0,0.0,0.0,0.0,0.0,0.0,0.0,0.0,0.0,0.0,0.0,0.0,0.0,0.0,0.0,0.0,0.0,0.0,0.0,0.0,0.0,0.0,0.0,5.6133,5.6601,5.6601,5.6601,5.6601,5.6601,5.6601,5.6601,5.6601,5.6601,5.6601,5.6601,5.6601,5.7598,5.9199,5.9219,6.0195,6.1699,6.1699,6.1699,6.1699,6.1699,6.1699,6.1699,0.0,0.0,0.0,0.0,0.0,0.0,0.0,0.0,0.0,0.0,0.0,0.0,0.0,0.0,0.0,0.0,0.0,0.0,3.5493,3.5493,3.5493,3.5493,3.5493,3.5545,3.5641,3.5774,3.5893,3.5996,3.5996,3.5996,3.6016,3.6894,3.7637,3.8262,3.9394,4.0234,4.082,4.1094,4.1191,4.1191,4.1191,4.1191,4.1191,0.0,0.0,0.0,0.0,0.0,0.0,0.0,0.0,0.0,4.0988,4.1007,4.1078,4.1009,4.1071,4.1152,4.119,0.0,0.0,0.0,0.0,0.0,0.0,0.0,0.0,0.0,0.0,0.0,0.0,0.0,0.0,0.0,0.0,0.0,0.0,0.0,0.0,0.0,0.0,0.0,0.0,0.0,0.0,0.0,0.0,0.0,0.0,0.0,0.0,0.0,5.582,5.6601,5.6601,5.6601,5.6601,5.6601,5.6601,5.6601,5.6601,5.6601,5.6601,5.6601,5.6601,5.7598,5.9297,6.0469,6.125,6.1699,6.1699,6.1699,6.1699,6.1699,6.1699,6.1699,0.0,0.0,0.0,0.0,0.0,0.0,0.0,0.0,0.0,0.0,3.4467,0.0,0.0,0.0,0.0,0.0,0.0,0.0,0.0,0.0,3.5493,3.5493,3.5493,3.5545,3.5641,3.5812,3.5937,3.5996,3.5996,3.6172,3.6543,3.7402,3.8281,3.9141,4.0039,4.0703,4.1191,4.1144,4.1117,4.1123,4.1126,4.1113,4.1133,0.0,0.0,0.0,0.0,0.0,0.0,0.0,0.0,0.0,4.1094,4.1133,4.1188,4.1108,4.115,4.1191,4.1191,0.0,0.0,0.0,0.0,0.0,0.0,0.0,0.0,0.0,0.0,0.0,0.0,0.0,0.0,0.0,0.0,0.0,0.0,0.0,0.0,0.0,0.0,0.0,0.0,0.0,0.0,0.0,0.0,0.0,0.0,0.0,0.0,0.0,5.5351,5.625,5.6601,5.6601,5.6601,5.6601,5.6601,5.6601,5.6601,5.6601,5.6601,5.664,5.7324,5.8223,5.9336,6.1015,6.1699,6.1699,6.1699,6.1699,6.1699,6.1699,6.1699,6.1699,0.0,0.0,3.3807,3.3807,0.0,0.0,0.0,0.0,0.0,0.0,3.4043,3.4334,0.0,0.0,0.0,0.0,0.0,0.0,0.0,3.5493,3.5493,3.5493,3.5493,3.5565,3.5699,3.5821,3.5918,3.5996,3.6074,3.6523,3.7324,3.8262,3.9141,3.9941,0.0,4.119,4.1162,4.1056,4.0985,4.0969,4.0983,4.0973,4.0994,4.1112,0.0,0.0,0.0,0.0,0.0,0.0,0.0,0.0,4.1191,4.1191,4.1191,4.1191,4.1191,4.1191,0.0,0.0,0.0,0.0,0.0,0.0,0.0,0.0,0.0,0.0,0.0,0.0,0.0,0.0,0.0,0.0,0.0,0.0,0.0,0.0,0.0,0.0,0.0,0.0,0.0,0.0,0.0,0.0,0.0,0.0,0.0,0.0,0.0,5.3965,5.4844,5.5723,5.6582,5.6601,5.6601,0.0,5.6601,5.6601,5.6601,5.6601,5.6601,5.6699,5.8437,5.9199,5.9336,6.1015,6.1699,6.1699,6.1699,6.1699,6.1699,6.1699,6.1699,6.1699,0.0,0.0,3.3807,3.3807,0.0,0.0,0.0,0.0,0.0,0.0,0.0,0.0,0.0,0.0,0.0,0.0,0.0,0.0,3.5493,3.5493,3.5493,3.5493,3.5493,3.5565,3.5699,3.5721,3.5822,3.5996,3.6699,3.7129,0.0,0.0,0.0,3.9941,0.0,4.1139,4.1035,4.1003,4.0927,4.0847,4.0829,4.083,4.0857,4.0877,4.0896,0.0,0.0,0.0,0.0,0.0,0.0,0.0,4.1191,4.1191,4.1191,4.1191,4.1191,4.1191,0.0,0.0,0.0,0.0,0.0,0.0,0.0,0.0,0.0,0.0,0.0,0.0,0.0,0.0,0.0,0.0,0.0,0.0,0.0,0.0,0.0,0.0,0.0,0.0,0.0,0.0,0.0,0.0,0.0,0.0,0.0,0.0,0.0,5.3965,5.4844,5.5723,5.6582,5.6601,5.6601,0.0,5.6601,5.6601,5.6601,5.6601,5.6601,5.6699,5.8437,5.9199,5.9336,6.1015,6.1699,6.1699,6.1699,6.1699,6.1699,6.1699,6.1699,6.1699,0.0,0.0,0.0,0.0,0.0,0.0,0.0,0.0,0.0,0.0,0.0,0.0,0.0,0.0,0.0,0.0,3.5223,3.5369,3.5493,3.5493,3.5493,3.5493,3.5493,3.5565,3.5699,3.5688,3.5997,3.6621,3.75,0.0,0.0,0.0,0.0,4.0547,0.0,4.1128,4.0985,4.0927,4.085,4.0754,4.0754,4.0756,4.0754,4.0792,4.0792,4.0815,4.0874,0.0,0.0,0.0,0.0,0.0,0.0,0.0,4.1191,4.1191,4.1191,4.1191,0.0,0.0,0.0,0.0,0.0,0.0,0.0,0.0,0.0,0.0,0.0,0.0,0.0,0.0,0.0,0.0,0.0,0.0,0.0,0.0,0.0,0.0,0.0,0.0,0.0,0.0,0.0,0.0,0.0,0.0,0.0,5.1836,5.248,5.3359,5.4219,5.5098,5.5976,5.6387,5.6601,5.6601,5.6601,5.6601,5.6601,5.6601,5.6601,5.6699,5.8437,5.9199,5.9336,6.1015,6.1699,6.1699,6.1699,6.1699,6.1699,6.1699,6.1699,6.1699,0.0,0.0,0.0,0.0,0.0,0.0,0.0,0.0,0.0,0.0,0.0,0.0,0.0,0.0,0.0,0.0,0.0,0.0,3.5417,3.546,3.5493,3.5493,3.5493,3.5641,3.5911,3.593,3.6445,3.7519,0.0,0.0,0.0,0.0,0.0,4.1191,0.0,4.11,4.0974,4.0843,4.0754,4.0677,4.0677,4.0677,4.0696,4.0735,4.0754,0.0,4.0793,4.0878,4.0962,4.1015,0.0,0.0,0.0,0.0,4.1191,4.1191,4.1191,4.1191,0.0,0.0,0.0,0.0,0.0,0.0,0.0,0.0,0.0,0.0,0.0,0.0,0.0,0.0,0.0,0.0,0.0,0.0,0.0,0.0,0.0,0.0,0.0,0.0,0.0,0.0,0.0,0.0,0.0,0.0,5.1406,5.1406,5.1797,5.2676,5.3398,5.4277,5.5293,5.6015,5.6445,5.6601,5.6601,5.6601,5.6601,5.6601,5.6601,5.6699,5.8437,5.9199,5.9336,6.1015,6.1699,6.1699,6.1699,6.1699,6.1699,6.1699,6.1699,6.1699,0.0,0.0,0.0,0.0,0.0,0.0,0.0,0.0,0.0,0.0,3.3807,3.3815,0.0,0.0,3.4223,3.4315,3.4794,3.5122,3.5138,0.0,0.0,3.5493,3.5493,3.5911,3.6804,3.6832,3.7342,0.0,0.0,0.0,0.0,0.0,0.0,4.1191,0.0,0.0,4.0839,4.0808,4.0696,4.0543,4.0543,4.06,4.0696,4.0581,4.062,0.0,0.0,4.081,4.0854,4.1088,4.1191,0.0,0.0,0.0,0.0,4.1191,4.1191,0.0,0.0,0.0,0.0,0.0,0.0,0.0,0.0,0.0,0.0,0.0,0.0,0.0,0.0,0.0,0.0,0.0,0.0,0.0,0.0,0.0,0.0,0.0,0.0,0.0,0.0,0.0,0.0,0.0,0.0,0.0,5.1406,5.1406,5.1797,5.2676,5.2812,5.3652,5.5273,5.543,5.5859,5.6601,5.6601,5.6601,5.6601,5.6601,5.6601,5.6699,5.8437,5.9199,5.9336,6.1015,6.1699,6.1699,6.1699,6.1699,6.1699,6.1699,6.1699,6.1699,0.0,0.0,0.0,0.0,0.0,0.0,0.0,0.0,0.0,0.0,0.0,3.3807,0.0,3.3902,3.4117,3.4464,3.5131,3.5892,3.6664,3.6848,3.6911,3.6911,3.6911,3.7156,3.7718,3.7734,3.8244,0.0,0.0,0.0,0.0,4.1016,4.1191,0.0,0.0,0.0,0.0,0.0,0.0,4.0489,4.0489,4.0543,4.0581,0.0,0.0,0.0,0.0,0.0,0.0,0.0,0.0,4.1191,4.1191,0.0,0.0,0.0,4.1191,0.0,0.0,0.0,0.0,0.0,0.0,0.0,0.0,0.0,0.0,0.0,0.0,0.0,0.0,0.0,0.0,0.0,0.0,0.0,0.0,0.0,0.0,0.0,0.0,0.0,0.0,0.0,0.0,0.0,0.0,5.1406,5.1406,5.1406,5.1582,5.1953,5.2441,5.3301,5.4551,5.5058,5.5742,5.6601,5.6601,5.6601,5.6601,5.6601,5.6601,5.6699,5.8437,5.9199,5.9336,6.1015,6.1699,6.1699,6.1699,6.1699,6.1699,6.1699,6.1699,6.1699,0.0,0.0,0.0,0.0,0.0,0.0,0.0,0.0,0.0,0.0,0.0,0.0,0.0,0.0,0.0,0.0,3.5773,3.6805,3.7935,3.8007,3.8007,3.8007,3.8007,3.8209,3.8618,3.8636,0.0,0.0,0.0,0.0,4.1191,4.1191,4.1191,0.0,4.107,0.0,0.0,0.0,0.0,0.0,0.0,4.0543,4.0581,0.0,0.0,0.0,0.0,0.0,0.0,0.0,0.0,0.0,0.0,4.111,0.0,0.0,0.0,0.0,0.0,0.0,0.0,0.0,0.0,0.0,0.0,0.0,0.0,0.0,0.0,0.0,0.0,0.0,0.0,0.0,0.0,0.0,0.0,0.0,0.0,0.0,0.0,0.0,0.0,0.0,0.0,0.0,0.0,5.1406,5.1406,5.1406,5.1406,5.1406,5.2031,5.2891,5.3984,5.5078,5.5957,5.6601,5.6601,5.6601,5.6601,5.6601,5.6601,5.6699,5.8437,5.9199,5.9336,6.1015,6.1699,6.1699,6.1699,6.1699,6.1699,6.1699,6.1699,6.1699,0.0,0.0,0.0,0.0,0.0,0.0,0.0,0.0,0.0,0.0,0.0,0.0,0.0,3.4772,3.5421,3.5464,3.6706,3.7651,3.7973,3.8007,3.8007,3.8007,3.8007,0.0,3.9514,3.9529,0.0,0.0,0.0,0.0,4.1191,4.1191,4.1191,4.1191,4.107,4.0924,4.0804,0.0,0.0,0.0,0.0,4.062,4.0754,0.0,0.0,0.0,0.0,0.0,0.0,0.0,0.0,0.0,0.0,4.0914,4.1016,0.0,0.0,0.0,0.0,0.0,0.0,0.0,0.0,0.0,0.0,0.0,0.0,0.0,0.0,0.0,0.0,0.0,0.0,0.0,0.0,0.0,0.0,0.0,0.0,0.0,0.0,0.0,0.0,0.0,0.0,0.0,0.0,5.1406,5.1406,5.1406,5.1406,5.1406,5.1445,5.2285,5.3984,5.5683,5.6562,5.6601,5.6601,5.6601,5.6601,5.6601,5.6601,5.6699,5.8437,5.9199,5.9336,6.1015,6.1699,6.1699,6.1699,6.1699,6.1699,6.1699,6.1699,6.1699,0.0,0.0,0.0,0.0,0.0,0.0,0.0,0.0,0.0,0.0,0.0,0.0,0.0,3.5721,3.6424,3.68,3.798,3.8946,3.9565,3.9604,3.9604,3.9604,3.9604,3.985,4.0365,0.0,0.0,0.0,0.0,4.1191,4.1191,4.1191,4.1191,4.1191,4.1055,4.0936,4.0793,4.0773,0.0,0.0,4.0617,4.0615,4.06,0.0,0.0,0.0,0.0,0.0,0.0,0.0,0.0,0.0,0.0,0.0,4.0869,4.0863,0.0,0.0,0.0,0.0,0.0,0.0,0.0,0.0,0.0,0.0,0.0,0.0,0.0,0.0,0.0,0.0,0.0,0.0,0.0,0.0,0.0,0.0,0.0,0.0,0.0,0.0,0.0,0.0,0.0,0.0,0.0,0.0,5.1406,5.1406,5.1406,5.1406,5.1406,5.2246,5.3984,5.5176,5.6055,5.6601,5.6601,5.6601,5.6601,5.6601,5.6601,5.6699,5.8437,5.9199,5.9336,6.1015,6.1699,6.1699,6.1699,6.1699,6.1699,6.1699,6.1699,6.1699,0.0,0.0,0.0,0.0,0.0,0.0,0.0,0.0,0.0,0.0,0.0,0.0,0.0,0.0,3.7743,3.8512,3.9272,3.9931,4.0469,4.0489,4.0508,4.0581,4.0581,4.0658,4.085,0.0,0.0,0.0,0.0,0.0,0.0,0.0,4.1191,4.1191,4.1058,4.0948,0.0,0.0,0.0,4.0616,0.0,4.0648,4.0562,0.0,0.0,0.0,0.0,0.0,0.0,0.0,0.0,0.0,0.0,0.0,0.0,0.0,0.0,0.0,0.0,0.0,0.0,0.0,0.0,0.0,0.0,0.0,0.0,0.0,0.0,0.0,0.0,0.0,0.0,0.0,0.0,0.0,0.0,0.0,0.0,0.0,0.0,0.0,0.0,0.0,0.0,0.0,0.0,0.0,5.1406,5.1406,5.1406,5.1406,5.168,5.2539,5.3984,5.4863,5.5742,5.6601,5.6601,5.6601,5.6601,5.6601,5.6601,5.6699,5.8437,5.9199,5.9336,6.1015,6.1699,6.1699,6.1699,6.1699,6.1699,6.1699,6.1699,6.1699,0.0,0.0,0.0,0.0,0.0,0.0,0.0,0.0,0.0,0.0,0.0,0.0,0.0,0.0,0.0,4.0396,4.0489,4.0489,4.0489,4.0489,4.0562,4.0696,4.0696,4.0793,4.0985,0.0,0.0,0.0,0.0,0.0,0.0,0.0,4.1191,0.0,4.1061,4.1005,4.0992,0.0,4.0746,4.0789,0.0,4.0696,4.0677,0.0,0.0,0.0,4.0489,4.0489,0.0,0.0,0.0,0.0,0.0,0.0,0.0,0.0,0.0,0.0,0.0,0.0,0.0,0.0,0.0,0.0,0.0,0.0,0.0,0.0,0.0,0.0,0.0,0.0,0.0,0.0,0.0,0.0,0.0,0.0,0.0,0.0,0.0,0.0,0.0,0.0,0.0,0.0,0.0,5.1406,5.1406,5.1406,5.1406,5.1406,5.2226,5.3086,5.3945,5.4824,5.5703,5.6562,5.6582,5.6601,5.6601,5.6601,5.6601,5.6699,5.8437,5.9199,5.9336,6.1015,6.1699,6.1699,6.1699,6.1699,6.1699,6.1699,6.1699,6.1699,0.0,0.0,0.0,0.0,0.0,0.0,3.5917,0.0,0.0,0.0,0.0,0.0,0.0,0.0,4.0172,4.0469,4.0489,4.0489,4.0489,4.0489,4.0562,4.0696,4.0696,4.0793,4.0985,0.0,0.0,0.0,0.0,0.0,0.0,0.0,0.0,0.0,4.0967,4.0955,4.1128,4.0974,0.0,0.0,4.0771,4.0696,0.0,0.0,0.0,0.0,0.0,4.0489,0.0,0.0,4.0489,4.0489,0.0,0.0,0.0,0.0,0.0,0.0,4.0731,0.0,0.0,0.0,0.0,0.0,0.0,4.0754,0.0,0.0,0.0,0.0,0.0,0.0,0.0,0.0,0.0,0.0,0.0,0.0,0.0,0.0,0.0,0.0,0.0,0.0,0.0,0.0,5.1074,5.1406,5.1406,5.1406,5.1406,5.1406,5.1621,5.2187,5.3047,5.3926,5.4805,5.5664,5.6308,5.6601,5.6601,5.6601,5.6601,5.6699,5.8437,5.9199,5.9336,6.1015,6.1699,6.1699,6.1699,6.1699,6.1699,6.1699,6.1699,6.1699,0.0,0.0,3.6688,3.6358,0.0,3.6592,3.6925,3.7224,0.0,0.0,0.0,0.0,0.0,0.0,4.0489,4.0489,4.0489,4.0508,4.0581,4.0581,4.0658,4.0812,4.0831,4.0899,4.1081,0.0,0.0,0.0,0.0,0.0,0.0,0.0,0.0,0.0,0.0,0.0,0.0,0.0,0.0,0.0,4.0775,0.0,0.0,4.0489,4.0489,0.0,0.0,0.0,4.0489,4.0489,4.0489,0.0,0.0,0.0,0.0,0.0,0.0,0.0,0.0,0.0,0.0,0.0,0.0,0.0,4.0716,4.0735,4.0757,0.0,0.0,0.0,0.0,0.0,0.0,0.0,0.0,0.0,0.0,0.0,0.0,0.0,0.0,0.0,0.0,0.0,0.0,4.9629,5.043,5.1055,5.1387,5.1406,5.1406,5.1406,5.1406,5.1816,5.2695,5.3555,5.4433,5.5312,5.6172,5.6601,5.6601,5.6601,5.6601,5.6699,5.8437,5.9199,5.9336,6.1015,6.1699,6.1699,6.1699,6.1699,6.1699,6.1699,6.1699,6.1699,0.0,0.0,3.7456,3.6795,3.6864,3.7256,3.7984,3.8367,3.8855,0.0,0.0,0.0,0.0,0.0,0.0,0.0,4.0508,4.0581,4.0696,4.0723,4.08,4.1001,4.0985,4.1061,4.1191,4.0449,0.0,0.0,0.0,0.0,0.0,0.0,0.0,0.0,4.0985,4.099,0.0,0.0,0.0,4.08,4.0789,4.0677,0.0,0.0,4.0489,0.0,4.0489,4.0489,4.0489,4.0489,4.0489,0.0,0.0,0.0,0.0,0.0,4.0489,0.0,0.0,0.0,0.0,0.0,0.0,0.0,4.0696,4.0696,4.0696,0.0,0.0,0.0,0.0,0.0,0.0,0.0,0.0,0.0,0.0,0.0,0.0,0.0,0.0,0.0,4.7383,4.7539,4.793,4.8691,4.9648,5.0508,5.123,5.1348,5.1406,5.1406,5.1406,5.1777,5.2558,5.3516,5.4394,5.5176,5.6133,5.6601,5.6601,5.6601,5.6601,5.6699,5.8437,5.9199,5.9336,6.1015,6.1699,6.1699,6.1699,6.1699,6.1699,6.1699,6.1699,6.1699,3.8767,3.8794,3.8819,3.8952,3.9011,3.9096,3.9223,3.9551,0.0,0.0,0.0,0.0,0.0,0.0,0.0,0.0,4.06,4.0677,4.0696,4.0742,4.0854,4.0981,4.0985,4.1061,4.1191,4.1035,4.1035,0.0,0.0,0.0,0.0,0.0,0.0,0.0,4.0934,4.0964,0.0,0.0,0.0,4.08,4.0746,0.0,4.0489,4.0489,4.0489,4.0489,4.0489,4.0489,4.0489,0.0,4.0489,4.0489,0.0,0.0,0.0,0.0,0.0,0.0,0.0,0.0,0.0,0.0,0.0,0.0,4.0696,4.0696,4.0696,0.0,0.0,0.0,0.0,0.0,0.0,0.0,0.0,0.0,0.0,0.0,0.0,0.0,0.0,0.0,4.6543,4.7187,4.7676,4.7832,4.9316,5.0273,5.043,5.1055,5.1406,5.1406,5.1406,5.1484,5.1641,5.3203,5.4082,5.4277,5.5859,5.6601,5.6601,5.6601,5.6601,5.6699,5.8437,5.9199,5.9336,6.1015,6.1699,6.1699,6.1699,6.1699,6.1699,6.1699,6.1699,6.1699,3.9333,3.9339,3.9389,3.9576,3.9754,3.9859,3.9859,4.0101,0.0,0.0,0.0,0.0,0.0,0.0,0.0,0.0,0.0,4.0735,4.0831,4.0868,4.0964,4.1093,4.1093,4.1139,4.1191,4.1125,4.1125,4.1191,0.0,0.0,0.0,0.0,0.0,0.0,0.0,0.0,0.0,0.0,4.0773,4.0793,4.0735,0.0,4.0489,4.0489,4.0489,4.0489,4.0489,4.0489,4.0489,4.0489,4.0489,0.0,0.0,4.0489,4.0489,0.0,4.0489,4.0489,0.0,0.0,0.0,4.0581,0.0,0.0,0.0,4.06,4.06,0.0,0.0,0.0,0.0,0.0,0.0,0.0,0.0,0.0,0.0,0.0,0.0,0.0,0.0,0.0,4.6308,4.6699,4.7129,4.7578,4.8808,4.9746,5.0176,5.0957,5.1406,5.1406,5.1406,5.1406,5.1406,5.3125,5.4004,5.4023,5.5762,5.6601,5.6601,5.6601,5.6601,5.6699,5.8437,5.9199,5.9336,6.1015,6.1699,6.1699,6.1699,6.1699,6.1699,6.1699,6.1699,6.1699,3.9709,3.9709,3.9712,3.9757,4.0003,4.0177,4.0177,4.0356,0.0,0.0,0.0,0.0,0.0,0.0,0.0,0.0,0.0,0.0,0.0,0.0,4.109,4.1191,4.1191,4.1189,4.1169,4.1067,4.1036,4.113,0.0,0.0,0.0,0.0,0.0,0.0,0.0,0.0,0.0,0.0,0.0,4.0773,0.0,4.06,4.0489,4.0489,4.0489,4.0489,4.0489,4.0489,4.0489,4.0489,0.0,4.0489,4.0489,4.0489,0.0,0.0,0.0,0.0,0.0,0.0,0.0,0.0,0.0,4.0489,0.0,0.0,0.0,0.0,0.0,0.0,0.0,0.0,0.0,0.0,0.0,0.0,0.0,0.0,0.0,0.0,0.0,0.0,0.0,4.6308,4.6582,4.7305,4.8301,4.9219,4.9902,5.0879,5.1406,5.1406,5.1406,5.1406,5.1406,5.2969,5.3828,5.4023,5.5605,5.6445,5.6601,5.6601,5.6601,5.6699,5.8437,5.9199,5.9336,6.1015,6.1699,6.1699,6.1699,6.1699,6.1699,6.1699,6.1699,6.1699,4.0081,4.0042,4.012,4.0372,4.0422,4.0457,4.0457,4.0473,0.0,0.0,0.0,0.0,0.0,0.0,0.0,0.0,0.0,0.0,4.0985,0.0,0.0,4.1191,4.1191,4.1144,4.1034,4.1012,4.0954,4.0847,0.0,0.0,0.0,0.0,0.0,0.0,4.0822,0.0,0.0,0.0,4.0696,0.0,4.0581,4.0508,0.0,4.0489,4.0489,4.0489,4.0489,4.0489,4.0489,0.0,4.0489,4.0489,0.0,4.0489,0.0,0.0,0.0,0.0,0.0,0.0,0.0,0.0,4.0489,0.0,0.0,0.0,0.0,0.0,0.0,0.0,0.0,0.0,0.0,0.0,0.0,0.0,0.0,0.0,0.0,0.0,0.0,0.0,0.0,4.6308,4.6348,4.6445,4.7969,4.8945,4.9043,5.0547,5.1406,5.1406,5.1406,5.1406,5.1406,5.2363,5.3242,5.4004,5.498,5.5859,5.6601,5.6601,5.6601,5.6699,5.8437,5.9199,5.9336,6.1015,6.1699,6.1699,6.1699,6.1699,6.1699,6.1699,6.1699,6.1699,4.0356,4.0339,4.0372,4.0473,4.0489,4.0489,4.0489,4.0489,0.0,0.0,0.0,0.0,0.0,0.0,0.0,0.0,0.0,4.1036,0.0,0.0,0.0,4.1191,4.1128,4.1059,4.1001,4.0889,4.0812,4.0793,4.0681,0.0,0.0,0.0,0.0,0.0,4.0731,0.0,4.0793,0.0,0.0,0.0,0.0,0.0,0.0,4.0489,4.0489,4.0489,4.0489,4.0489,4.0489,0.0,4.0489,0.0,0.0,0.0,0.0,0.0,0.0,0.0,0.0,0.0,0.0,0.0,0.0,0.0,0.0,0.0,4.0489,0.0,0.0,0.0,0.0,0.0,0.0,0.0,4.2806,0.0,0.0,0.0,0.0,0.0,0.0,0.0,0.0,0.0,0.0,0.0,4.791,4.8906,4.8906,5.0488,5.1406,5.1406,5.1406,5.1406,5.1406,5.2266,5.3144,5.4004,5.4883,5.5762,5.6601,5.6601,5.6601,5.6699,5.8437,5.9199,5.9336,6.1015,6.1699,6.1699,6.1699,6.1699,6.1699,6.1699,6.1699,6.1699,4.0489,0.0,0.0,0.0,0.0,4.0489,4.0489,0.0,0.0,0.0,0.0,0.0,4.0773,4.0859,0.0,0.0,0.0,4.1104,0.0,0.0,4.1188,4.1148,4.109,0.0,0.0,4.0793,4.0716,4.0716,4.0581,0.0,0.0,0.0,0.0,0.0,0.0,4.0716,4.0716,0.0,0.0,4.0639,4.0543,4.0489,4.0489,4.0489,4.0489,4.0489,4.0489,4.0489,4.0489,4.0489,4.0489,0.0,4.0489,0.0,0.0,0.0,0.0,0.0,4.0489,0.0,0.0,0.0,0.0,0.0,0.0,0.0,0.0,0.0,0.0,0.0,0.0,0.0,0.0,0.0,0.0,4.3528,0.0,0.0,0.0,0.0,0.0,0.0,0.0,0.0,0.0,0.0,0.0,4.8906,4.8906,5.0488,5.1406,5.1406,5.1406,5.1406,5.1406,5.2031,5.2891,5.4004,5.4648,5.5527,5.6601,5.6601,5.6601,5.6699,5.8437,5.9199,5.9336,6.1015,6.1699,6.1699,6.1699,6.1699,6.1699,6.1699,6.1699,6.1699,4.0489,4.0489,0.0,0.0,0.0,0.0,0.0,0.0,0.0,0.0,0.0,0.0,0.0,0.0,0.0,0.0,0.0,4.1191,4.1191,0.0,4.1139,0.0,0.0,4.1042,0.0,0.0,4.0696,4.0508,4.0489,0.0,0.0,0.0,0.0,0.0,0.0,4.0639,4.0508,4.0489,4.0489,4.0508,4.0489,4.0489,4.0489,0.0,4.0489,4.0489,4.0489,0.0,0.0,4.0489,4.0489,0.0,0.0,0.0,0.0,0.0,0.0,0.0,0.0,0.0,0.0,4.0489,0.0,0.0,0.0,0.0,4.0489,0.0,0.0,0.0,0.0,0.0,4.0562,4.0716,4.2131,0.0,0.0,0.0,0.0,0.0,0.0,0.0,0.0,0.0,0.0,0.0,0.0,0.0,4.8906,5.0488,5.1406,5.1406,5.1406,5.1406,5.1406,5.1426,5.2305,5.4004,5.4023,5.4941,5.6601,5.6601,5.6601,5.6699,5.8437,5.9199,5.9336,6.1015,6.1699,6.1699,6.1699,6.1699,6.1699,6.1699,6.1699,6.1699,4.0489,0.0,0.0,0.0,0.0,0.0,0.0,4.0639,0.0,0.0,0.0,0.0,0.0,0.0,4.1191,0.0,0.0,4.1191,4.1191,4.1191,0.0,0.0,0.0,4.0866,0.0,0.0,0.0,0.0,0.0,0.0,0.0,0.0,0.0,0.0,0.0,4.0543,0.0,0.0,0.0,0.0,0.0,4.0489,4.0489,0.0,0.0,4.0489,4.0489,4.0489,0.0,4.0489,4.0489,4.0489,4.0489,4.0489,4.0489,4.0489,4.0489,0.0,0.0,0.0,4.0489,4.0489,0.0,0.0,0.0,0.0,0.0,0.0,0.0,0.0,0.0,0.0,4.0739,4.1492,4.251,4.3447,0.0,0.0,0.0,0.0,0.0,0.0,0.0,0.0,0.0,0.0,4.8242,0.0,0.0,5.0801,5.1406,5.1406,5.1406,5.1406,5.1406,5.1406,5.2266,5.4004,5.4004,5.4902,5.6601,5.6601,5.6601,5.6699,5.8437,5.9199,5.9336,6.1015,6.1699,6.1699,6.1699,6.1699,6.1699,6.1699,6.1699,6.1699,4.0489,0.0,0.0,0.0,0.0,0.0,0.0,0.0,0.0,0.0,4.0947,0.0,4.1071,0.0,4.1191,0.0,4.1191,4.1191,4.1191,4.116,0.0,4.0926,4.0848,0.0,0.0,0.0,0.0,0.0,0.0,4.0489,0.0,0.0,0.0,0.0,0.0,0.0,0.0,0.0,4.0489,0.0,0.0,4.0489,0.0,0.0,4.0489,4.0489,0.0,4.0489,4.0489,4.0489,4.0489,4.0489,4.0489,4.0489,4.0489,4.0489,4.0489,4.0489,4.0489,4.0489,0.0,4.0873,4.095,0.0,4.095,0.0,0.0,0.0,0.0,0.0,0.0,0.0,4.1363,4.2313,4.314,4.3987,0.0,4.5592,0.0,0.0,0.0,0.0,0.0,0.0,0.0,4.7539,4.8418,0.0,0.0,0.0,5.1406,5.1406,5.1406,5.1406,5.1406,5.1406,5.2266,5.4004,5.4004,5.4902,5.6601,5.6601,5.6601,5.6699,5.8437,5.9199,5.9336,6.1015,6.1699,6.1699,6.1699,6.1699,6.1699,6.1699,6.1699,6.1699,4.0508,4.0508,0.0,0.0,4.0508,0.0,0.0,0.0,4.0789,0.0,4.1007,4.1059,4.1189,4.1191,4.1191,4.1191,4.1191,0.0,4.119,4.1072,0.0,0.0,4.0804,4.0696,4.0489,0.0,0.0,0.0,0.0,0.0,0.0,0.0,0.0,0.0,4.0489,0.0,4.0489,4.0489,4.0489,4.0489,4.0489,4.0489,4.0489,4.0489,4.0489,4.0489,4.0489,4.0489,4.0489,4.0489,4.0489,4.0489,4.0489,4.0527,4.0546,4.0546,4.0585,4.0623,4.0623,4.0623,4.0816,4.1662,0.0,0.0,0.0,0.0,4.1873,0.0,0.0,0.0,0.0,0.0,0.0,4.3073,4.3968,4.4853,0.0,0.0,0.0,0.0,0.0,0.0,0.0,0.0,4.668,4.7598,4.8437,4.9297,0.0,0.0,5.1406,5.1406,5.1406,5.1406,5.1406,5.1406,5.2266,5.4004,5.4004,5.4902,5.6601,5.6601,5.6601,5.6699,5.8437,5.9199,5.9336,6.1015,6.1699,6.1699,6.1699,6.1699,6.1699,6.1699,6.1699,6.1699,4.0716,4.0677,4.0658,0.0,4.0677,4.0716,0.0,0.0,0.0,0.0,4.1152,4.1169,4.1191,4.1191,4.1191,4.1191,4.1191,0.0,0.0,0.0,0.0,4.0731,4.0723,4.0658,4.0489,4.0543,0.0,4.0489,0.0,0.0,4.0489,0.0,0.0,0.0,0.0,0.0,4.0489,4.0489,4.0489,4.0489,4.0489,4.0489,0.0,0.0,4.0489,4.0489,4.0489,4.0489,4.0489,4.0489,4.0489,4.0489,4.0489,4.0931,4.147,4.147,4.1931,4.2431,4.2431,4.2431,4.2489,4.272,4.2777,4.2777,0.0,0.0,0.0,0.0,0.0,0.0,0.0,0.0,0.0,0.0,4.4968,4.5545,0.0,0.0,0.0,0.0,0.0,0.0,0.0,0.0,4.6933,4.8457,4.8769,4.9531,5.1016,0.0,0.0,5.1406,5.1406,5.1406,5.1406,5.1406,5.2266,5.4004,5.4004,5.4902,5.6601,5.6601,5.6601,5.6699,5.8437,5.9199,5.9336,6.1015,6.1699,6.1699,6.1699,6.1699,6.1699,6.1699,6.1699,6.1699,4.0796,0.0,0.0,4.0862,0.0,0.0,4.0966,0.0,0.0,4.1187,4.1191,0.0,4.1191,4.1191,4.1183,4.1124,4.111,0.0,0.0,0.0,0.0,4.0696,4.0639,4.0581,4.0489,4.0489,0.0,4.0489,0.0,0.0,4.0489,0.0,0.0,0.0,0.0,4.0489,0.0,4.0489,4.0489,4.0489,4.0489,0.0,0.0,4.0489,4.0489,4.0489,4.0489,4.0489,4.0489,4.0489,4.0489,4.0566,4.095,4.1412,4.1873,4.2258,4.272,4.3104,4.3104,4.3104,4.3181,4.3547,4.3624,4.3624,4.3624,4.3624,4.3624,0.0,0.0,0.0,0.0,0.0,0.0,0.0,0.0,0.0,0.0,0.0,0.0,0.0,0.0,0.0,0.0,0.0,4.7422,4.8808,4.9258,5.0039,0.0,0.0,0.0,5.1406,5.1406,5.1406,5.1406,5.1406,5.2266,5.4004,5.4004,5.4902,5.6601,5.6601,5.6601,5.6699,5.8437,5.9199,5.9336,6.1015,6.1699,6.1699,6.1699,6.1699,6.1699,6.1699,6.1699,6.1699,4.0857,0.0,0.0,0.0,0.0,0.0,0.0,4.1029,0.0,4.1188,0.0,4.1191,4.1191,4.1188,4.1128,4.1007,0.0,4.0919,4.08,4.0733,4.0696,4.0677,4.0562,4.0489,4.0489,4.0489,0.0,0.0,0.0,0.0,0.0,0.0,0.0,0.0,0.0,0.0,0.0,4.0489,4.0489,4.0489,4.0489,4.0489,4.0489,4.0489,4.0489,4.0508,4.0623,4.0585,4.0508,4.0623,4.0662,4.0816,4.17,4.2047,4.2277,4.3028,4.3335,4.3431,4.3431,4.3431,4.3605,4.4297,4.447,4.447,4.447,4.447,4.447,4.447,4.397,4.3951,0.0,0.0,0.0,0.0,0.0,0.0,0.0,0.0,0.0,0.0,0.0,0.0,0.0,0.0,4.7969,4.8828,4.9707,5.0547,0.0,0.0,0.0,5.1406,5.1406,5.1406,5.1406,0.0,5.2266,5.4004,5.4004,5.4902,5.6601,5.6601,5.666,5.6855,5.8496,5.9258,5.9473,6.1055,6.1699,6.1699,6.1699,6.1699,6.1699,6.1699,6.1699,6.1699,0.0,0.0,0.0,0.0,0.0,4.1042,4.1148,4.1153,4.116,4.1191,4.1191,4.1191,4.1191,4.1101,4.1034,4.1001,4.0889,0.0,0.0,0.0,0.0,4.0543,4.0508,4.0489,4.0489,4.0489,4.0489,0.0,0.0,0.0,0.0,0.0,0.0,0.0,0.0,0.0,4.0489,4.0489,0.0,4.0489,4.0489,4.0489,4.0489,4.0489,4.0489,4.0585,4.1316,4.1104,4.0604,4.1335,4.1566,4.172,4.2604,4.3335,4.3893,4.4047,4.4605,4.5163,4.5163,4.5163,4.5201,4.5336,4.5355,4.5355,4.5355,4.5355,4.5355,4.5355,4.5259,4.5297,4.5699,0.0,0.0,0.0,0.0,0.0,0.0,0.0,0.0,0.0,0.0,0.0,0.0,0.0,0.0,0.0,4.9707,5.0547,0.0,0.0,0.0,0.0,5.1406,0.0,0.0,0.0,5.2266,5.4004,5.4004,5.4902,5.6601,5.6601,5.6992,5.7734,5.8769,5.957,6.0273,6.1289,6.1699,6.1699,6.1699,6.1699,6.1699,6.1699,6.1699,6.1699,0.0,0.0,0.0,0.0,0.0,0.0,0.0,4.1104,0.0,4.119,4.1135,4.1104,4.1104,4.0985,4.0887,4.0847,4.0793,4.0696,4.06,4.06,4.0581,4.0489,4.0489,0.0,4.0489,4.0489,4.0489,4.0489,0.0,0.0,0.0,0.0,0.0,0.0,0.0,4.0489,0.0,0.0,0.0,4.0489,4.0489,4.0489,4.0489,4.0489,4.0777,4.1239,4.1662,4.1816,4.1912,4.2335,4.247,4.2624,4.3451,4.3989,4.4393,4.4836,4.5259,4.5586,4.5586,4.5586,4.5586,4.5586,4.5586,4.5586,4.5586,4.5586,4.5586,4.5586,4.5586,4.5624,4.5776,4.5823,0.0,0.0,0.0,0.0,0.0,0.0,0.0,0.0,0.0,0.0,0.0,0.0,0.0,0.0,0.0,0.0,0.0,0.0,0.0,0.0,0.0,0.0,0.0,0.0,0.0,5.4004,5.4453,5.5351,5.6601,5.6601,5.707,5.7949,5.8828,5.9668,6.0469,6.1348,6.1699,6.1699,6.1699,6.1699,6.1699,6.1699,6.1699,6.1699,0.0,4.1163,0.0,0.0,4.1106,0.0,4.0978,4.0969,4.1009,4.1091,4.1012,4.0959,4.0962,4.0846,4.0757,4.0708,4.0677,4.062,4.0508,4.0489,4.0489,4.0489,4.0489,4.0489,4.0489,4.0489,4.0489,0.0,0.0,0.0,0.0,0.0,0.0,0.0,0.0,0.0,0.0,0.0,4.0489,4.0489,4.0489,4.0604,4.0777,4.0777,4.1316,4.2104,4.2277,4.2777,4.3374,4.3566,4.3508,4.3508,4.4316,4.4586,4.4701,4.5393,4.5586,4.5586,4.5586,4.5586,4.5586,4.5586,4.5586,4.5586,4.5586,4.5586,4.5586,4.5586,4.5586,4.5624,4.5738,4.5757,0.0,0.0,0.0,0.0,0.0,0.0,0.0,0.0,0.0,0.0,0.0,0.0,0.0,0.0,0.0,5.1406,5.1406,5.1406,5.1406,0.0,0.0,5.1406,5.1406,0.0,5.3144,5.4004,5.4883,5.5762,5.6601,5.6601,5.7187,5.8203,5.8906,5.9765,6.0723,6.1426,6.1699,6.1699,6.1699,6.1699,6.1699,6.1699,6.1699,6.1699,0.0,0.0,0.0,0.0,0.0,0.0,0.0,4.081,4.0822,4.084,4.0832,4.0819,4.0819,4.0746,4.0708,4.0696,4.06,4.0508,4.0489,4.0489,4.0489,4.0489,4.0489,4.0489,4.0489,4.0489,4.0489,0.0,0.0,0.0,0.0,0.0,0.0,0.0,0.0,0.0,0.0,4.0489,4.0489,4.0489,4.0489,4.0969,4.1681,4.1681,4.222,4.3066,4.3797,4.4124,4.4316,4.5086,4.4836,4.4335,4.5201,4.547,4.549,4.5566,4.5586,4.5586,4.5586,4.5586,4.5586,4.5586,4.5586,4.5586,4.5586,4.5586,4.5586,4.5586,4.5586,4.5586,4.5605,4.5605,4.5605,0.0,0.0,0.0,0.0,0.0,0.0,0.0,0.0,0.0,0.0,4.9648,0.0,0.0,5.1367,5.1406,5.1406,5.1406,5.1406,5.1406,0.0,5.1406,5.1406,5.2266,5.3144,5.4004,5.4883,5.5762,5.6601,5.6601,5.7519,5.9082,5.916,6.0098,6.1582,6.168,6.1699,6.1699,6.1699,6.1699,6.1699,6.1699,6.1699,6.1699,0.0,0.0,0.0,0.0,0.0,0.0,0.0,4.0742,4.0896,4.1345,4.1003,4.0739,4.0731,4.1104,4.1354,4.1354,4.1797,4.2066,4.2066,4.1566,4.1277,4.1277,4.0777,4.0489,4.0489,4.0489,4.0489,0.0,0.0,0.0,0.0,0.0,0.0,0.0,0.0,4.0489,4.0489,4.0489,4.0489,4.0546,4.1066,4.1489,4.1873,4.2374,4.3104,4.3855,4.4182,4.4643,4.5124,4.547,4.5355,4.5143,4.549,4.5586,4.5586,4.5586,4.5586,4.5586,4.5586,4.5586,4.5586,4.5586,4.5586,4.5586,4.5586,4.5586,4.5586,4.5586,4.5586,4.5586,4.5586,4.5586,4.5586,0.0,0.0,0.0,0.0,0.0,0.0,0.0,0.0,0.0,0.0,0.0,5.1055,0.0,0.0,5.1406,5.1406,5.1406,5.1406,5.1406,0.0,5.1406,5.1406,5.2773,5.3652,5.4023,5.541,5.6269,5.6601,5.6601,5.7558,5.9258,6.0254,6.1074,6.1699,6.1699,6.1699,6.1699,6.1699,6.1699,6.1699,6.1699,6.1699,6.1699,4.0771,0.0,4.0754,0.0,4.0716,4.0793,4.1004,4.1008,4.1296,4.2085,4.172,4.1408,4.1408,4.1873,4.2181,4.2181,4.2739,4.3104,4.3104,4.2527,4.2181,4.2181,4.1585,0.0,4.0893,4.0873,4.0758,4.0489,4.0489,0.0,0.0,0.0,0.0,0.0,4.0489,4.0489,4.0508,4.0758,4.0873,4.095,4.1835,4.2316,4.2604,4.322,4.3951,4.4682,4.4682,4.5066,4.5586,4.5586,4.5586,4.5586,4.5586,4.5586,4.5586,4.5586,4.5586,4.5586,4.5586,4.5586,4.5586,4.5586,4.5586,4.5586,4.5586,4.5586,4.5586,4.5586,4.5586,4.5586,4.5586,4.5586,4.5586,4.5586,0.0,0.0,0.0,0.0,0.0,0.0,4.8943,5.0,4.9999,5.0859,0.0,0.0,0.0,0.0,5.1406,5.1406,0.0,0.0,0.0,0.0,0.0,5.3125,5.4004,5.4023,5.5762,5.6601,5.6621,5.7129,5.8164,5.9629,6.1074,6.1699,6.1699,6.1699,6.1699,6.1699,6.1699,6.1699,6.1699,6.1699,6.1699,6.1699,4.0696,4.0696,4.0658,4.0543,4.0489,4.0777,4.1662,4.1797,4.2104,4.297,4.3085,4.3066,4.3066,4.3085,4.3085,4.3085,4.3085,4.3104,4.3104,4.3085,4.3085,0.0,0.0,4.2662,4.1797,4.1777,4.1354,4.0489,0.0,0.0,4.0489,0.0,4.0489,4.0489,4.0489,4.0489,4.0546,4.1412,4.1777,4.1873,4.2739,4.3566,4.4259,4.4278,4.4816,4.5566,4.5566,4.5586,4.5586,4.5586,4.5586,4.5586,4.5586,4.5586,4.5586,4.5586,4.5586,4.5586,4.5586,4.5586,4.5586,4.5586,4.5586,4.5586,4.5586,4.5586,4.5586,4.5586,4.5586,4.5586,4.5586,4.5586,4.5586,4.5586,0.0,0.0,0.0,0.0,0.0,0.0,4.9298,4.9993,4.9997,0.0,0.0,0.0,0.0,0.0,0.0,0.0,0.0,5.1406,5.1406,0.0,5.1406,5.3125,5.4004,5.4023,5.5762,5.6601,5.666,5.8379,5.9609,6.043,6.1328,6.1699,6.1699,6.1699,6.1699,6.1699,6.1699,6.1699,6.1699,6.1699,6.1699,6.1699,4.0581,4.1027,4.1431,4.1393,4.1873,4.2374,4.2643,4.2701,4.2989,4.3816,4.3912,4.4143,4.4739,4.4259,4.3912,0.0,4.4451,4.4797,0.0,4.4239,4.3912,4.3912,4.3393,4.297,4.2701,4.2701,4.2547,4.2277,0.0,0.0,0.0,4.1393,4.1393,4.1412,4.2008,4.2277,4.2297,4.2566,4.2701,4.2758,4.3585,4.4066,4.4355,4.4951,4.5355,4.5586,4.5586,4.5586,4.5586,4.5586,4.599,4.649,4.649,4.6086,4.572,4.6317,4.649,4.6605,4.7163,4.7298,4.7298,4.7298,4.7298,4.7298,4.7298,4.6874,4.649,4.649,4.6009,4.5586,4.5586,4.5586,4.5778,4.6394,4.649,0.0,0.0,0.0,0.0,0.0,4.9971,5.0612,0.0,5.1011,0.0,0.0,0.0,0.0,0.0,0.0,0.0,0.0,5.1406,0.0,5.2285,5.3437,5.4297,5.4902,5.6055,5.6914,5.7539,5.8672,5.9648,6.0449,6.1328,6.1699,6.1699,6.1699,6.1699,6.1699,6.1699,6.1699,6.1699,6.1699,6.1699,6.1699,4.147,4.1912,4.2297,4.2297,4.2739,4.3201,4.3508,4.3547,4.3855,4.4682,4.4778,4.4989,4.5528,4.5105,0.0,4.4778,4.5278,4.5586,4.5586,4.5086,4.4778,4.4778,4.4316,4.3893,4.3566,0.0,0.0,4.3104,4.3104,4.2816,4.2297,4.2297,4.2297,4.2316,4.2854,4.3104,4.3124,4.3412,4.3547,4.3624,4.4451,4.4778,4.4855,4.5393,4.5586,4.5586,4.5586,4.5797,4.6086,4.6086,4.6644,4.7355,4.7355,4.699,4.6644,4.7201,4.7355,4.7471,4.7971,4.8105,4.8105,4.8105,4.8105,4.8105,4.8105,4.7721,4.7355,4.7355,4.6913,4.6528,4.6528,4.6528,4.6721,4.7259,4.7355,4.7644,4.8471,0.0,0.0,0.0,0.0,0.0,0.0,5.1063,5.1171,0.0,0.0,0.0,0.0,0.0,0.0,5.1406,5.1406,0.0,5.2695,5.3555,5.4433,5.5312,5.6523,5.7539,5.8418,5.9258,6.0098,6.0918,6.1465,6.1699,6.1699,6.1699,6.1699,6.1699,6.1699,6.1699,6.1699,6.1699,6.1699,6.1699,4.3104,4.3143,0.0,0.0,4.3239,0.0,4.4278,4.4393,4.4682,4.549,4.5586,4.5586,4.5586,4.5586,4.5586,4.5586,0.0,0.0,0.0,4.5586,4.5586,4.5586,4.5586,4.522,4.4412,4.4393,4.4028,4.3278,4.3201,4.3181,4.3181,4.3181,4.3181,4.3181,4.3258,4.3278,4.3316,4.4066,4.4393,4.4451,4.5259,4.5586,4.5586,4.5586,4.5624,4.5682,4.5682,4.624,4.699,4.699,4.7528,4.8202,4.8202,4.824,4.8279,4.8221,4.8202,4.8202,4.8259,4.8279,4.8279,4.8279,4.8279,4.8279,4.8279,4.824,4.8202,4.8202,4.8144,4.8105,4.8105,4.8105,4.8125,4.8182,4.8202,4.849,4.9375,0.0,0.0,0.0,0.0,0.0,0.0,5.101,5.1116,0.0,0.0,0.0,0.0,0.0,5.1406,5.1406,5.1465,5.1914,5.2773,5.3652,5.4531,5.541,5.7109,5.8359,5.9238,6.0039,6.0879,6.1699,6.1699,6.1699,6.1699,6.1699,6.1699,6.1699,6.1699,6.1699,6.1699,6.1699,6.1699,6.1699,0.0,0.0,4.4028,4.4028,4.4566,4.5066,4.5259,4.5278,4.5355,4.5566,4.5586,4.5586,4.5586,4.5586,4.5586,4.5586,4.5586,4.5586,4.5586,4.5586,4.5586,4.5586,4.5586,4.549,4.5297,4.5278,4.5201,4.5009,4.4335,4.4028,4.4028,4.4028,4.4028,4.4047,4.4701,4.5009,4.5009,4.5201,4.5278,4.5297,4.5509,4.5586,4.5586,4.5586,4.6009,4.6586,4.6586,4.7124,4.7817,4.7817,4.8375,4.9086,4.9086,4.9548,4.9952,4.9298,4.9086,4.924,4.9894,5.0067,5.0067,5.0067,5.0067,5.0067,5.0067,4.9567,4.9086,4.9086,4.8567,4.8105,4.8105,4.8105,4.8317,4.8971,4.9086,4.9394,5.026,5.0375,0.0,0.0,5.0721,5.0741,5.0741,5.0875,5.095,0.0,0.0,0.0,0.0,5.1348,5.1406,5.1406,5.2051,5.2812,5.3672,5.4551,5.543,5.6308,5.7383,5.8359,5.9238,6.0039,6.0879,6.1699,6.1699,6.1699,6.1699,6.1699,6.1699,6.1699,6.1699,6.1699,6.1699,6.1699,6.1699,6.1699,4.4239,4.4586,4.4893,4.4893,4.5278,4.5586,4.5586,4.5586,4.5586,4.5586,4.5586,4.5586,4.5586,4.5586,4.5586,4.5586,4.5586,4.5586,4.5586,4.5586,4.5586,4.5586,4.5586,4.5586,4.5586,4.5586,4.5586,4.5586,4.5124,4.4893,4.4893,4.4893,4.4893,4.4913,4.5393,4.5586,4.5586,4.5586,4.5586,4.5586,4.5586,4.5836,4.6182,4.6182,4.6721,4.7451,4.7451,4.799,4.8682,4.8682,4.926,4.999,4.999,5.0317,5.0606,5.0125,4.999,5.0087,5.0567,5.0702,5.0702,5.0702,5.0702,5.0702,5.0702,5.0317,4.999,4.999,4.9625,4.9298,4.9298,4.9298,4.9433,4.9913,4.999,5.0164,5.0625,5.0702,0.0,5.0702,5.0702,5.0702,5.0702,5.076,5.0837,5.0914,5.1063,0.0,5.1191,5.1699,5.1992,5.1992,5.2441,5.3301,5.457,5.5469,5.6328,5.7207,5.8086,5.8926,5.9785,6.0605,6.125,6.1699,6.1699,6.1699,6.1699,6.1699,6.1699,6.1699,6.1699,6.1699,6.1699,6.1699,6.1699,6.1699,4.5586,4.5586,4.5586,4.5586,4.5586,4.5586,4.5586,4.5586,4.5643,4.5776,4.5796,4.5834,4.5969,4.5988,4.5988,4.5988,4.5988,4.593,4.5796,4.5911,4.5988,4.5988,4.5853,4.5796,4.5796,4.568,4.5586,4.5586,4.555,4.5513,4.5513,4.5513,4.5495,4.5457,4.5549,4.5568,4.5532,4.5703,4.5797,4.5797,4.5932,4.6413,4.7086,4.7086,4.7586,4.8298,4.8298,4.8856,4.9606,4.9606,5.0087,5.0702,5.0702,5.0702,5.0702,5.0702,5.0702,5.0702,5.0702,5.0702,5.0702,5.0702,5.0702,5.0702,5.0702,5.0702,5.0702,5.0702,5.0702,5.0702,5.0702,5.0702,5.0702,5.0702,5.0702,5.0702,5.0702,0.0,5.0702,5.0702,5.0702,5.0702,5.0702,5.0702,5.076,5.0895,5.1029,5.1179,5.1382,5.2224,5.2812,5.3086,5.3086,5.3867,5.5488,5.623,5.7031,5.791,5.8789,5.9629,6.043,6.1308,6.1699,6.1699,6.1699,6.1699,6.1699,6.1699,6.1699,6.1699,6.1699,6.1699,6.1699,6.1699,6.1699,6.1699,4.5586,4.5586,4.5586,4.5586,4.5586,4.5586,4.5586,4.5586,4.5853,4.6602,4.6698,4.6966,4.7638,4.7715,4.7715,4.7715,4.7715,4.7409,4.6737,4.7332,4.7715,4.7715,4.7062,4.6698,4.6698,4.5988,4.5586,4.5586,4.5322,4.518,4.518,4.518,4.503,4.4781,4.5342,4.5438,4.5239,4.6263,4.6701,4.6759,4.7451,4.7798,4.7913,4.7913,4.8452,4.9202,4.9202,4.976,5.0491,5.0491,5.0587,5.0702,5.0702,5.0702,5.0702,5.0702,5.0702,5.0702,5.0702,5.0702,5.0702,5.0702,5.0702,5.0702,5.0702,5.0702,5.0702,5.0702,5.0702,5.0702,5.0702,5.0702,5.0702,5.0702,5.0702,5.0702,5.0702,0.0,5.0702,5.0702,5.0702,5.0702,5.0702,5.0702,5.076,5.0895,5.1029,5.1452,5.2266,5.2545,5.3379,5.4844,5.4902,5.5371,5.6387,5.6523,5.7031,5.791,5.8789,5.9629,6.043,6.1308,6.1699,6.1699,6.1699,6.1699,6.1699,6.1699,6.1699,6.1699,6.1699,6.1699,6.1699,6.1699,6.1699,6.1699,4.5586,4.5586,4.5586,4.5586,4.5988,4.6313,4.6313,4.666,4.7101,4.7503,4.7547,4.7683,4.8067,4.8105,4.8105,4.8105,4.8528,4.8643,4.8259,4.8143,4.8103,4.8103,4.7739,4.7449,4.7236,4.6641,4.634,4.635,4.6199,4.6117,4.6127,4.6127,4.6152,4.6182,4.6498,4.6663,4.6741,4.73,4.7548,4.7586,4.7952,4.8375,4.8798,4.8798,4.9336,5.0087,5.0087,5.0356,5.0702,5.0702,5.0702,5.0702,5.0702,5.0702,5.0702,5.0702,5.0702,5.0702,5.0702,5.0702,5.0702,5.0702,5.0702,5.0702,5.0702,5.0702,5.0702,5.0702,5.0702,5.0702,5.0702,5.0702,5.0702,5.0702,5.0702,0.0,0.0,5.0702,5.0702,5.0702,5.0702,5.0702,5.0702,5.076,5.0837,5.0914,5.1491,5.203,5.2473,5.3513,5.4473,5.5273,5.5762,5.6191,5.6601,5.707,5.7734,5.8613,5.9453,6.0293,6.1113,6.1523,6.1699,6.1699,6.1699,6.1699,6.1699,6.1699,6.1699,6.1699,6.1699,6.1699,6.1699,6.1699,6.1699,6.1699,4.5853,4.5911,4.5969,4.6142,4.6718,4.7197,4.7181,4.7699,4.8179,4.8372,4.8394,4.8491,4.8683,4.8702,4.8702,4.8702,4.9317,4.9702,4.9702,4.9086,4.8702,4.8702,4.8509,4.8144,4.7643,4.739,4.725,4.7276,4.72,4.7138,4.7159,4.7159,4.7245,4.7419,4.7579,4.7771,4.801,4.8279,4.8394,4.8413,4.8625,4.9106,4.9702,4.9702,5.0106,5.0702,5.0702,5.0702,5.0702,5.0702,5.0702,5.0702,5.0702,5.0702,5.0702,5.0702,5.0702,5.0702,5.0702,5.0702,5.0702,5.0702,5.0702,5.0702,5.0702,5.0702,5.0702,5.0702,5.0702,5.0702,5.0702,5.0702,5.0702,5.0702,0.0,0.0,0.0,5.0702,5.0702,5.0702,5.0702,5.0702,5.0702,5.0991,5.1202,5.1233,5.2203,5.2913,5.315,5.4513,5.539,5.5605,5.625,5.6699,5.6894,5.7578,5.8437,5.9492,6.0098,6.0859,6.1699,6.1699,6.1699,6.1699,6.1699,6.1699,6.1699,6.1699,6.1699,6.1699,6.1699,6.1699,6.1699,6.1699,6.1699,6.1699,4.6641,4.6795,4.7043,4.7792,4.7966,4.8025,4.801,4.8068,4.8395,4.9202,4.9298,4.9625,5.0414,5.051,5.051,5.051,5.0567,5.0587,5.0587,5.0529,5.051,5.051,4.9721,4.8903,4.8071,4.8021,4.8034,4.8011,4.7707,4.7547,4.7575,4.7575,4.7395,4.7159,4.779,4.7893,4.7723,4.8816,4.9298,4.9375,5.0183,5.0548,5.0587,5.0587,5.0625,5.0702,5.0702,5.0702,5.0702,5.0702,5.0702,5.0702,5.0702,5.0702,5.0702,5.0702,5.0702,5.0702,5.0702,5.0702,5.0702,5.0702,5.0702,5.0702,5.0702,5.0702,5.0702,5.0702,5.0702,5.0702,5.0702,5.0702,5.0702,5.0702,0.0,0.0,5.0702,5.0702,5.0702,5.0702,5.0702,5.0702,5.0702,5.1511,5.2058,5.22,5.3127,5.41,5.5031,5.5214,5.5664,5.6484,5.6562,5.6992,5.7793,5.7871,5.8711,6.0312,6.0371,6.0859,6.1699,6.1699,6.1699,6.1699,6.1699,6.1699,6.1699,6.1699,6.1699,6.1699,6.1699,6.1699,6.1699,6.1699,6.1699,6.1699,4.7216,4.747,4.7741,4.8048,4.8548,4.8913,4.8914,4.9356,4.9836,5.0164,5.0221,5.024,5.0317,5.0548,5.0587,5.0356,5.0548,5.0702,5.0702,5.0702,5.0702,5.0702,5.0125,4.969,4.9337,4.8843,4.8605,4.8594,4.8209,4.8033,4.8026,4.8026,4.8098,4.8213,4.8484,4.8678,4.8825,4.9529,4.9838,4.9877,5.047,5.0702,5.0702,5.0702,5.0702,5.0702,5.0702,5.0702,5.0702,5.0702,5.0702,5.0702,5.0702,5.0702,5.0702,5.0702,5.0702,5.0702,5.0702,5.0702,5.0702,5.0702,5.0702,5.0702,5.0702,5.0702,5.0702,5.0702,5.0702,5.0702,5.0702,5.0702,5.0702,5.0702,0.0,5.0702,5.0702,5.1125,5.1433,5.1433,5.1914,5.2241,5.2241,5.2646,5.2931,5.2984,5.3993,5.4772,5.5156,5.5762,5.6504,5.7383,5.7402,5.7578,5.789,5.8926,5.9765,6.041,6.0957,6.1387,6.1699,6.1699,6.1699,6.1699,6.1699,6.1699,6.1699,6.1699,6.1699,6.1699,6.1699,6.1699,6.1699,6.1699,6.1699,6.1699,4.7663,4.7952,4.8222,4.8491,4.9029,4.9433,4.9433,4.9933,5.0375,5.0491,5.051,5.0452,5.0298,5.0539,5.0603,5.0297,5.0529,5.0636,5.0514,5.0374,5.0363,5.051,5.026,5.0029,4.9913,4.9356,4.9097,4.9081,4.8815,4.8659,4.8691,4.8691,4.881,4.9071,4.9102,4.9234,4.9504,4.98,4.9911,4.9929,5.021,5.0399,5.0504,5.0504,5.0604,5.0702,5.0702,5.0702,5.0702,5.0702,5.0702,5.0702,5.0702,5.0702,5.0741,5.0991,5.1087,5.1144,5.1414,5.1491,5.1414,5.1144,5.1279,5.1491,5.1491,5.1491,5.1491,5.1491,5.1491,5.1491,5.1491,5.1491,5.1491,5.1491,5.1491,5.1491,5.1491,5.1972,5.2318,5.2318,5.2837,5.3203,5.3203,5.3569,5.3803,5.3804,5.482,5.5465,5.5508,5.6426,5.7246,5.7871,5.8418,5.8691,5.8691,5.9824,6.0547,6.082,6.1406,6.1699,6.1699,6.1699,6.1699,6.1699,6.1699,6.1699,6.1699,6.1699,6.1699,6.1699,6.1699,6.1699,6.1699,6.1699,6.1699,6.1699,4.8048,4.8221,4.8471,4.9356,4.9509,4.9509,4.9509,4.9509,4.9644,5.0048,5.0106,5.026,5.0644,5.0685,5.0665,5.0699,5.0683,5.052,5.0101,4.9744,4.9675,5.0086,5.0086,4.9913,4.9509,4.9509,4.9499,4.9487,4.9469,4.9468,4.9475,4.9475,4.9475,4.9493,4.9496,4.949,4.9475,4.9475,4.9485,4.9511,4.9495,4.9746,5.0092,5.0092,5.0358,5.0702,5.0702,5.0702,5.0702,5.0702,5.0702,5.0702,5.0702,5.0702,5.0856,5.1683,5.1914,5.2106,5.2972,5.3203,5.301,5.2145,5.2568,5.3203,5.3203,5.3203,5.3203,5.3203,5.3203,5.3203,5.3203,5.3203,5.3203,5.3203,5.3203,5.3203,5.3203,5.3222,5.3222,5.3222,5.3222,5.3222,5.3222,5.4127,5.4705,5.4705,5.5628,5.6257,5.6405,5.7226,5.7773,5.791,5.9531,6.039,6.041,6.041,6.084,6.1699,6.1699,6.1699,6.1699,6.1699,6.1699,6.1699,6.1699,6.1699,6.1699,6.1699,6.1699,6.1699,6.1699,6.1699,6.1699,6.1699,6.1699,6.1699,4.8637,4.8928,4.92,4.9439,4.973,4.9917,4.9917,5.0174,5.038,5.0525,5.0266,5.0029,4.9875,4.9847,4.9739,4.9451,4.9701,4.9816,4.9691,4.9557,4.9415,4.9286,4.9529,4.9604,4.9492,4.9197,4.9092,4.9081,4.8785,4.8679,4.8676,4.8676,4.8676,4.8676,4.866,4.8642,4.8694,4.897,4.9061,4.9142,4.9702,5.0,5.0135,5.0421,5.0604,5.0702,5.0702,5.0702,5.0702,5.0702,5.0702,5.0798,5.1356,5.1548,5.1722,5.2568,5.2818,5.2876,5.3126,5.3645,5.3895,5.3029,5.301,5.3203,5.3203,5.3203,5.3203,5.3203,5.3203,5.3203,5.3203,5.3203,5.3203,5.3203,5.3203,5.3203,5.3203,5.3722,5.4107,5.4107,5.4607,5.4953,5.4953,5.5222,5.5395,5.5395,5.5782,5.6309,5.706,5.7479,5.8262,5.9473,6.0098,6.0683,6.1308,6.1308,6.1445,6.1699,6.1699,6.1699,6.1699,6.1699,6.1699,6.1699,6.1699,6.1699,6.1699,6.1699,6.1699,6.1699,6.1699,6.1699,6.1699,6.1699,6.1699,6.1699,4.864,4.8859,4.903,4.9048,4.9248,4.9399,4.9396,4.9596,4.9802,4.9953,4.9787,4.9597,4.9497,4.95,4.9405,4.9151,4.9201,4.9342,4.9473,4.9195,4.8916,4.8656,4.8915,4.9026,4.9026,4.8785,4.8656,4.8656,4.8416,4.8306,4.8306,4.8306,4.8306,4.8306,4.8306,4.8306,4.8324,4.8583,4.8748,4.8936,4.9434,4.983,5.0144,5.0377,5.0565,5.0702,5.0702,5.0702,5.0741,5.1068,5.1395,5.176,5.226,5.2414,5.2587,5.3453,5.3703,5.378,5.4107,5.4568,5.4857,5.4318,5.4184,5.4184,5.4184,5.4184,5.4184,5.4184,5.4184,5.4184,5.4184,5.4184,5.4184,5.4184,5.4184,5.4184,5.4184,5.4645,5.4972,5.4972,5.5395,5.5703,5.5703,5.5703,5.5703,5.5703,5.6088,5.6626,5.7277,5.809,5.9033,6.0156,6.0605,6.1113,6.1699,6.1699,6.1699,6.1699,6.1699,6.1699,6.1699,6.1699,6.1699,6.1699,6.1699,6.1699,6.1699,6.1699,6.1699,6.1699,6.1699,6.1699,6.1699,6.1699,6.1699,6.1699,4.8306,4.8306,4.8306,4.8306,4.8324,4.8354,4.8346,4.8388,4.8541,4.8905,4.8905,4.9043,4.9418,4.9395,4.9395,4.9395,4.9062,4.9012,4.9365,4.8698,4.8306,4.8306,4.8306,4.8306,4.8306,4.8306,4.8306,4.8306,4.8306,4.8306,4.8306,4.8306,4.8306,4.8306,4.8306,4.8306,4.8306,4.8306,4.8489,4.8843,4.8878,4.934,5.0005,5.0038,5.0313,5.0663,5.074,5.0779,5.0933,5.1741,5.2549,5.3222,5.3299,5.3318,5.3491,5.4357,5.4607,5.4761,5.5491,5.5703,5.5703,5.5703,5.5703,5.5703,5.5703,5.5703,5.5703,5.5703,5.5703,5.5703,5.5703,5.5703,5.5703,5.5703,5.5703,5.5703,5.5703,5.5703,5.5703,5.5703,5.5703,5.5703,5.5703,5.5703,5.5722,5.5799,5.6549,5.7107,5.7396,5.8938,5.9944,6.0262,6.1073,6.1562,6.168,6.1699,6.1699,6.1699,6.1699,6.1699,6.1699,6.1695,6.1695,6.1699,6.1678,6.1676,6.1672,6.1679,6.168,6.168,6.1699,6.1699,6.1699,6.1699,6.1699,6.1699,4.8306,4.8306,4.8306,4.8306,4.8583,4.8771,4.8763,4.9052,4.9291,4.9365,4.9089,4.8915,4.9009,4.8748,4.8583,4.8583,4.8471,4.8493,4.8531,4.8419,4.8306,4.8306,4.8306,4.8306,4.8306,4.8306,4.8306,4.8306,4.8306,4.8306,4.8306,4.8306,4.8306,4.8306,4.8306,4.8306,4.8306,4.8306,4.8343,4.8456,4.8776,4.8987,4.9183,4.9514,4.9898,5.0302,5.0937,5.136,5.1779,5.2626,5.3049,5.3318,5.3991,5.4222,5.4376,5.5203,5.5434,5.5472,5.5645,5.5703,5.5703,5.5703,5.5703,5.5703,5.5703,5.5703,5.5703,5.5703,5.5703,5.5703,5.5703,5.5703,5.5703,5.5703,5.5703,5.5703,5.5703,5.5703,5.5703,5.5703,5.5703,5.5703,5.5703,5.5703,5.5972,5.6665,5.6876,5.7588,5.8934,5.9515,6.0126,6.0808,6.1257,6.1504,6.1543,6.164,6.1699,6.1699,6.1699,6.1699,6.1699,6.1583,6.1612,6.1699,6.1491,6.1447,6.1537,6.154,6.1543,6.1543,6.166,6.1699,6.1699,6.1699,6.1699,6.1699,4.8306,4.8306,4.8306,4.8306,4.8453,4.862,4.862,4.8785,4.8934,4.8934,4.873,4.862,4.862,4.8416,4.8306,4.8306,4.8306,4.8306,4.8306,4.8306,4.8306,4.8306,4.8306,4.8306,4.8306,4.8306,4.8306,4.8306,4.8306,4.8306,4.8306,4.8306,4.8306,4.8306,4.8306,4.8306,4.8306,4.8306,4.8398,4.8603,4.8818,4.9235,4.9759,4.9995,5.0459,5.1017,5.1444,5.2106,5.2912,5.3603,5.4087,5.4472,5.4934,5.5068,5.5164,5.5568,5.5703,5.5703,5.5703,5.5703,5.5703,5.5703,5.5703,5.5703,5.5703,5.5703,5.5703,5.5703,5.5703,5.5703,5.5703,5.5703,5.5703,5.5703,5.5703,5.5703,5.5703,5.5703,5.5703,5.5703,5.5703,5.5857,5.628,5.6319,5.6684,5.755,5.7973,5.8569,5.9454,5.9973,6.0516,6.0973,6.1171,6.1315,6.1392,6.147,6.1509,6.1509,6.1635,6.1699,6.1699,6.1634,6.16,6.1593,6.1462,6.1428,6.1505,6.1444,6.1485,6.1601,6.1601,6.164,6.1699,6.1699,6.1699,6.1699,4.8306,4.8306,4.8306,4.8306,4.8306,4.8306,4.8306,4.8306,4.8306,4.8306,4.8306,4.8306,4.8306,4.8306,4.8306,4.8306,4.8306,4.8306,4.8306,4.8433,4.8506,4.8526,4.8655,4.8728,4.8728,4.8728,4.8581,4.8306,4.8306,4.8306,4.8306,4.8306,4.8306,4.8306,4.8306,4.8453,4.8712,4.8638,4.8822,4.9229,4.9229,4.9802,5.073,5.0731,5.1153,5.1843,5.202,5.2995,5.4186,5.4559,5.5145,5.5703,5.5703,5.5703,5.5703,5.5703,5.5703,5.5703,5.5703,5.5703,5.5703,5.5703,5.5703,5.5703,5.5703,5.5703,5.5703,5.5703,5.5703,5.5703,5.5703,5.5703,5.5703,5.5703,5.5703,5.5703,5.5703,5.5703,5.5703,5.5703,5.5818,5.6261,5.7126,5.7223,5.7569,5.8434,5.9127,5.9569,5.9704,6.0416,6.0839,6.0954,6.0973,6.1079,6.1258,6.1278,6.1297,6.1297,6.1537,6.1623,6.1633,6.16,6.1539,6.1458,6.1408,6.1401,6.1401,6.1296,6.1376,6.1577,6.1521,6.1562,6.168,6.1699,6.1699,6.1699,4.8306,4.8306,4.8306,4.8306,4.8306,4.8306,4.8306,4.8306,4.8306,4.8306,4.8306,4.8306,4.8306,4.8306,4.8306,4.8306,4.8306,4.8306,4.8306,4.9017,4.942,4.9407,5.0086,5.0472,5.0472,5.0457,4.974,4.8306,4.8306,4.8306,4.8306,4.8306,4.8306,4.8306,4.8306,4.9099,5.0431,4.9987,5.0061,5.0523,5.0523,5.0654,5.0783,5.08,5.1019,5.1538,5.2638,5.4082,5.5448,5.553,5.5607,5.5703,5.5703,5.5703,5.5703,5.5703,5.5703,5.5703,5.5703,5.5703,5.5703,5.5703,5.5703,5.5703,5.5703,5.5703,5.5703,5.5703,5.5703,5.5703,5.5703,5.5703,5.5703,5.5703,5.5703,5.5703,5.5703,5.5703,5.5703,5.5703,5.6357,5.7165,5.805,5.8127,5.8454,5.9281,5.9435,5.9838,6.0569,6.0742,6.08,6.0819,6.0935,6.1,6.1051,6.1205,6.1302,6.1302,6.1348,6.1339,6.1353,6.1169,6.1191,6.1317,6.102,6.0954,6.1077,6.1059,6.1058,6.1118,6.1398,6.1504,6.1543,6.166,6.1699,6.1699,4.8306,4.8306,4.8306,4.8306,4.8306,4.8306,4.8306,4.8689,4.904,4.9044,4.9413,4.9691,4.9691,4.9691,4.9599,4.9285,4.9505,4.9802,5.0116,5.0204,5.0291,5.0255,5.0633,5.0652,5.035,5.0655,5.0438,4.9685,4.9389,4.9871,5.1001,4.9166,4.8297,4.83,4.83,4.9242,5.0796,5.0879,5.0845,5.082,5.0787,5.1077,5.1485,5.1477,5.1844,5.2522,5.3535,5.456,5.5402,5.5618,5.5703,5.5703,5.5703,5.5703,5.5703,5.5703,5.5703,5.5703,5.5703,5.5703,5.5703,5.5703,5.5703,5.5703,5.5703,5.5703,5.5703,5.5703,5.5703,5.5703,5.5703,5.5703,5.5703,5.5703,5.6107,5.6415,5.6415,5.6838,5.7146,5.7146,5.7492,5.805,5.8896,5.8973,5.9319,6.0165,6.0223,6.0396,6.0781,6.08,6.08,6.08,6.0858,6.0877,6.0877,6.0973,6.1012,6.1012,6.1012,6.113,6.1291,6.1205,6.115,6.1117,6.0971,6.0935,6.0997,6.0922,6.0995,6.1177,6.133,6.1483,6.1621,6.168,6.1699,6.1699]},{"header":{"parameterUnit":"m.s-1","parameterCategory":1,"la1":30.6,"la2":28.766,"lo1":-90.7593,"lo2":-88.6598,"dy":0.0162,"dx":0.0183,"nx":116,"ny":114,"refTime":"2024-02-08T18:00:00:Z","depth":0,"parameterNumber":3,"parameterNumberName":"V-component_of_WINDS"},"data":[0.0,0.0,0.0,0.0,0.0,0.0,0.0,0.0,0.0,0.0,0.0,0.0,0.0,0.0,0.0,0.0,0.0,0.0,0.0,0.0,0.0,0.0,0.0,0.0,0.0,0.0,0.0,0.0,0.0,0.0,0.0,0.0,0.0,0.0,0.0,0.0,0.0,0.0,0.0,0.0,0.0,0.0,0.0,0.0,0.0,0.0,0.0,0.0,0.0,0.0,0.0,0.0,0.0,0.0,0.0,0.0,0.0,0.0,0.0,0.0,0.0,0.0,0.0,0.0,0.0,0.0,0.0,0.0,0.0,0.0,0.0,0.0,0.0,0.0,0.0,0.0,0.0,0.0,0.0,0.0,0.0,0.0,0.0,0.0,0.0,0.0,0.0,0.0,0.0,0.0,0.0,0.0,0.0,0.0,0.0,0.0,0.0,0.0,0.0,0.0,0.0,0.0,0.0,0.0,0.0,0.0,0.0,0.0,0.0,0.0,0.0,0.0,0.0,0.0,0.0,0.0,0.0,0.0,0.0,0.0,0.0,0.0,0.0,0.0,0.0,0.0,0.0,0.0,0.0,0.0,0.0,0.0,0.0,0.0,0.0,0.0,0.0,0.0,0.0,0.0,0.0,0.0,0.0,0.0,0.0,0.0,0.0,0.0,0.0,0.0,0.0,0.0,0.0,0.0,0.0,0.0,0.0,0.0,0.0,0.0,0.0,0.0,0.0,0.0,0.0,0.0,0.0,0.0,0.0,0.0,0.0,0.0,0.0,0.0,0.0,0.0,0.0,0.0,0.0,0.0,0.0,0.0,0.0,0.0,0.0,0.0,0.0,0.0,0.0,0.0,0.0,0.0,0.0,0.0,0.0,0.0,0.0,0.0,0.0,0.0,0.0,0.0,0.0,0.0,0.0,0.0,0.0,0.0,0.0,0.0,0.0,0.0,0.0,0.0,0.0,0.0,0.0,0.0,0.0,0.0,0.0,0.0,0.0,0.0,0.0,0.0,0.0,0.0,0.0,0.0,0.0,0.0,0.0,0.0,0.0,0.0,0.0,0.0,0.0,0.0,0.0,0.0,0.0,0.0,0.0,0.0,0.0,0.0,0.0,0.0,0.0,0.0,0.0,0.0,0.0,0.0,0.0,0.0,0.0,0.0,0.0,0.0,0.0,0.0,0.0,0.0,0.0,0.0,0.0,0.0,0.0,0.0,0.0,0.0,0.0,0.0,0.0,0.0,0.0,0.0,0.0,0.0,0.0,0.0,0.0,0.0,0.0,0.0,0.0,0.0,0.0,0.0,0.0,0.0,0.0,0.0,0.0,0.0,0.0,0.0,0.0,0.0,0.0,0.0,0.0,0.0,0.0,0.0,0.0,0.0,0.0,0.0,0.0,0.0,0.0,0.0,0.0,0.0,0.0,0.0,0.0,0.0,0.0,0.0,0.0,0.0,0.0,0.0,0.0,0.0,0.0,0.0,0.0,0.0,0.0,0.0,0.0,0.0,0.0,0.0,0.0,0.0,0.0,0.0,0.0,0.0,0.0,0.0,0.0,0.0,0.0,0.0,0.0,0.0,0.0,0.0,0.0,0.0,0.0,0.0,0.0,0.0,0.0,0.0,0.0,0.0,0.0,0.0,0.0,0.0,0.0,0.0,0.0,0.0,0.0,0.0,0.0,0.0,0.0,0.0,0.0,0.0,0.0,0.0,0.0,0.0,0.0,0.0,0.0,0.0,0.0,0.0,0.0,0.0,0.0,0.0,0.0,0.0,0.0,0.0,0.0,0.0,0.0,0.0,0.0,0.0,0.0,0.0,0.0,0.0,0.0,0.0,0.0,0.0,0.0,0.0,0.0,0.0,0.0,0.0,0.0,0.0,0.0,0.0,0.0,0.0,0.0,0.0,0.0,0.0,0.0,0.0,0.0,0.0,0.0,0.0,0.0,0.0,0.0,0.0,0.0,0.0,0.0,0.0,0.0,0.0,0.0,0.0,0.0,0.0,0.0,0.0,0.0,0.0,0.0,0.0,0.0,0.0,0.0,0.0,0.0,0.0,0.0,0.0,0.0,0.0,0.0,0.0,0.0,0.0,0.0,0.0,0.0,0.0,0.0,0.0,0.0,0.0,0.0,0.0,0.0,0.0,0.0,0.0,0.0,0.0,0.0,0.0,0.0,0.0,0.0,0.0,0.0,0.0,0.0,0.0,0.0,0.0,0.0,0.0,0.0,0.0,0.0,0.0,0.0,0.0,0.0,0.0,0.0,0.0,0.0,0.0,0.0,0.0,0.0,0.0,0.0,0.0,0.0,0.0,0.0,0.0,0.0,0.0,0.0,0.0,0.0,0.0,0.0,0.0,0.0,0.0,0.0,0.0,0.0,0.0,0.0,0.0,0.0,0.0,0.0,0.0,0.0,0.0,0.0,0.0,0.0,0.0,0.0,0.0,0.0,0.0,0.0,0.0,0.0,0.0,0.0,0.0,0.0,0.0,0.0,0.0,0.0,0.0,0.0,0.0,0.0,0.0,0.0,0.0,0.0,0.0,0.0,0.0,0.0,0.0,0.0,0.0,0.0,0.0,0.0,0.0,0.0,0.0,0.0,0.0,0.0,0.0,0.0,0.0,0.0,0.0,0.0,0.0,0.0,0.0,0.0,0.0,0.0,0.0,0.0,0.0,0.0,0.0,0.0,0.0,0.0,0.0,0.0,0.0,0.0,0.0,0.0,0.0,0.0,0.0,0.0,0.0,0.0,0.0,0.0,0.0,0.0,0.0,0.0,0.0,0.0,0.0,0.0,0.0,0.0,0.0,0.0,0.0,0.0,0.0,0.0,0.0,0.0,0.0,0.0,0.0,0.0,0.0,0.0,0.0,0.0,0.0,0.0,0.0,0.0,0.0,0.0,0.0,0.0,0.0,0.0,0.0,0.0,0.0,0.0,0.0,0.0,0.0,0.0,0.0,0.0,0.0,0.0,0.0,0.0,0.0,0.0,0.0,0.0,0.0,0.0,0.0,0.0,0.0,0.0,0.0,0.0,0.0,0.0,0.0,0.0,0.0,0.0,0.0,0.0,0.0,0.0,0.0,0.0,0.0,0.0,0.0,0.0,0.0,0.0,0.0,0.0,0.0,0.0,0.0,0.0,0.0,0.0,0.0,0.0,0.0,0.0,0.0,0.0,0.0,0.0,0.0,0.0,0.0,0.0,0.0,0.0,0.0,0.0,0.0,0.0,0.0,0.0,0.0,0.0,0.0,0.0,0.0,0.0,0.0,0.0,0.0,0.0,0.0,0.0,0.0,0.0,0.0,0.0,0.0,0.0,0.0,0.0,0.0,0.0,0.0,0.0,0.0,0.0,0.0,0.0,0.0,0.0,0.0,0.0,0.0,0.0,0.0,0.0,0.0,0.0,0.0,0.0,0.0,0.0,0.0,0.0,0.0,0.0,0.0,0.0,0.0,0.0,0.0,0.0,0.0,0.0,0.0,0.0,0.0,0.0,0.0,0.0,0.0,0.0,0.0,0.0,0.0,0.0,0.0,0.0,0.0,0.0,0.0,0.0,0.0,0.0,0.0,0.0,0.0,0.0,0.0,0.0,0.0,0.0,0.0,0.0,0.0,0.0,0.0,0.0,0.0,0.0,0.0,0.0,0.0,0.0,0.0,0.0,0.0,0.0,0.0,0.0,0.0,0.0,0.0,0.0,0.0,0.0,0.0,0.0,0.0,0.0,0.0,0.0,0.0,0.0,0.0,0.0,0.0,0.0,0.0,0.0,0.0,0.0,0.0,0.0,0.0,0.0,0.0,0.0,0.0,0.0,0.0,0.0,0.0,0.0,0.0,0.0,0.0,0.0,0.0,0.0,0.0,0.0,0.0,0.0,0.0,0.0,0.0,0.0,0.0,0.0,0.0,0.0,0.0,0.0,0.0,0.0,0.0,0.0,0.0,0.0,0.0,0.0,0.0,0.0,0.0,0.0,0.0,0.0,0.0,0.0,0.0,0.0,0.0,0.0,0.0,0.0,0.0,0.0,0.0,0.0,0.0,0.0,0.0,0.0,0.0,0.0,0.0,0.0,0.0,0.0,0.0,0.0,0.0,0.0,0.0,0.0,0.0,0.0,0.0,0.0,0.0,0.0,0.0,0.0,0.0,0.0,0.0,0.0,0.0,0.0,0.0,0.0,0.0,0.0,0.0,0.0,0.0,0.0,0.0,0.0,0.0,0.0,0.0,0.0,0.0,0.0,0.0,0.0,0.0,0.0,0.0,0.0,0.0,0.0,0.0,0.0,0.0,0.0,0.0,0.0,0.0,0.0,0.0,0.0,0.0,0.0,0.0,0.0,0.0,0.0,0.0,0.0,0.0,0.0,0.0,0.0,0.0,0.0,0.0,0.0,0.0,0.0,0.0,0.0,0.0,0.0,0.0,0.0,0.0,0.0,0.0,0.0,0.0,0.0,0.0,0.0,0.0,0.0,0.0,0.0,0.0,0.0,0.0,0.0,0.0,0.0,0.0,0.0,0.0,0.0,0.0,0.0,0.0,0.0,0.0,0.0,0.0,0.0,0.0,0.0,0.0,0.0,0.0,0.0,0.0,0.0,0.0,0.0,0.0,0.0,0.0,0.0,0.0,0.0,0.0,0.0,0.0,0.0,0.0,0.0,0.0,0.0,0.0,0.0,0.0,0.0,0.0,0.0,0.0,0.0,0.0,0.0,0.0,0.0,0.0,0.0,0.0,0.0,0.0,0.0,0.0,0.0,0.0,0.0,0.0,0.0,0.0,0.0,0.0,0.0,0.0,0.0,0.0,0.0,0.0,0.0,0.0,0.0,0.0,0.0,0.0,0.0,0.0,0.0,0.0,0.0,0.0,0.0,0.0,0.0,0.0,0.0,0.0,0.0,0.0,0.0,0.0,0.0,0.0,0.0,0.0,0.0,0.0,0.0,0.0,0.0,0.0,0.0,0.0,0.0,0.0,0.0,0.0,0.0,0.0,0.0,0.0,0.0,0.0,0.0,0.0,0.0,0.0,0.0,0.0,0.0,0.0,0.0,0.0,0.0,0.0,0.0,0.0,0.0,0.0,0.0,0.0,0.0,0.0,0.0,0.0,0.0,0.0,0.0,0.0,0.0,0.0,0.0,0.0,0.0,0.0,0.0,0.0,0.0,0.0,0.0,0.0,0.0,0.0,0.0,0.0,0.0,0.0,0.0,0.0,0.0,0.0,0.0,0.0,0.0,0.0,0.0,0.0,0.0,0.0,0.0,0.0,0.0,0.0,0.0,0.0,0.0,0.0,0.0,0.0,0.0,0.0,0.0,0.0,0.0,0.0,0.0,0.0,0.0,0.0,0.0,0.0,0.0,0.0,0.0,0.0,0.0,0.0,0.0,0.0,0.0,0.0,0.0,0.0,0.0,0.0,0.0,0.0,0.0,0.0,0.0,0.0,0.0,0.0,0.0,0.0,0.0,0.0,0.0,0.0,0.0,0.0,0.0,0.0,0.0,0.0,0.0,0.0,0.0,0.0,0.0,0.0,0.0,0.0,0.0,0.0,0.0,0.0,0.0,0.0,0.0,0.0,0.0,0.0,0.0,0.0,0.0,0.0,0.0,0.0,0.0,0.0,0.0,0.0,0.0,0.0,0.0,0.0,0.0,0.0,0.0,0.0,0.0,0.0,0.0,0.0,0.0,0.0,0.0,0.0,0.0,0.0,0.0,0.0,0.0,0.0,0.0,0.0,0.0,0.0,0.0,0.0,0.0,0.0,0.0,0.0,0.0,0.0,0.0,0.0,0.0,0.0,0.0,0.0,0.0,0.0,0.0,0.0,0.0,0.0,0.0,0.0,0.0,0.0,0.0,0.0,0.0,0.0,0.0,0.0,0.0,0.0,0.0,0.0,0.0,0.0,0.0,0.0,0.0,0.0,0.0,0.0,0.0,0.0,0.0,0.0,0.0,0.0,0.0,0.0,0.0,0.0,0.0,0.0,0.0,0.0,0.0,0.0,0.0,0.0,0.0,0.0,0.0,0.0,0.0,0.0,0.0,0.0,0.0,0.0,0.0,0.0,0.0,0.0,0.0,0.0,0.0,0.0,0.0,0.0,0.0,0.0,0.0,0.0,0.0,0.0,-1.4955,0.0,0.0,0.0,0.0,0.0,0.0,0.0,0.0,0.0,0.0,0.0,0.0,0.0,0.0,0.0,0.0,0.0,0.0,0.0,0.0,0.0,0.0,0.0,0.0,0.0,0.0,0.0,0.0,0.0,0.0,0.0,0.0,0.0,0.0,0.0,0.0,0.0,-1.0994,-1.0442,-1.0579,-1.0224,-0.9411,0.0,0.0,0.0,0.0,0.0,0.0,0.0,0.0,0.0,0.0,0.0,0.0,0.0,0.0,0.0,0.0,0.0,0.0,0.0,0.0,0.0,0.0,0.0,0.0,0.0,0.0,0.0,0.0,0.0,0.0,0.0,0.0,0.0,0.0,0.0,0.0,0.0,0.0,0.0,0.0,0.0,0.0,0.0,0.0,0.0,0.0,0.0,0.0,0.0,0.0,0.0,0.0,0.0,0.0,0.0,0.0,0.0,0.0,0.0,0.0,0.0,0.0,0.0,0.0,0.0,0.0,0.0,0.0,0.0,0.0,0.0,0.0,0.0,0.0,-1.4111,0.0,0.0,0.0,0.0,0.0,0.0,0.0,0.0,0.0,0.0,0.0,0.0,0.0,0.0,0.0,0.0,0.0,0.0,0.0,0.0,0.0,0.0,0.0,-1.0624,-1.0863,-1.1531,-1.1586,-1.1608,0.0,0.0,0.0,0.0,0.0,-1.1182,-1.1423,-1.1263,-1.0792,-1.0014,-0.971,-0.9257,-0.8636,0.0,0.0,0.0,0.0,0.0,0.0,0.0,0.0,0.0,0.0,0.0,0.0,0.0,0.0,0.0,0.0,0.0,0.0,0.0,0.0,0.0,0.0,0.0,0.0,0.0,0.0,0.0,0.0,0.0,0.0,0.0,0.0,0.0,0.0,0.0,0.0,0.0,0.0,0.0,0.0,0.0,0.0,0.0,0.0,0.0,0.0,0.0,0.0,0.0,0.0,0.0,0.0,0.0,0.0,0.0,0.0,0.0,0.0,0.0,0.0,0.0,0.0,0.0,0.0,0.0,0.0,0.0,-1.4122,-1.4088,-1.4088,-1.4088,-1.4088,-1.4088,-1.4088,-1.4092,-1.4124,0.0,0.0,0.0,0.0,0.0,0.0,0.0,0.0,0.0,0.0,0.0,0.0,0.0,0.0,0.0,0.0,0.0,0.0,0.0,0.0,0.0,0.0,-1.0624,-1.0624,-1.0744,-1.0744,-1.0853,-1.1111,0.0,0.0,-1.1356,-1.1369,-1.1383,-1.1423,-1.0814,-1.0498,-1.0354,-0.8812,-0.8023,-0.7893,-0.7893,-0.7956,-0.8156,0.0,0.0,0.0,0.0,0.0,0.0,0.0,0.0,0.0,0.0,0.0,0.0,0.0,0.0,0.0,0.0,0.0,0.0,0.0,0.0,0.0,0.0,0.0,0.0,0.0,0.0,0.0,0.0,0.0,0.0,0.0,0.0,0.0,0.0,0.0,0.0,0.0,0.0,0.0,0.0,0.0,0.0,0.0,0.0,-0.7802,-0.9808,0.0,0.0,0.0,0.0,0.0,0.0,0.0,0.0,0.0,0.0,0.0,0.0,0.0,0.0,-1.0585,-1.0937,-1.2099,-1.4102,-1.4095,-1.4088,-1.4088,-1.4088,-1.4088,-1.4088,-1.4088,0.0,-1.4139,-1.4139,0.0,0.0,0.0,0.0,0.0,0.0,0.0,0.0,0.0,0.0,0.0,0.0,0.0,0.0,0.0,0.0,0.0,0.0,0.0,0.0,0.0,-1.0174,-0.9849,-0.9849,-0.9462,-0.9526,-1.0249,-1.0325,-1.0735,-1.1663,-1.1166,-1.0883,-1.1031,-1.02,-0.9516,-0.8921,-0.7588,-0.6945,-0.6945,-0.6945,-0.6945,-0.6945,-0.7403,-0.8237,-0.9296,-0.9744,0.0,0.0,0.0,0.0,0.0,0.0,0.0,0.0,0.0,0.0,0.0,0.0,0.0,0.0,0.0,0.0,0.0,0.0,0.0,0.0,0.0,0.0,0.0,0.0,0.0,0.0,0.0,0.0,0.0,0.0,0.0,0.0,0.0,0.0,0.0,0.0,0.0,0.0,0.0,-0.9745,-0.9652,-1.0682,-1.17,-1.2586,0.0,0.0,0.0,0.0,0.0,0.0,0.0,0.0,0.0,-0.9662,-0.9256,-0.9238,-0.9616,-1.0898,-1.1775,-1.2169,-1.2772,-1.2966,-1.2826,-1.296,-1.3021,-1.2838,-1.373,-1.4088,-1.4088,-1.4088,-1.4088,-1.4088,0.0,0.0,0.0,0.0,-1.4102,-1.4124,0.0,0.0,0.0,0.0,0.0,0.0,0.0,0.0,0.0,0.0,0.0,0.0,-1.0301,-0.946,-0.8969,-0.9037,-0.8538,-0.855,-0.9417,-0.9592,-1.0089,-1.1159,-1.0507,-1.0228,-1.0409,-0.9442,-0.8389,-0.7403,-0.668,-0.6315,-0.6315,-0.6356,-0.6373,-0.6373,-0.6373,-0.718,-0.8542,-0.8927,-0.9367,0.0,0.0,0.0,0.0,0.0,0.0,0.0,0.0,0.0,0.0,0.0,0.0,0.0,0.0,0.0,0.0,0.0,0.0,0.0,0.0,0.0,0.0,0.0,0.0,0.0,0.0,0.0,0.0,0.0,0.0,0.0,0.0,0.0,0.0,0.0,0.0,0.0,0.0,-1.085,-1.0757,-1.1266,-1.1072,-1.1342,0.0,0.0,0.0,0.0,0.0,0.0,-0.9356,-0.9356,-0.9109,-0.8452,-0.9226,-0.9488,-0.889,-1.0611,-1.1123,-1.0611,-1.1724,-1.218,-1.1969,-1.2528,-1.2492,-1.1952,-1.3112,-1.347,-1.3215,-1.3822,-1.4088,-1.4088,-1.4088,-1.4088,-1.4088,-1.4088,-1.4088,-1.4088,0.0,0.0,0.0,0.0,0.0,0.0,0.0,0.0,0.0,0.0,0.0,-0.9338,-0.9338,-0.8613,-0.8113,-0.8265,-0.8228,-0.8403,-0.8809,-0.8844,-0.9028,-0.9422,-0.9357,-0.9362,-0.9372,-0.8389,-0.7403,-0.6338,-0.6476,-0.6461,-0.6464,-0.661,-0.6678,-0.6678,-0.6678,-0.6603,-0.6567,-0.7804,-0.834,-0.8646,0.0,0.0,0.0,0.0,0.0,0.0,0.0,0.0,0.0,0.0,0.0,0.0,0.0,0.0,0.0,0.0,0.0,0.0,0.0,0.0,0.0,0.0,0.0,0.0,0.0,0.0,0.0,0.0,0.0,0.0,0.0,0.0,0.0,0.0,0.0,0.0,0.0,0.0,0.0,-1.034,-0.96,0.0,0.0,0.0,0.0,-1.0692,-1.0611,-1.0091,-0.8973,-0.8973,-0.8364,-0.7228,-0.7228,-0.7841,-0.889,-0.8978,-0.9579,-1.0611,-1.1724,-1.2328,-1.2334,-1.347,-1.3379,-1.2237,-1.2328,-1.1815,-1.0956,-1.3215,-1.4088,-1.4088,-1.4088,-1.4088,-1.4088,-1.4088,-1.4088,-1.4088,0.0,0.0,0.0,0.0,0.0,0.0,0.0,0.0,-1.0624,-1.0624,-0.9849,-0.9274,-0.9274,-0.8093,-0.7333,-0.7342,-0.702,-0.7138,-0.7919,-0.8049,-0.8534,-0.9291,-0.8694,-0.8064,-0.7481,-0.7175,-0.6839,-0.6542,-0.6597,-0.662,-0.662,-0.6675,-0.6702,-0.6702,-0.6702,-0.6641,-0.6542,-0.7027,-0.7167,-0.7129,-0.8083,-0.9979,0.0,0.0,0.0,0.0,0.0,0.0,0.0,0.0,0.0,0.0,0.0,0.0,0.0,0.0,0.0,0.0,0.0,0.0,0.0,0.0,0.0,0.0,0.0,0.0,0.0,0.0,0.0,0.0,0.0,0.0,0.0,0.0,0.0,0.0,0.0,0.0,0.0,-1.0404,-0.9534,0.0,0.0,-0.9923,-0.9492,-0.9492,-0.8794,-0.8185,-0.7753,-0.7753,-0.7577,-0.7139,-0.7841,-0.8452,-0.889,-0.9666,-0.9836,-0.9492,-0.9923,-0.9744,-0.896,-1.0183,-1.0529,-1.0183,-1.0869,-1.1381,-1.1724,-1.2595,-1.2942,-1.3027,-1.3822,-1.4088,-1.4088,-1.4088,-1.4088,-1.4088,0.0,0.0,0.0,0.0,0.0,0.0,0.0,0.0,-1.0491,-1.0174,-0.9396,-0.8781,-0.8532,-0.727,-0.6513,-0.6557,-0.6204,-0.6346,-0.7068,-0.7183,-0.7557,-0.8237,-0.7687,-0.7074,-0.6548,-0.6522,-0.66,-0.6702,-0.6753,-0.6776,-0.678,-0.6834,-0.6861,-0.6861,-0.6865,-0.678,-0.678,-0.6776,-0.6609,-0.6315,-0.647,-0.8143,-1.0524,0.0,0.0,0.0,0.0,0.0,0.0,0.0,0.0,0.0,0.0,0.0,0.0,0.0,0.0,0.0,0.0,0.0,0.0,0.0,0.0,0.0,0.0,0.0,0.0,0.0,0.0,0.0,0.0,0.0,0.0,0.0,0.0,0.0,0.0,0.0,-0.9323,-1.0438,-0.9231,-0.8711,-0.9923,-0.8969,-0.8277,-0.8277,-0.7577,-0.7139,-0.7139,-0.7139,-0.7139,-0.7139,-0.7841,-0.8277,-0.8277,-0.9052,-0.9087,-0.8367,-0.8806,-0.8569,-0.7915,-0.9072,-0.9429,-0.9076,-0.9864,-1.0651,-1.1351,-1.1794,-1.2243,-1.2679,-1.3827,-1.4229,-1.4249,-1.4349,-1.4382,-1.4382,0.0,0.0,0.0,0.0,0.0,0.0,0.0,-1.0624,-1.0301,-0.9402,-0.8554,-0.7724,-0.6984,-0.6142,-0.5718,-0.6006,-0.6034,-0.6101,-0.6251,-0.6342,-0.6271,-0.6274,-0.6407,0.0,-0.6485,-0.663,-0.6709,-0.6715,-0.6865,-0.6936,-0.6943,-0.7014,-0.7084,-0.6996,-0.7005,-0.7012,-0.7101,-0.7091,-0.682,-0.637,-0.6919,-0.7073,-0.7065,0.0,0.0,0.0,0.0,0.0,0.0,0.0,0.0,0.0,0.0,0.0,0.0,0.0,0.0,0.0,0.0,0.0,0.0,0.0,0.0,0.0,0.0,0.0,0.0,0.0,0.0,0.0,0.0,0.0,0.0,0.0,0.0,0.0,-1.0351,-0.9579,-0.9235,-1.0351,-0.8444,-0.7577,-0.8715,-0.7753,-0.7139,-0.7139,-0.7139,-0.7139,-0.7139,-0.7139,-0.7139,-0.7139,-0.7146,-0.7146,-0.7146,-0.7153,-0.7231,-0.738,-0.854,-0.908,-0.925,-1.0445,-1.0352,-0.9254,-0.9254,-0.9338,-0.9612,-1.0726,-1.2016,-1.3188,-1.4108,-1.4536,-1.4569,-1.4856,-1.4963,-1.4963,0.0,0.0,0.0,0.0,0.0,0.0,0.0,-1.0624,-1.0301,-0.9402,-0.8641,-0.7827,-0.7001,-0.6268,-0.5942,-0.6023,-0.6132,-0.6213,-0.6257,-0.6359,-0.6464,0.0,0.0,0.0,-0.68,-0.6844,-0.6926,-0.6957,-0.6997,-0.7024,-0.7031,-0.7078,-0.6183,-0.4554,-0.4556,-0.5463,-0.7101,-0.7098,-0.7048,-0.6877,-0.7017,-0.709,-0.7083,0.0,0.0,0.0,0.0,0.0,0.0,0.0,0.0,0.0,0.0,0.0,0.0,0.0,0.0,0.0,0.0,0.0,0.0,0.0,0.0,0.0,0.0,0.0,0.0,0.0,0.0,0.0,0.0,0.0,0.0,0.0,0.0,-0.8978,-0.9323,-0.8364,-0.7753,-0.8009,-0.7489,-0.7228,-0.7577,-0.7316,-0.7139,-0.7139,-0.7139,-0.7139,-0.7139,-0.7139,-0.7139,-0.7139,-0.7248,-0.7309,-0.7309,-0.7417,-0.7495,-0.7536,-0.7902,-0.8016,-0.8059,-0.843,-0.8337,-0.8059,-0.8059,-0.8516,-0.9343,-0.9714,-1.0537,-1.1909,-1.4046,-1.4843,-1.485,-1.4937,-1.4963,-1.4963,0.0,0.0,0.0,0.0,0.0,0.0,0.0,-1.0295,-1.0289,-0.9313,-0.8631,-0.7756,-0.6663,-0.6211,-0.6057,-0.6122,-0.621,-0.6285,-0.6346,-0.6485,0.0,0.0,0.0,-0.6837,-0.6847,-0.691,-0.6994,-0.7091,-0.6088,-0.5638,-0.5644,-0.6653,-0.6382,-0.502,-0.2953,-0.3944,-0.7128,-0.7121,-0.7115,-0.7115,-0.7084,-0.7071,-0.7061,-0.7115,-0.7088,-0.7155,-0.7842,-0.8715,-0.9493,-0.9558,0.0,0.0,0.0,0.0,0.0,0.0,0.0,0.0,0.0,0.0,0.0,0.0,0.0,0.0,0.0,0.0,0.0,0.0,0.0,0.0,0.0,0.0,0.0,0.0,-0.8886,-0.8105,-0.8105,-0.7577,-0.7139,-0.7139,-0.7139,-0.7139,-0.7139,-0.7139,-0.7139,-0.7139,-0.7139,-0.7139,-0.7139,-0.7204,-0.7238,-0.7238,-0.7387,-0.7465,-0.7465,-0.7556,-0.7631,-0.7689,-0.7689,-0.7723,-0.7784,-0.7784,-0.7784,0.0,-0.7784,-0.8446,-0.9577,-0.9577,-1.0333,0.0,0.0,0.0,0.0,0.0,-1.3728,-1.3728,0.0,0.0,0.0,0.0,0.0,0.0,0.0,-0.9831,-1.0219,-0.9131,-0.8544,-0.7664,-0.6145,-0.6044,-0.6112,-0.6247,-0.6338,-0.6322,-0.6468,-0.6617,0.0,-0.6536,-0.6803,-0.6873,-0.6797,-0.6747,-0.6821,-0.7104,-0.5013,-0.3757,-0.3226,-0.532,-0.6334,-0.6152,-0.1893,-0.2344,-0.6337,-0.632,-0.6314,-0.6311,-0.6293,-0.664,-0.7084,-0.7064,-0.7119,-0.726,-0.8719,-0.9222,-0.9347,-0.999,0.0,0.0,0.0,0.0,0.0,0.0,0.0,0.0,0.0,0.0,0.0,0.0,0.0,0.0,0.0,0.0,0.0,0.0,0.0,0.0,0.0,0.0,0.0,0.0,-0.7929,-0.7139,-0.7139,-0.7139,-0.7139,-0.7139,-0.7139,-0.7139,-0.7139,-0.7139,-0.7139,-0.7139,-0.7156,-0.7166,-0.7166,0.0,0.0,0.0,0.0,-0.7624,-0.7624,-0.7641,-0.7712,-0.7838,-0.7838,-0.7916,-0.8065,-0.8065,-0.8075,-0.8089,-0.8089,-0.8781,-0.9863,-0.9863,-1.0452,-1.1507,-1.1547,-1.1542,-1.1567,-1.1773,-1.1945,-1.1945,0.0,0.0,0.0,0.0,0.0,0.0,0.0,-0.9977,-1.0078,-0.855,-0.8383,-0.7739,-0.6155,-0.6142,-0.623,-0.6257,-0.6338,-0.6407,-0.6572,0.0,-0.6756,-0.6967,-0.7041,-0.7044,-0.7054,-0.5265,-0.5196,-0.7128,-0.6671,-0.4437,-0.0735,-0.1195,-0.1379,-0.1287,-0.0368,-0.0547,-0.1349,-0.1348,-0.1348,-0.1347,-0.1343,-0.3664,-0.7084,-0.7081,-0.7061,-0.7129,-0.7489,-0.7573,-0.7566,-0.7746,-0.7749,-0.7925,-0.8886,0.0,0.0,0.0,0.0,0.0,0.0,0.0,0.0,0.0,0.0,0.0,0.0,0.0,0.0,0.0,0.0,0.0,0.0,0.0,0.0,-0.8978,-0.7929,-0.7139,-0.7139,-0.7139,-0.7139,-0.7139,-0.7139,-0.7139,-0.7139,-0.7139,-0.7139,-0.7139,-0.7255,-0.7326,-0.7326,-0.7472,0.0,-0.7556,-0.7695,-0.777,-0.777,-0.7892,-0.7967,-0.7994,0.0,0.0,-0.8225,-0.8225,-0.8289,-0.8397,-0.8397,-0.8498,-0.8806,-0.8806,-0.8909,-0.9286,-1.1152,-1.1783,-1.1788,-1.1833,-1.1945,-1.1945,0.0,0.0,0.0,0.0,0.0,0.0,0.0,-0.9314,-0.9406,-0.7376,-0.7995,-0.7997,-0.6352,-0.6213,-0.6338,-0.6338,-0.6417,-0.6465,0.0,-0.5655,-0.5633,-0.6868,-0.5906,-0.5916,-0.7118,-0.593,-0.4759,-0.3506,-0.3506,-0.2347,0.0,0.0,0.0,0.0,0.0,0.0,0.0,0.0,0.0,0.0,0.0,-0.1431,-0.3842,-0.618,-0.7078,-0.7068,-0.7143,-0.7139,-0.7139,-0.7139,-0.7139,-0.7228,-0.7841,-0.8017,-0.8101,0.0,0.0,0.0,0.0,0.0,0.0,0.0,0.0,0.0,0.0,0.0,0.0,0.0,0.0,-1.0438,-0.9836,0.0,-0.8715,-0.8105,-0.7489,-0.7139,-0.7139,-0.7139,-0.7139,-0.7139,-0.7139,-0.7139,-0.7139,-0.721,-0.7255,-0.7255,-0.74,-0.7485,-0.7485,-0.7628,-0.7706,-0.7706,-0.7848,-0.7926,-0.7926,-0.8079,-0.8153,-0.8157,-0.8228,-0.8303,-0.8377,-0.8377,-0.8414,-0.8482,-0.8482,-0.8482,-0.8482,-0.8482,-0.8482,-0.857,-0.9737,-1.0171,-1.0171,-1.0171,-1.0171,-1.0171,0.0,0.0,0.0,0.0,0.0,0.0,0.0,-0.8358,-0.8638,-0.6522,-0.7568,-0.7925,-0.6472,-0.6338,-0.6338,-0.6338,-0.6465,0.0,0.0,-0.4325,-0.4104,-0.5312,-0.464,-0.475,-0.5676,-0.5679,-0.3866,0.0,0.0,0.0,0.0,0.0,0.0,0.0,0.0,0.0,0.0,0.0,0.0,0.0,0.0,0.0,-0.0447,-0.4739,-0.6719,-0.7081,-0.7061,-0.7139,-0.7139,-0.7139,-0.7139,-0.7139,-0.7139,-0.7139,-0.7139,-0.7139,-0.7753,0.0,0.0,0.0,0.0,0.0,0.0,0.0,0.0,0.0,-1.1295,-1.0178,-0.9918,-0.9662,-0.8715,-0.854,-0.8189,-0.7228,-0.7139,-0.7139,-0.7139,-0.7139,-0.7139,-0.7139,-0.7139,-0.7153,-0.7183,-0.7299,-0.7383,-0.7414,-0.7556,-0.7641,-0.7641,-0.7777,-0.7855,-0.7855,-0.8004,-0.8082,-0.8082,-0.8235,-0.8313,-0.8313,-0.8428,-0.8499,-0.8526,-0.8526,-0.854,-0.857,-0.857,-0.857,-0.857,-0.857,-0.857,-0.857,-0.857,-0.857,-0.8564,-0.8503,-0.8482,-0.8482,0.0,0.0,0.0,0.0,0.0,0.0,0.0,0.0,-0.8035,-0.712,-0.73,-0.719,-0.6395,-0.6338,-0.6338,-0.6338,-0.6288,0.0,-0.3595,-0.3273,-0.2438,-0.0841,-0.457,-0.4858,-0.0898,-0.0809,-0.0539,0.0,0.0,0.0,0.0,0.0,0.0,0.0,0.0,0.0,0.0,0.0,0.0,0.0,0.0,0.0,-0.0269,-0.2949,-0.5275,-0.7081,-0.7061,-0.7139,-0.7139,-0.7139,-0.7139,-0.7139,-0.7139,-0.7139,-0.7139,-0.7139,0.0,-0.7749,-0.9831,-1.1209,-1.1638,-0.9579,-0.9923,-1.0173,0.0,0.0,-0.8973,-0.7749,-0.7489,-0.7489,-0.7316,-0.7316,-0.7228,-0.7139,-0.7139,-0.7139,-0.7139,-0.7139,-0.7139,-0.7139,-0.7139,-0.7193,-0.7333,-0.736,-0.7428,-0.7563,-0.7706,-0.7787,-0.7787,-0.7933,-0.8014,-0.8014,-0.8163,-0.8245,-0.8245,-0.8387,-0.8459,-0.8459,-0.8476,-0.8554,-0.8682,-0.8682,-0.876,-0.8889,-0.8889,-0.8889,-0.8889,-0.8889,-0.8889,-0.8889,-0.8889,-0.8889,-0.8855,-0.8581,-0.8482,-0.8482,0.0,0.0,0.0,0.0,0.0,0.0,0.0,0.0,0.0,-0.6565,-0.71,-0.7239,-0.6405,-0.6338,-0.6338,-0.6338,0.0,0.0,-0.3202,-0.1963,-0.0924,-0.0,-0.1932,-0.2066,-0.0,0.0,0.0,0.0,0.0,0.0,0.0,0.0,0.0,0.0,0.0,0.0,0.0,0.0,0.0,0.0,0.0,0.0,-0.0269,-0.2686,-0.5015,-0.7091,-0.7061,-0.7139,0.0,0.0,-0.7139,-0.7139,-0.7139,-0.7139,-0.7139,-0.7139,-0.7139,0.0,-0.8269,-0.8873,-0.9048,0.0,-0.8711,-0.9144,-0.7489,-0.8013,-0.854,-0.7312,-0.7139,-0.7139,-0.7139,-0.7139,-0.7139,0.0,-0.7139,-0.7139,-0.7139,-0.7139,-0.7139,-0.7139,-0.7221,-0.7299,-0.7363,-0.7526,-0.7655,-0.7719,-0.7862,-0.7943,-0.7943,-0.8089,-0.8174,-0.8174,-0.8316,-0.8394,-0.8394,-0.854,-0.8615,-0.8615,-0.8706,-0.8781,-0.8845,-0.8845,-0.8879,-0.894,-0.894,-0.894,-0.894,-0.894,-0.894,-0.894,-0.894,-0.894,-0.8923,-0.8794,-0.8747,-0.8747,0.0,0.0,0.0,0.0,0.0,0.0,0.0,0.0,0.0,0.0,-0.684,-0.7099,-0.6416,-0.6338,-0.6338,0.0,0.0,0.0,0.0,-0.1473,0.0,0.0,0.0,0.0,0.0,0.0,0.0,0.0,0.0,0.0,0.0,0.0,0.0,0.0,0.0,0.0,0.0,0.0,0.0,0.0,0.0,0.0,-0.018,-0.1972,-0.403,-0.6186,-0.6887,-0.7058,0.0,0.0,-0.7139,-0.7139,-0.7139,-0.7139,-0.7139,-0.7139,-0.7316,-0.7492,-0.7228,0.0,0.0,-0.7139,-0.7753,-0.8189,-0.7316,-0.7753,-0.8193,-0.7316,-0.7139,-0.7139,-0.7139,-0.7139,-0.7139,-0.7139,-0.7139,-0.7139,-0.7139,-0.7139,-0.7156,-0.72,-0.7339,-0.7451,-0.7489,-0.7685,-0.7828,-0.7872,-0.7977,-0.8038,-0.8038,-0.8187,-0.8272,-0.8272,-0.8448,-0.8547,-0.8547,-0.8696,-0.8774,-0.8774,-0.8886,-0.894,-0.894,-0.894,-0.894,-0.894,-0.894,-0.894,-0.894,-0.894,-0.894,-0.894,-0.894,-0.894,-0.894,-0.894,-0.894,-0.894,0.0,0.0,0.0,0.0,0.0,0.0,0.0,0.0,0.0,0.0,0.0,0.0,0.0,0.0,0.0,0.0,0.0,0.0,0.0,-0.2288,0.0,0.0,0.0,0.0,0.0,0.0,0.0,0.0,0.0,0.0,0.0,0.0,0.0,0.0,0.0,0.0,0.0,0.0,0.0,0.0,0.0,0.0,-0.0,-0.009,-0.1608,-0.4016,-0.6269,0.0,0.0,0.0,-0.7139,-0.7139,-0.7139,-0.7139,0.0,-0.7139,-0.7929,-0.8627,0.0,0.0,-0.854,-0.7404,-0.7139,-0.7139,-0.7139,-0.7139,-0.7139,-0.7139,-0.7139,-0.7139,-0.7139,-0.7139,-0.7139,-0.7139,-0.7139,-0.7139,-0.7139,-0.7139,-0.7193,-0.7346,-0.7499,-0.7648,0.0,-0.7804,-0.7872,-0.8021,-0.8038,-0.8038,-0.8038,-0.8187,-0.8272,-0.8272,-0.8554,-0.8703,-0.8703,-0.8855,-0.893,-0.893,-0.8937,-0.894,-0.894,-0.894,-0.894,-0.894,-0.894,-0.894,-0.894,-0.894,-0.894,-0.894,-0.894,-0.894,-0.894,-0.894,-0.894,-0.894,0.0,0.0,0.0,0.0,0.0,0.0,0.0,0.0,0.0,0.0,0.0,0.0,0.0,0.0,0.0,0.0,0.0,0.0,0.0,-0.2367,0.0,0.0,0.0,0.0,0.0,0.0,0.0,0.0,0.0,0.0,0.0,0.0,0.0,0.0,0.0,0.0,0.0,0.0,0.0,0.0,0.0,0.0,-0.0359,-0.3501,-0.421,-0.3927,0.0,0.0,0.0,0.0,-0.7139,-0.7139,-0.7139,0.0,-0.7139,-0.7139,-0.7404,-0.7577,-0.7228,0.0,-0.7577,-0.7228,-0.7139,-0.7139,-0.7139,-0.7139,-0.7139,-0.7139,-0.7139,-0.7139,-0.7139,-0.7139,-0.7139,-0.7139,-0.7139,-0.7139,-0.7139,-0.7227,-0.7312,-0.7366,-0.759,0.0,0.0,0.0,0.0,-0.8035,-0.8038,-0.8082,-0.8187,-0.8333,-0.8459,-0.856,-0.8757,-0.8862,-0.8862,-0.8913,-0.894,-0.894,-0.894,-0.894,-0.894,-0.894,-0.894,-0.894,-0.894,-0.8991,-0.9083,-0.9083,-0.914,-0.9232,-0.9232,-0.9232,-0.9232,-0.9232,-0.9232,-0.9205,0.0,0.0,0.0,0.0,0.0,0.0,0.0,0.0,0.0,0.0,0.0,0.0,0.0,0.0,0.0,0.0,0.0,0.0,0.0,0.0,-0.1591,-0.0084,0.0,0.0,0.0,0.0,0.0,0.0,0.0,0.0,0.0,0.0,0.0,0.0,0.0,0.0,0.0,0.0,0.0,0.0,0.0,0.0,-0.0539,-0.5313,-0.6207,0.0,0.0,0.0,0.0,0.0,-0.7139,-0.7139,-0.7139,-0.7139,-0.7139,-0.7139,-0.7139,-0.7139,-0.7139,-0.7139,-0.7139,-0.7139,-0.7139,-0.7139,-0.7139,-0.7139,-0.7139,-0.7139,-0.7139,-0.7139,-0.7139,-0.7139,-0.7139,-0.7139,-0.7187,-0.7221,-0.7221,-0.7356,-0.7472,-0.7522,-0.7695,-0.7831,0.0,0.0,0.0,-0.8038,-0.8092,-0.8167,-0.8265,-0.8459,-0.8608,-0.8706,-0.8859,-0.894,-0.894,-0.894,-0.894,-0.894,-0.894,-0.894,-0.894,-0.894,-0.8967,-0.9015,-0.9015,-0.91,-0.9235,-0.9235,-0.9293,-0.9381,-0.9381,-0.9381,-0.9381,-0.9381,-0.9381,-0.9354,0.0,0.0,0.0,0.0,0.0,0.0,0.0,0.0,0.0,0.0,0.0,0.0,0.0,0.0,0.0,0.0,0.0,0.0,0.0,0.0,0.0,-0.0168,0.0,0.0,0.0,0.0,0.0,0.0,0.0,0.0,0.0,0.0,0.0,0.0,0.0,0.0,0.0,0.0,0.0,-0.0,-0.027,-0.0359,-0.0898,-0.5402,0.0,0.0,0.0,0.0,0.0,0.0,0.0,0.0,-0.7139,-0.7139,-0.7139,-0.7139,-0.7139,-0.7139,-0.7139,-0.7139,-0.7139,-0.7139,-0.7139,-0.7139,-0.7139,-0.7139,-0.7139,-0.7139,-0.7139,-0.7139,0.0,0.0,-0.7139,-0.7139,-0.7272,-0.737,-0.737,-0.7509,-0.7658,0.0,0.0,0.0,0.0,0.0,0.0,-0.8052,0.0,-0.8279,-0.8292,-0.856,-0.8713,-0.8723,-0.8862,-0.894,-0.894,-0.894,-0.894,-0.894,-0.894,-0.8944,-0.895,-0.895,-0.9028,-0.9164,-0.9164,-0.9252,-0.9395,-0.9395,-0.9398,-0.9405,-0.9405,-0.9405,-0.9405,-0.9405,-0.9405,-0.9405,0.0,0.0,0.0,0.0,0.0,0.0,0.0,0.0,0.0,0.0,0.0,0.0,0.0,0.0,0.0,0.0,0.0,0.0,0.0,0.0,0.0,0.0,0.0,0.0,0.0,0.0,0.0,0.0,0.0,0.0,0.0,0.0,0.0,0.0,0.0,0.0,0.0,0.0,0.0,-0.027,0.0,-0.5313,-0.5402,0.0,0.0,0.0,0.0,0.0,0.0,0.0,0.0,0.0,0.0,-0.7139,-0.7139,-0.7139,-0.7139,-0.7139,-0.7139,-0.7139,-0.7139,-0.7139,-0.7139,-0.7139,-0.7139,-0.7139,-0.7139,-0.7139,-0.7139,-0.7139,0.0,0.0,0.0,-0.7139,-0.7272,0.0,-0.737,-0.7594,0.0,-0.7807,0.0,-0.7997,-0.8035,-0.8038,0.0,0.0,-0.8248,-0.8367,-0.8587,-0.8669,-0.8764,-0.8876,-0.8916,-0.894,-0.894,-0.894,-0.894,-0.894,-0.894,-0.8994,-0.9096,-0.9096,-0.9181,-0.9323,-0.9323,-0.9408,-0.9551,-0.9551,-0.9612,-0.9707,-0.9707,-0.9707,-0.9707,-0.9707,-0.9707,-0.9707,0.0,0.0,0.0,0.0,0.0,0.0,0.0,0.0,0.0,0.0,0.0,0.0,0.0,0.0,0.0,0.0,0.0,0.0,0.0,0.0,0.0,0.0,0.0,0.0,0.0,0.0,0.0,0.0,0.0,0.0,0.0,0.0,0.0,0.0,0.0,0.0,0.0,0.0,0.0,0.0,0.0,0.0,0.0,0.0,0.0,0.0,0.0,0.0,0.0,0.0,0.0,-0.7139,-0.7139,-0.7139,-0.7139,-0.7139,0.0,-0.7139,-0.7139,-0.7139,-0.7139,-0.7139,-0.7139,-0.7139,-0.7139,-0.7139,-0.7139,-0.7139,-0.7139,0.0,-0.7139,0.0,0.0,0.0,0.0,0.0,-0.7556,-0.7767,-0.7913,0.0,-0.7987,0.0,-0.8038,-0.8102,-0.8204,0.0,-0.8367,-0.8465,-0.8699,-0.8774,-0.8849,-0.8937,-0.894,-0.894,-0.894,-0.894,-0.894,-0.894,-0.9001,-0.9076,-0.9154,-0.9222,-0.9337,-0.9483,0.0,-0.9564,-0.9703,-0.9703,-0.9747,-0.9822,-0.9822,-0.9822,-0.9822,-0.9822,-0.9822,-0.9822,0.0,0.0,0.0,0.0,0.0,0.0,0.0,0.0,0.0,0.0,0.0,0.0,0.0,0.0,0.0,0.0,0.0,0.0,0.0,0.0,0.0,0.0,0.0,0.0,0.0,0.0,0.0,0.0,0.0,0.0,0.0,0.0,0.0,0.0,0.0,0.0,0.0,0.0,0.0,0.0,0.0,0.0,0.0,0.0,0.0,0.0,0.0,0.0,0.0,0.0,-0.7139,-0.7139,-0.7139,-0.7139,-0.7139,-0.7139,-0.7139,-0.7139,-0.7139,-0.7139,-0.7139,-0.7139,-0.7139,-0.7139,-0.7139,-0.7139,-0.7139,-0.7139,0.0,-0.7139,-0.7139,-0.7156,-0.7214,-0.735,0.0,-0.7672,-0.7794,-0.7943,-0.8038,-0.8038,-0.8038,-0.8041,-0.8041,-0.8184,-0.824,-0.8292,-0.8088,-0.8149,-0.8737,-0.8869,-0.894,-0.894,-0.894,-0.894,-0.894,-0.894,-0.8947,-0.8967,-0.9093,-0.9174,-0.9218,-0.9351,-0.9493,-0.9639,0.0,0.0,-0.9822,-0.9822,-0.9822,-0.9822,-0.9822,-0.9822,-0.9822,-0.9822,-0.9822,-0.9822,0.0,0.0,0.0,0.0,0.0,0.0,0.0,0.0,0.0,0.0,-0.6314,-0.6338,0.0,0.0,0.0,0.0,0.0,0.0,0.0,0.0,0.0,0.0,0.0,0.0,0.0,0.0,0.0,0.0,0.0,0.0,0.0,0.0,0.0,0.0,0.0,0.0,0.0,0.0,0.0,0.0,0.0,0.0,0.0,0.0,0.0,0.0,0.0,0.0,0.0,0.0,-0.7139,-0.7139,-0.7139,-0.7139,-0.7139,-0.7139,-0.7139,-0.7139,-0.7139,-0.7139,-0.7139,-0.7139,-0.7139,-0.7139,-0.7139,-0.7139,0.0,0.0,-0.7139,-0.7139,-0.7139,-0.7244,-0.7339,-0.7366,0.0,0.0,0.0,0.0,-0.8038,0.0,0.0,0.0,0.0,0.0,0.0,0.0,0.0,-0.6009,-0.8696,-0.8933,-0.894,-0.894,-0.894,-0.894,-0.894,-0.894,-0.8998,-0.9117,-0.914,-0.9286,-0.953,-0.9557,-0.9649,-0.9785,-0.9785,0.0,-0.9822,-0.9822,-0.9822,-0.9822,-0.9822,-0.9822,-0.9822,-0.9822,-0.9822,-0.9822,0.0,0.0,0.0,0.0,0.0,0.0,0.0,-0.8888,-0.8969,-0.9362,-0.758,-0.6283,-0.6331,-0.6338,-0.6338,0.0,0.0,0.0,0.0,0.0,0.0,0.0,0.0,0.0,0.0,0.0,0.0,0.0,0.0,0.0,0.0,0.0,0.0,0.0,0.0,0.0,0.0,0.0,0.0,0.0,0.0,0.0,0.0,0.0,0.0,0.0,0.0,0.0,0.0,0.0,-0.7139,-0.7139,-0.7139,-0.7139,-0.7139,-0.7139,-0.7139,-0.7139,-0.7139,-0.7139,-0.7139,-0.7139,-0.7139,-0.7139,-0.7139,0.0,0.0,0.0,-0.7139,-0.7166,-0.7244,-0.7322,0.0,-0.7577,0.0,0.0,0.0,0.0,0.0,0.0,0.0,0.0,0.0,0.0,0.0,0.0,0.0,-0.5654,-0.8742,-0.895,-0.894,-0.894,-0.894,-0.894,-0.894,-0.9015,-0.9086,-0.9154,-0.9313,-0.9466,-0.9612,-0.9686,-0.9758,-0.9822,-0.9822,0.0,-0.9822,-0.9822,-0.9822,-0.9822,-0.9822,-0.9822,-0.9822,-0.9822,-0.9822,-0.9822,0.0,0.0,0.0,0.0,0.0,0.0,0.0,-0.9536,-0.9873,-1.2032,-0.9546,-0.7559,-0.7594,-0.6802,-0.6321,0.0,0.0,0.0,0.0,0.0,0.0,0.0,0.0,0.0,0.0,0.0,0.0,0.0,0.0,0.0,0.0,0.0,0.0,0.0,0.0,0.0,0.0,0.0,0.0,0.0,0.0,0.0,0.0,0.0,0.0,0.0,0.0,0.0,0.0,0.0,-0.7139,-0.7139,-0.7139,-0.7139,-0.7139,-0.7139,-0.7139,-0.7139,-0.7139,-0.7139,-0.7139,-0.7139,-0.7139,-0.7139,-0.7139,-0.7139,0.0,0.0,-0.7139,-0.7187,-0.7343,0.0,-0.7506,0.0,-0.7838,-0.7902,0.0,0.0,0.0,0.0,0.0,0.0,0.0,0.0,0.0,0.0,0.0,0.0,-0.8752,-0.885,-0.8947,-0.8947,-0.894,-0.8954,-0.8984,-0.9096,-0.9188,-0.9252,-0.9496,-0.9625,-0.9659,-0.9771,-0.9822,-0.9822,-0.9822,0.0,0.0,-0.9822,-0.9822,-0.9822,-0.9822,-0.9822,-0.9822,-0.9822,-0.9842,-0.9869,0.0,0.0,0.0,0.0,0.0,0.0,0.0,-1.081,-1.2022,-1.2269,-1.1958,-1.1784,-1.1738,-0.8516,-0.6276,0.0,0.0,0.0,0.0,0.0,0.0,0.0,0.0,0.0,0.0,0.0,0.0,0.0,0.0,0.0,0.0,0.0,0.0,0.0,0.0,0.0,0.0,0.0,0.0,0.0,0.0,0.0,0.0,0.0,0.0,0.0,0.0,0.0,0.0,0.0,0.0,-0.7139,-0.7139,-0.7139,-0.7139,-0.7139,0.0,0.0,-0.7139,-0.7139,-0.7139,-0.7139,-0.7139,-0.7139,-0.7139,0.0,0.0,-0.7139,-0.7139,-0.7187,-0.7343,-0.7485,-0.7631,0.0,0.0,-0.8024,-0.8038,0.0,0.0,0.0,0.0,0.0,0.0,0.0,0.0,0.0,0.0,0.0,-0.8552,-0.887,-0.886,-0.886,-0.895,-0.9001,-0.913,-0.9147,-0.9293,-0.9568,-0.9595,-0.9676,-0.9802,-0.9815,-0.9822,-0.9822,-0.9822,0.0,0.0,-0.9822,-0.9822,-0.9822,-0.9822,-0.9822,-0.9822,-0.9822,-0.991,-1.0029,0.0,0.0,0.0,0.0,0.0,0.0,-1.1113,-1.1822,-1.2318,-1.2277,-1.2277,-1.2311,-1.2309,-0.8718,-0.6325,-0.6304,0.0,0.0,0.0,0.0,0.0,0.0,0.0,0.0,0.0,0.0,0.0,0.0,0.0,0.0,0.0,0.0,0.0,0.0,0.0,0.0,0.0,0.0,0.0,0.0,0.0,0.0,0.0,0.0,0.0,0.0,0.0,0.0,0.0,0.0,0.0,0.0,-0.7139,-0.7139,0.0,0.0,-0.7139,-0.7139,-0.7139,-0.7139,-0.7143,-0.7068,-0.7061,-0.7143,-0.7068,0.0,-0.7139,-0.7139,-0.7214,-0.7326,-0.7482,-0.7628,-0.7777,-0.7926,-0.7997,0.0,-0.8038,-0.8038,0.0,0.0,0.0,0.0,0.0,0.0,0.0,0.0,0.0,0.0,-0.3361,-0.526,-0.7051,-0.886,-0.9049,-0.911,-0.9154,-0.9337,-0.949,-0.9612,-0.9696,-0.9768,-0.9822,-0.9822,-0.9822,-0.9822,-0.9822,0.0,0.0,-0.9822,-0.9822,-0.9822,-0.9822,-0.9876,-0.9958,-0.9958,-1.0056,-1.0188,0.0,0.0,0.0,0.0,0.0,-1.2305,-1.2305,-1.2305,-1.2305,-1.2305,-1.2305,-1.2311,-1.2264,-0.8731,-0.6308,-0.6311,-0.6328,0.0,0.0,0.0,0.0,0.0,0.0,0.0,0.0,0.0,0.0,0.0,0.0,0.0,0.0,0.0,0.0,0.0,0.0,0.0,0.0,0.0,0.0,0.0,0.0,0.0,0.0,0.0,0.0,0.0,0.0,0.0,0.0,0.0,0.0,0.0,0.0,0.0,0.0,0.0,-0.7139,-0.7139,-0.7139,-0.7058,-0.7064,-0.7081,-0.6799,-0.6517,0.0,0.0,-0.7139,-0.7139,-0.7261,-0.7417,-0.757,-0.7716,-0.7862,-0.8014,-0.8038,-0.8038,-0.8038,-0.8038,-0.8038,0.0,0.0,0.0,0.0,0.0,0.0,0.0,0.0,0.0,0.0,-0.2014,-0.4136,-0.6149,-0.8188,-0.9201,-0.9346,-0.9483,-0.9632,-0.9673,-0.9774,-0.9822,-0.9822,-0.9822,-0.9822,-0.9822,0.0,0.0,0.0,-0.9822,-0.9822,-0.9825,-0.9869,-0.9954,-1.0056,-1.01,-1.0212,-1.0341,0.0,0.0,0.0,0.0,0.0,0.0,-1.2305,-1.2305,-1.2305,-1.2305,-1.2305,-1.2331,-1.2269,-0.8684,-0.6294,-0.6266,-0.6311,0.0,0.0,0.0,0.0,0.0,0.0,0.0,0.0,0.0,0.0,0.0,0.0,0.0,0.0,0.0,0.0,0.0,0.0,0.0,0.0,0.0,0.0,0.0,0.0,0.0,0.0,0.0,0.0,0.0,0.0,0.0,0.0,0.0,0.0,0.0,0.0,-0.7139,0.0,0.0,-0.7139,-0.7139,-0.7139,-0.7068,-0.7084,-0.7084,-0.5991,-0.5267,0.0,0.0,-0.7139,-0.7139,-0.7261,-0.7417,-0.757,-0.7716,-0.7862,-0.8014,-0.8038,-0.8038,-0.8038,-0.8038,0.0,0.0,0.0,0.0,0.0,0.0,0.0,0.0,0.0,0.0,0.0,-0.0,-0.0112,-0.0112,-0.6014,-0.9259,-0.9531,-0.9544,-0.968,-0.9819,-0.9822,-0.9822,-0.9822,-0.9822,-0.9822,0.0,0.0,0.0,0.0,-0.9822,-0.9822,-0.9836,-0.9988,-1.0046,-1.0066,-1.0222,-1.0368,-1.049,0.0,0.0,0.0,0.0,0.0,0.0,0.0,-1.2264,-1.2305,-1.2305,-1.2305,-1.2311,-1.2264,-0.8731,-0.628,-0.6298,-0.6294,0.0,0.0,0.0,0.0,0.0,0.0,0.0,0.0,0.0,0.0,0.0,0.0,0.0,0.0,0.0,0.0,0.0,0.0,0.0,0.0,0.0,0.0,0.0,0.0,0.0,0.0,0.0,0.0,0.0,0.0,0.0,0.0,0.0,0.0,0.0,0.0,0.0,0.0,-0.7139,-0.7139,-0.7139,-0.7139,-0.7058,-0.6884,-0.5808,-0.598,-0.652,-0.6989,0.0,-0.7139,-0.7139,-0.7346,-0.7543,-0.759,-0.7801,-0.7984,-0.8031,-0.8038,-0.8038,0.0,0.0,0.0,0.0,0.0,0.0,0.0,0.0,0.0,0.0,0.0,0.0,0.0,0.0,0.0,0.0,-0.1846,-0.5046,-0.9351,-0.9593,-0.9798,-0.9846,-0.9829,-0.9822,-0.9822,-0.9822,0.0,0.0,0.0,0.0,0.0,-0.9822,-0.9883,-0.9981,-1.0029,-1.0175,-1.0358,-1.0405,-1.0521,-1.0649,0.0,0.0,0.0,0.0,0.0,0.0,0.0,-1.2296,-1.2324,-1.2284,-1.2277,-1.2264,-1.2305,-0.9125,-0.706,-0.706,-0.6601,0.0,0.0,0.0,0.0,0.0,0.0,0.0,0.0,-0.22,0.0,0.0,0.0,0.0,0.0,0.0,0.0,0.0,0.0,0.0,0.0,0.0,0.0,0.0,0.0,0.0,-0.7091,0.0,0.0,0.0,0.0,0.0,0.0,0.0,0.0,0.0,0.0,0.0,0.0,0.0,-0.7139,-0.7139,-0.7139,-0.7058,-0.6884,-0.5899,-0.6346,-0.7068,0.0,0.0,-0.7064,-0.7071,-0.7309,-0.7426,-0.7617,-0.7855,-0.7952,-0.7952,-0.7952,-0.7952,-0.7952,0.0,0.0,0.0,0.0,0.0,0.0,0.0,0.0,0.0,0.0,0.0,0.0,0.0,0.0,0.0,0.0,-0.1904,-0.5778,-0.7205,-0.8619,-0.9751,-0.9846,-0.9836,-0.9832,-0.9825,0.0,0.0,0.0,0.0,0.0,-0.9883,-0.9964,-1.0059,-1.0175,-1.0327,-1.05,-1.0558,-1.0636,-1.0724,0.0,0.0,0.0,0.0,0.0,0.0,0.0,-1.1866,-1.1904,-1.1883,-1.2039,-1.2087,-1.2003,-0.9697,-0.8179,-0.8259,0.0,0.0,0.0,0.0,0.0,0.0,0.0,0.0,0.0,-0.2043,0.0,0.0,0.0,0.0,0.0,0.0,0.0,0.0,0.0,0.0,0.0,0.0,0.0,0.0,0.0,-0.2772,0.0,0.0,0.0,0.0,0.0,0.0,0.0,0.0,0.0,0.0,0.0,0.0,0.0,0.0,0.0,0.0,0.0,-0.7068,-0.7084,-0.7084,-0.7084,-0.7088,-0.7098,0.0,0.0,0.0,-0.6869,-0.6969,-0.7263,-0.7583,-0.7769,-0.7975,-0.7975,-0.7972,-0.7769,-0.7882,0.0,0.0,0.0,0.0,0.0,0.0,0.0,0.0,0.0,0.0,0.0,0.0,0.0,0.0,0.0,0.0,0.0,-0.305,-0.6033,-0.9152,-0.9374,-0.9609,-0.9859,-0.9836,0.0,0.0,0.0,0.0,0.0,-0.9988,-1.0059,-1.0093,-1.0382,-1.05,-1.0524,-1.0666,-1.0721,-1.0724,0.0,0.0,0.0,0.0,0.0,0.0,0.0,0.0,0.0,0.0,-0.9025,-0.9825,-0.9321,-0.7795,-0.7046,0.0,0.0,0.0,0.0,0.0,0.0,0.0,0.0,0.0,0.0,-0.0471,0.0,0.0,0.0,0.0,0.0,0.0,0.0,0.0,0.0,0.0,0.0,0.0,0.0,0.0,0.0,-0.1787,0.0,0.0,0.0,0.0,-0.7139,-0.7139,0.0,0.0,0.0,0.0,0.0,0.0,0.0,0.0,-0.7139,-0.7139,-0.7139,0.0,-0.7061,-0.7061,-0.7071,-0.7084,0.0,0.0,0.0,0.0,0.0,-0.4466,-0.4561,-0.4803,-0.5634,-0.7679,-0.7985,-0.7266,-0.5227,0.0,0.0,0.0,0.0,0.0,0.0,0.0,0.0,0.0,0.0,0.0,0.0,0.0,0.0,0.0,0.0,0.0,0.0,-0.0737,-0.1598,-0.2337,-0.4794,-0.7391,-0.9771,-0.9767,0.0,0.0,0.0,0.0,-0.9859,-1.0012,-1.0137,-1.0243,-1.0422,-1.0565,-1.067,-1.0707,-1.0731,-1.0751,0.0,0.0,0.0,0.0,0.0,0.0,0.0,0.0,0.0,0.0,0.0,0.0,0.0,0.0,0.0,0.0,0.0,0.0,0.0,0.0,0.0,0.0,0.0,0.0,-0.0078,0.0,0.0,0.0,0.0,0.0,0.0,0.0,0.0,0.0,0.0,0.0,0.0,0.0,0.0,0.0,0.0,0.0,0.0,0.0,0.0,0.0,-0.7139,-0.7139,0.0,-0.7139,-0.7139,-0.7139,0.0,0.0,0.0,0.0,-0.7139,-0.7139,-0.7139,-0.7058,-0.7068,-0.7068,-0.7081,-0.7094,-0.7104,0.0,0.0,0.0,0.0,0.0,-0.1924,0.0,0.0,-0.7387,-0.8006,-0.667,0.0,0.0,0.0,0.0,0.0,0.0,0.0,0.0,0.0,0.0,0.0,0.0,0.0,0.0,0.0,0.0,0.0,0.0,0.0,0.0,0.0,-0.0,-0.1845,-0.3566,-0.5297,-0.6903,-0.7523,0.0,0.0,0.0,-0.7641,-0.9343,-1.0112,-1.0317,-1.0531,-1.0656,-1.0721,-1.0731,-1.0744,-1.0761,0.0,0.0,0.0,0.0,0.0,0.0,0.0,0.0,0.0,0.0,0.0,0.0,0.0,0.0,0.0,0.0,0.0,0.0,0.0,0.0,0.0,0.0,0.0,-0.4467,-0.0548,-0.0157,0.0,0.0,0.0,0.0,0.0,0.0,0.0,0.0,0.0,0.0,0.0,0.0,0.0,0.0,0.0,0.0,0.0,0.0,0.0,0.0,0.0,0.0,0.0,-0.7139,-0.7139,-0.7139,-0.7139,0.0,0.0,0.0,0.0,0.0,-0.7143,-0.7071,-0.7088,-0.7084,-0.7098,-0.7111,-0.7131,0.0,0.0,0.0,0.0,0.0,0.0,0.0,0.0,0.0,0.0,0.0,0.0,0.0,0.0,0.0,0.0,0.0,0.0,0.0,0.0,0.0,0.0,0.0,0.0,0.0,0.0,0.0,0.0,0.0,0.0,0.0,0.0,0.0,0.0,0.0,-0.0123,-0.2828,-0.418,0.0,0.0,0.0,-0.4327,-0.7134,-0.8779,-0.9591,-1.0386,-1.0751,-1.0734,-1.0755,-1.0765,-1.0505,0.0,0.0,0.0,0.0,0.0,0.0,0.0,0.0,0.0,0.0,0.0,0.0,0.0,0.0,0.0,0.0,0.0,0.0,0.0,0.0,0.0,0.0,-0.6274,-0.5168,-0.2656,-0.0939,0.0,0.0,0.0,0.0,0.0,0.0,0.0,0.0,0.0,0.0,0.0,0.0,0.0,0.0,0.0,0.0,0.0,0.0,0.0,0.0,0.0,0.0,0.0,-0.7139,-0.7139,-0.7139,-0.7139,0.0,0.0,0.0,0.0,0.0,-0.7074,-0.7091,-0.7098,-0.7088,-0.7108,-0.7131,0.0,0.0,0.0,0.0,0.0,0.0,0.0,0.0,0.0,0.0,0.0,0.0,0.0,0.0,0.0,0.0,0.0,0.0,0.0,0.0,0.0,0.0,0.0,0.0,0.0,0.0,0.0,0.0,0.0,0.0,0.0,0.0,0.0,0.0,0.0,0.0,-0.0,-0.0493,-0.074,0.0,0.0,-0.0745,-0.0753,-0.1276,-0.3234,-0.6029,-0.9371,-1.0662,-1.0658,-1.0662,-1.0678,-0.9868,0.0,0.0,0.0,0.0,0.0,0.0,0.0,0.0,0.0,0.0,0.0,0.0,0.0,0.0,0.0,0.0,0.0,0.0,0.0,0.0,0.0,-0.6338,-0.6268,-0.5876,-0.4859,-0.1642,0.0,0.0,0.0,0.0,0.0,0.0,0.0,0.0,0.0,0.0,0.0,0.0,0.0,0.0,0.0,0.0,0.0,0.0,0.0,0.0,0.0,0.0,0.0,0.0,-0.7139,-0.7139,-0.7139,0.0,0.0,0.0,0.0,0.0,-0.7091,-0.7108,-0.7118,-0.7115,-0.5124,0.0,0.0,0.0,0.0,0.0,0.0,0.0,0.0,0.0,0.0,0.0,0.0,0.0,0.0,0.0,0.0,0.0,0.0,0.0,0.0,0.0,0.0,0.0,0.0,0.0,0.0,0.0,0.0,0.0,0.0,0.0,0.0,0.0,0.0,0.0,0.0,0.0,0.0,0.0,0.0,0.0,0.0,0.0,0.0,0.0,-0.0909,-0.2628,-0.6419,-0.7806,-0.8071,-0.9996,-0.8231,-0.4444,0.0,0.0,0.0,0.0,0.0,0.0,0.0,0.0,0.0,0.0,0.0,0.0,0.0,0.0,0.0,0.0,0.0,0.0,0.0,0.0,-0.6338,-0.6338,-0.6338,-0.6271,-0.6295,-0.266,-0.047,0.0,0.0,0.0,0.0,0.0,0.0,0.0,0.0,0.0,0.0,0.0,0.0,0.0,0.0,0.0,0.0,0.0,0.0,0.0,0.0,0.0,0.0,0.0,0.0,0.0,0.0,0.0,0.0,-0.7078,-0.7084,-0.7088,-0.7104,-0.7121,-0.7138,0.0,0.0,0.0,0.0,0.0,0.0,0.0,0.0,0.0,0.0,0.0,0.0,0.0,0.0,0.0,0.0,0.0,0.0,0.0,0.0,0.0,0.0,0.0,0.0,0.0,0.0,0.0,0.0,0.0,0.0,0.0,0.0,0.0,0.0,0.0,0.0,0.0,0.0,0.0,0.0,0.0,0.0,0.0,0.0,0.0,0.0,0.0,0.0,-0.0265,-0.3078,-0.4164,-0.4428,-0.7145,-0.4714,0.0,0.0,0.0,0.0,0.0,0.0,0.0,0.0,0.0,0.0,0.0,0.0,0.0,0.0,0.0,0.0,0.0,0.0,0.0,0.0,0.0,-0.6338,-0.6338,-0.6338,-0.6271,-0.6295,-0.4068,-0.1955,0.0,0.0,0.0,0.0,0.0,0.0,0.0,0.0,0.0,0.0,0.0,0.0,0.0,0.0,0.0,0.0,0.0,0.0,0.0,0.0,0.0,0.0,0.0,0.0,0.0,0.0,0.0,-0.7058,-0.7078,-0.7084,-0.7091,-0.7125,-0.7135,-0.7141,-0.7072,0.0,0.0,0.0,0.0,0.0,0.0,0.0,0.0,0.0,0.0,0.0,0.0,0.0,0.0,0.0,0.0,0.0,0.0,0.0,0.0,0.0,0.0,0.0,0.0,0.0,0.0,0.0,0.0,0.0,0.0,0.0,0.0,0.0,0.0,0.0,0.0,0.0,0.0,0.0,0.0,0.0,0.0,0.0,0.0,0.0,0.0,0.0,-0.0,-0.0269,-0.0404,-0.0404,-0.0673,-0.0404,0.0,0.0,0.0,0.0,0.0,0.0,0.0,0.0,0.0,0.0,0.0,0.0,0.0,0.0,0.0,0.0,0.0,0.0,0.0,0.0,0.0,-0.6338,-0.6338,-0.6338,-0.6271,-0.6295,-0.4224,-0.2111,0.0,0.0,0.0,0.0,0.0,0.0,0.0,0.0,0.0,0.0,0.0,0.0,0.0,0.0,0.0,0.0,0.0,0.0,0.0,0.0,0.0,0.0,0.0,-0.5911,-0.7094,-0.7078,-0.7078,-0.7084,-0.7094,-0.7104,-0.648,-0.3504,-0.4867,-0.6424,0.0,0.0,0.0,0.0,0.0,0.0,0.0,0.0,0.0,0.0,0.0,0.0,0.0,0.0,0.0,0.0,0.0,0.0,0.0,0.0,0.0,0.0,0.0,0.0,0.0,0.0,0.0,0.0,0.0,0.0,0.0,0.0,0.0,0.0,0.0,0.0,0.0,0.0,0.0,0.0,0.0,0.0,0.0,0.0,0.0,0.0,0.0,0.0,0.0,0.0,0.0,0.0,0.0,0.0,0.0,0.0,0.0,0.0,0.0,0.0,0.0,0.0,0.0,0.0,0.0,0.0,0.0,0.0,0.0,0.0,0.0,0.0,0.0,0.0,-0.6338,-0.6338,-0.6338,-0.6338,-0.6271,-0.6295,-0.4224,-0.2111,0.0,0.0,0.0,0.0,0.0,0.0,0.0,0.0,0.0,0.0,0.0,0.0,0.0,0.0,0.0,0.0,0.0,0.0,0.0,0.0,0.0,0.0,0.0,-0.3575,-0.5015,-0.573,-0.6545,-0.7104,-0.7111,-0.7125,-0.6042,-0.1257,-0.234,-0.4059,0.0,0.0,0.0,0.0,0.0,0.0,0.0,0.0,0.0,0.0,0.0,0.0,0.0,0.0,0.0,0.0,0.0,0.0,0.0,0.0,0.0,0.0,0.0,0.0,0.0,0.0,0.0,0.0,0.0,0.0,0.0,0.0,0.0,0.0,0.0,0.0,0.0,0.0,0.0,0.0,0.0,0.0,0.0,0.0,0.0,0.0,0.0,0.0,0.0,0.0,0.0,0.0,0.0,0.0,0.0,0.0,0.0,0.0,0.0,0.0,0.0,0.0,0.0,0.0,0.0,0.0,0.0,0.0,0.0,0.0,0.0,0.0,0.0,-0.6338,-0.6338,-0.6338,-0.6338,-0.6338,-0.6271,-0.6295,-0.4146,-0.2033,0.0,0.0,0.0,0.0,0.0,0.0,0.0,0.0,0.0,0.0,0.0,0.0,0.0,0.0,0.0,0.0,0.0,0.0,0.0,0.0,0.0,0.0,0.0,0.0,-0.0447,-0.2856,-0.5191,-0.7015,-0.7128,-0.7045,-0.6039,-0.1257,0.0,0.0,0.0,0.0,0.0,0.0,0.0,0.0,0.0,0.0,0.0,0.0,0.0,0.0,0.0,0.0,0.0,0.0,0.0,0.0,0.0,0.0,0.0,0.0,0.0,0.0,0.0,0.0,0.0,0.0,0.0,0.0,0.0,0.0,0.0,0.0,0.0,0.0,0.0,0.0,0.0,0.0,0.0,0.0,0.0,0.0,0.0,0.0,0.0,0.0,0.0,0.0,0.0,0.0,0.0,0.0,0.0,0.0,0.0,0.0,0.0,0.0,0.0,0.0,0.0,0.0,0.0,0.0,0.0,0.0,0.0,0.0,0.0,0.0,0.0,-0.6338,-0.6338,-0.6338,-0.6338,-0.6338,-0.6268,-0.6285,-0.2737,-0.0627,0.0,0.0,0.0,0.0,0.0,0.0,0.0,0.0,0.0,0.0,0.0,0.0,0.0,0.0,0.0,0.0,0.0,0.0,0.0,0.0,0.0,0.0,0.0,0.0,0.0,-0.0805,-0.1522,-0.2782,-0.6129,-0.477,-0.1797,-0.0359,0.0,0.0,0.0,0.0,0.0,0.0,0.0,0.0,0.0,0.0,0.0,0.0,0.0,0.0,0.0,0.0,0.0,0.0,0.0,0.0,0.0,0.0,0.0,0.0,0.0,0.0,0.0,0.0,0.0,0.0,0.0,0.0,0.0,0.0,0.0,0.0,0.0,0.0,0.0,0.0,0.0,0.0,0.0,0.0,0.0,0.0,0.0,0.0,0.0,0.0,0.0,0.0,0.0,0.0,0.0,0.0,0.0,0.0,0.0,0.0,0.0,0.0,0.0,0.0,0.0,0.0,0.0,-0.9965,0.0,0.0,0.0,0.0,0.0,0.0,0.0,0.0,0.0,-0.6338,-0.6338,-0.6338,-0.6268,-0.6285,-0.219,0.0,0.0,0.0,0.0,0.0,0.0,0.0,0.0,0.0,0.0,0.009,0.1976,0.2785,0.2695,0.0718,0.0,0.0,0.0,0.0,0.0,0.0,0.0,0.0,0.0,0.0,0.0,0.0,0.0,-0.0539,-0.3416,-0.2247,0.0,0.0,0.0,0.0,0.0,0.0,0.0,0.0,0.0,0.0,0.0,0.0,0.0,0.0,0.0,0.0,0.0,0.0,0.0,0.0,0.0,0.0,0.0,0.0,0.0,0.0,0.0,0.0,0.0,0.0,0.0,0.0,0.0,0.0,0.0,0.0,0.0,0.0,0.0,0.0,0.0,0.0,0.0,0.0,0.0,0.0,0.0,0.0,0.0,0.0,0.0,0.0,0.0,0.0,0.0,0.0,0.0,0.0,0.0,0.0,0.0,-1.2305,-1.2305,0.0,0.0,0.0,0.0,0.0,0.0,-1.1391,-1.0415,0.0,0.0,0.0,0.0,0.0,0.0,0.0,-0.6338,-0.6338,-0.6338,-0.6338,-0.6271,-0.6295,-0.2348,-0.0157,0.0,0.0,0.0,0.0,0.0,0.0,0.0,0.0,0.027,0.0898,0.5223,0.7135,0.6764,0.2417,0.0536,0.0358,0.0359,0.0,0.0,0.0,0.0,0.0,0.0,0.0,0.0,0.0,0.0,0.0,0.0,0.0,0.0,0.0,0.0,0.0,0.0,0.0,0.0,0.0,0.0,0.0,0.0,0.0,0.0,0.0,0.0,0.0,0.0,0.0,0.0,0.0,0.0,0.0,0.0,0.0,0.0,0.0,0.0,0.0,0.0,0.0,0.0,0.0,0.0,0.0,0.0,0.0,0.0,0.0,0.0,0.0,0.0,0.0,0.0,0.0,0.0,0.0,0.0,0.0,0.0,0.0,0.0,0.0,0.0,0.0,0.0,0.0,0.0,0.0,0.0,0.0,0.0,-1.2305,-1.2305,0.0,0.0,0.0,0.0,0.0,0.0,0.0,0.0,0.0,0.0,0.0,0.0,0.0,0.0,-0.6338,-0.6338,-0.6338,-0.6338,-0.6338,-0.6271,-0.6295,-0.3754,-0.1642,0.0,0.0,0.0,0.0,0.0,0.0,0.0,0.0,0.2066,0.5676,0.6678,0.7125,0.7019,0.6011,0.4472,0.2857,0.2858,0.286,0.0,0.0,0.0,0.0,0.0,0.0,0.0,0.0,0.0,0.0,0.0,0.0,0.0,0.0,0.0,0.0,0.0,0.0,0.0,0.0,0.0,0.0,0.0,0.0,0.0,0.0,0.0,0.0,0.0,0.0,0.0,0.0,0.0,0.0,0.0,0.0,0.0,0.0,0.0,0.0,0.0,0.0,0.0,0.0,0.0,0.0,0.0,0.0,0.0,0.0,0.0,0.0,0.0,0.0,0.0,0.0,0.0,0.0,0.0,0.0,0.0,0.0,0.0,0.0,0.0,0.0,0.0,0.0,0.0,0.0,0.0,0.0,0.0,0.0,0.0,0.0,0.0,0.0,0.0,0.0,0.0,0.0,0.0,0.0,0.0,0.0,0.0,-0.7326,-0.6795,-0.6338,-0.6338,-0.6338,-0.6338,-0.6338,-0.6271,-0.6295,-0.4224,-0.2044,0.0,0.0,0.0,0.0,0.0,0.0,0.0,0.0,0.2606,0.7135,0.7125,0.7111,0.7094,0.7094,0.6364,0.5275,0.528,0.528,0.5102,0.3846,0.0,0.0,0.0,0.0,0.0,0.0,0.0,0.0,0.0,0.0,0.0,0.0,0.0,0.0,0.0,0.0,0.0,0.0,0.0,0.0,0.0,0.0,0.0,0.0,0.0,0.0,0.0,0.0,0.0,0.0,0.0,0.0,0.0,0.0,0.0,0.0,0.0,0.0,0.0,0.0,0.0,0.0,0.0,0.0,0.0,0.0,0.0,0.0,0.0,0.0,0.0,0.0,0.0,0.0,0.0,0.0,0.0,0.0,0.0,0.0,0.0,0.0,0.0,0.0,0.0,0.0,0.0,0.0,0.0,0.0,0.0,0.0,0.0,0.0,0.0,0.0,0.0,0.0,0.0,0.0,0.0,0.0,0.0,0.0,0.0,0.0,0.0,-0.6644,-0.6412,-0.6338,-0.6338,-0.6338,-0.6285,-0.6332,-0.4173,-0.207,0.0,0.0,0.0,0.0,0.0,0.0,0.0,0.0,0.2424,0.649,0.6926,0.7094,0.7081,0.7081,0.7081,0.7084,0.7091,0.7094,0.0,0.7101,0.4567,0.1073,0.0268,0.0,0.0,0.0,0.0,0.0,0.0,0.0,0.0,0.0,0.0,0.0,0.0,0.0,0.0,0.0,0.0,0.0,0.0,0.0,0.0,0.0,0.0,0.0,0.0,0.0,0.0,0.0,0.0,0.0,0.0,0.0,0.0,0.0,0.0,0.0,0.0,0.0,0.0,0.0,0.0,0.0,0.0,0.0,0.0,0.0,0.0,0.0,0.0,0.0,0.0,0.0,0.0,0.0,0.0,0.0,0.0,0.0,0.0,0.0,0.0,0.0,0.0,0.0,0.0,0.0,0.0,0.0,0.0,0.0,0.0,0.0,0.0,0.0,0.0,0.0,0.0,-1.2305,-1.2224,0.0,0.0,-1.0708,-1.0409,-0.8836,-0.7706,-0.7629,0.0,0.0,-0.6338,-0.6338,-0.6332,-0.6324,-0.4196,-0.212,0.0,0.0,0.0,0.0,0.0,0.0,0.0,0.0,0.0,0.4202,0.6281,0.7084,0.7058,0.7058,0.7068,0.7084,0.7064,0.7071,0.0,0.0,0.6646,0.556,0.1435,0.0,0.0,0.0,0.0,0.0,0.0,0.0,0.0,0.0,0.0,0.0,0.0,0.0,0.0,0.0,0.0,0.0,0.0,0.0,0.0,0.0,0.0,0.0,0.0,0.0,0.0,0.0,0.0,0.0,0.0,0.0,0.0,0.0,0.0,0.0,0.0,0.0,0.0,0.0,0.0,0.0,0.0,0.0,0.0,0.0,0.0,0.0,0.0,0.0,0.0,0.0,0.0,0.0,0.0,0.0,0.0,0.0,0.0,0.0,0.0,0.0,0.0,0.0,0.0,0.0,0.0,0.0,0.0,0.0,0.0,0.0,0.0,0.0,0.0,0.0,0.0,0.0,-1.2305,0.0,-1.1922,-1.1168,-1.0045,-0.9249,-0.8286,-0.7293,-0.6746,-0.6508,-0.6508,-0.6508,-0.6468,-0.6312,-0.4216,-0.2088,0.0,0.0,0.0,0.0,0.0,0.0,0.0,0.0,0.0,0.0,0.0,0.0,0.7139,0.7139,0.7058,0.7064,0.0,0.0,0.0,0.0,0.0,0.0,0.0,0.0,0.0,0.0,0.0,0.0,0.0,0.0,0.0,0.0,0.0,0.0,0.0,0.0,0.0,0.0,0.0,0.0,0.0,0.0,0.0,0.0,0.0,0.0,0.0,0.0,0.0,0.0,0.0,0.0,0.0,0.0,0.0,0.0,0.0,0.0,0.0,0.0,0.0,0.0,0.0,0.0,0.0,0.0,0.0,0.0,0.0,0.0,0.0,0.0,0.0,0.0,0.0,0.0,0.0,0.0,0.0,0.0,0.0,0.0,0.0,0.0,0.0,0.0,0.0,0.0,0.0,0.0,0.0,0.0,0.0,0.0,0.0,0.0,0.0,0.0,0.0,0.0,0.0,0.0,0.0,0.0,0.0,-0.9418,-0.8497,-0.6774,-0.6702,-0.6702,-0.6702,-0.6702,-0.6566,-0.6376,-0.4231,0.0,0.0,0.0,0.0,0.0,0.0,0.0,0.0,0.4952,0.0,0.0,0.0,0.0,0.0,0.0,0.7058,0.7064,0.0,0.0,0.0,0.0,0.0,0.0,0.0,0.0,0.0,0.0,0.0538,0.0,0.0,0.0,0.0,0.0,0.0,0.0,0.0,0.0,0.0,0.0,0.0,0.0,0.0,0.0,0.0,0.0,0.0,0.0,0.0,0.0,0.0,0.0,0.0,0.0,0.0,0.0,0.0,0.0,0.0,0.0,0.0,0.0,0.0,0.0,0.0,0.0,0.0,0.0,0.0,0.0,0.0,0.0,0.0,0.0,0.0,0.0,0.0,0.0,0.0,0.0,0.0,0.0,0.0,0.0,0.0,0.0,0.0,0.0,0.0,0.0,0.0,0.0,0.0,0.0,0.0,0.0,0.0,0.0,0.0,0.0,0.0,0.0,0.0,0.0,-1.155,-1.0999,-1.0927,-0.9322,-0.7831,-0.6781,-0.6702,-0.6702,-0.6702,-0.6702,0.0,-0.6701,-0.4329,0.0,0.0,0.0,0.0,0.0,0.0,0.0,0.018,0.4952,0.7032,0.692,0.0,0.0,0.0,0.0,0.7071,0.7094,0.0,0.0,0.0,0.0,0.0,0.0,0.0,0.0,0.0,0.0,0.1876,0.0,0.0,0.0,0.0,0.0,0.0,0.0,0.0,0.0,0.0,0.0,0.0,0.0,0.0,0.0,0.0,0.0,0.0,0.0,0.0,0.0,0.0,0.0,0.0,0.0,0.0,0.0,0.0,0.0,0.0,0.0,0.0,0.0,0.0,0.0,0.0,0.0,0.0,0.0,0.0,0.0,0.0,0.0,0.0,0.0,0.0,0.0,0.0,0.0,0.0,0.0,0.0,0.0,0.0,0.0,0.0,0.0,0.0,0.0,0.0,0.0,0.0,0.0,0.0,0.0,0.0,0.0,0.0,0.0,0.0,0.0,0.0,0.0,0.0,0.0,-1.1349,-1.0789,-0.9346,-0.8073,-0.7218,-0.6976,-0.6983,-0.6983,-0.6983,-0.6983,-0.6937,-0.6936,0.0,0.0,0.0,0.0,0.0,0.0,0.0,0.0,0.009,0.1792,0.4212,0.7101,0.7098,0.0,0.0,0.598,0.6251,0.7068,0.0,0.0,0.0,0.0,0.0,0.0,0.0,0.0,0.0,0.0,0.0,0.4295,0.2768,0.0,0.0,0.0,0.0,0.0,0.0,0.0,0.0,0.0,0.0,0.0,0.0,0.0,0.0,0.0,0.0,0.0,0.0,0.0,0.0,0.0,0.0,0.0,0.0,0.0,0.0,0.0,0.0,0.0,0.0,0.0,0.0,0.0,0.0,0.0,0.0,0.0,0.0,0.0,0.0,0.0,0.0,0.0,0.0,0.0,0.0,0.0,0.0,0.0,0.0,0.0,0.0,0.0,0.0,0.0,0.0,0.0,0.0,0.0,0.0,0.0,0.0,0.0,0.0,0.0,0.0,0.0,0.0,0.0,0.0,0.0,0.0,0.0,0.0,-0.9761,-0.801,-0.7279,-0.7041,-0.7136,-0.7139,-0.7143,-0.7064,-0.7064,-0.7078,-0.7111,0.0,0.0,0.0,0.0,0.0,0.0,0.0,0.0,0.009,0.1703,0.3223,0.0,0.0,0.0,0.6979,0.0,0.6166,0.7061,0.0,0.0,0.0,0.0,0.0,0.0,0.0,0.0,0.0,0.0,0.0,0.0,0.0,0.0,0.0,0.0,0.0,0.0,0.0,0.0,0.0,0.0,0.0,0.0,0.0,0.0,0.0,0.0,0.0,0.0,0.0,0.0,0.0,0.0,0.0,0.0,0.0,0.0,0.0,0.0,0.0,0.0,0.0,0.0,0.0,0.0,0.0,0.0,0.0,0.0,0.0,0.0,0.0,0.0,0.0,0.0,0.0,0.0,0.0,0.0,0.0,0.0,0.0,0.0,0.0,0.0,0.0,0.0,0.0,0.0,0.0,0.0,0.0,0.0,0.0,0.0,0.0,0.0,0.0,0.0,0.0,0.0,0.0,0.0,0.0,0.0,0.0,0.0,-0.7214,-0.7139,-0.7139,-0.7139,-0.7139,-0.7061,-0.7084,-0.7084,-0.7101,-0.7135,0.0,0.0,0.0,0.0,0.0,0.0,0.0,0.0,0.0,0.486,0.4491,0.0537,0.0,0.691,0.7009,0.0,0.7084,0.7081,0.0,0.0,0.0,0.7139,0.7139,0.0,0.0,0.0,0.0,0.0,0.0,0.0,0.0,0.0,0.0,0.0,0.0,0.0,0.0,0.0,0.0,0.0,0.0,0.0,0.0,0.0,0.0,0.0,0.0,0.0,0.0,0.0,0.0,0.0,0.0,0.0,0.0,0.0,0.0,0.0,0.0,0.0,0.0,0.0,0.0,0.0,0.0,0.0,0.0,0.0,0.0,0.0,0.0,0.0,0.0,0.0,0.0,0.0,0.0,0.0,0.0,0.0,0.0,0.0,0.0,0.0,0.0,0.0,0.0,0.0,0.0,0.0,0.0,0.0,0.0,0.0,0.0,0.0,0.0,-1.3073,0.0,0.0,0.0,0.0,0.0,0.0,0.0,-0.7355,-0.7136,-0.7139,-0.7139,-0.7139,-0.7139,-0.7061,-0.7084,-0.7084,-0.7101,-0.7135,0.0,0.0,0.0,0.0,0.0,0.0,0.0,0.0,0.0,0.3224,0.4757,0.4959,0.2865,0.0,0.0,0.664,0.7084,0.0,0.0,0.0,0.0,0.0,0.7139,0.0,0.0,0.7139,0.7139,0.0,0.0,0.0,0.0,0.0,0.0,0.6269,0.0,0.0,0.0,0.0,0.0,0.0,0.7094,0.0,0.0,0.0,0.0,0.0,0.0,0.0,0.0,0.0,0.0,0.0,0.0,0.0,0.0,0.0,0.0,0.0,0.0,0.0,0.0,0.0,0.0,0.0,0.0,0.0,0.0,0.0,0.0,0.0,0.0,0.0,0.0,0.0,0.0,0.0,0.0,0.0,0.0,0.0,0.0,0.0,0.0,0.0,0.0,0.0,0.0,0.0,0.0,0.0,0.0,0.0,0.0,-1.3353,-1.3233,0.0,-1.251,-1.2624,-1.1647,0.0,0.0,0.0,0.0,0.0,0.0,-0.7139,-0.7139,-0.7139,-0.7143,-0.7064,-0.7064,-0.7078,-0.7104,-0.7108,-0.6204,-0.4137,0.0,0.0,0.0,0.0,0.0,0.0,0.0,0.0,0.0,0.0,0.0,0.0,0.0,0.0,0.0,0.6367,0.0,0.0,0.7139,0.7139,0.0,0.0,0.0,0.7139,0.7139,0.7139,0.0,0.0,0.0,0.0,0.0,0.0,0.0,0.0,0.0,0.0,0.0,0.0,0.0,0.7088,0.7091,0.6729,0.0,0.0,0.0,0.0,0.0,0.0,0.0,0.0,0.0,0.0,0.0,0.0,0.0,0.0,0.0,0.0,0.0,0.0,0.0,0.0,0.0,0.0,0.0,0.0,0.0,0.0,0.0,0.0,0.0,0.0,0.0,0.0,0.0,0.0,0.0,0.0,0.0,0.0,0.0,0.0,0.0,0.0,0.0,0.0,0.0,0.0,0.0,0.0,0.0,0.0,0.0,-1.3356,-1.2939,-1.2067,-1.1479,-1.1704,-1.082,-1.0139,0.0,0.0,0.0,0.0,0.0,0.0,0.0,-0.7143,-0.7064,-0.7084,-0.6815,-0.6828,-0.7045,-0.7135,-0.486,-0.009,0.0,0.0,0.0,0.0,0.0,0.0,0.0,0.0,0.0,0.467,0.5124,0.0,0.0,0.0,0.4198,0.6278,0.7081,0.0,0.0,0.7139,0.0,0.7139,0.7139,0.7139,0.7139,0.7139,0.0,0.0,0.0,0.0,0.0,0.7139,0.0,0.0,0.0,0.0,0.0,0.0,0.0,0.7084,0.7084,0.7084,0.0,0.0,0.0,0.0,0.0,0.0,0.0,0.0,0.0,0.0,0.0,0.0,0.0,0.0,0.0,0.0,0.0,0.0,0.0,0.0,0.0,0.0,0.0,0.0,0.0,0.0,0.0,0.0,0.0,0.0,0.0,0.0,0.0,0.0,0.0,0.0,0.0,0.0,0.0,0.0,0.0,0.0,0.0,0.0,0.0,0.0,0.0,0.0,0.0,-1.2783,-1.2511,-1.224,-1.1261,-1.091,-1.075,-1.0877,-0.9861,0.0,0.0,0.0,0.0,0.0,0.0,0.0,0.0,-0.7068,-0.7081,-0.7084,-0.5364,-0.5107,-0.7042,-0.7135,-0.486,-0.009,0.0,0.0,0.0,0.0,0.0,0.0,0.0,0.0,0.0,0.4935,0.6671,0.0,0.0,0.0,0.6462,0.691,0.0,0.7139,0.7139,0.7139,0.7139,0.7139,0.7139,0.7139,0.0,0.7139,0.7139,0.0,0.0,0.0,0.0,0.0,0.0,0.0,0.0,0.0,0.0,0.0,0.0,0.7084,0.7084,0.7084,0.0,0.0,0.0,0.0,0.0,0.0,0.0,0.0,0.0,0.0,0.0,0.0,0.0,0.0,0.0,0.0,0.0,0.0,0.0,0.0,0.0,0.0,0.0,0.0,0.0,0.0,0.0,0.0,0.0,0.0,0.0,0.0,0.0,0.0,0.0,0.0,0.0,0.0,0.0,0.0,0.0,0.0,0.0,0.0,0.0,0.0,0.0,0.0,0.0,-1.1558,-1.1466,-1.1295,-1.0697,-1.0096,-0.9753,-0.9753,-0.8798,0.0,0.0,0.0,0.0,0.0,0.0,0.0,0.0,0.0,-0.7091,-0.7108,-0.6017,-0.4848,-0.3595,-0.3595,-0.2426,-0.009,0.2335,0.2335,0.0,0.0,0.0,0.0,0.0,0.0,0.0,0.0,0.0,0.0,0.0,0.7098,0.7101,0.7091,0.0,0.7139,0.7139,0.7139,0.7139,0.7139,0.7139,0.7139,0.7139,0.7139,0.0,0.0,0.7139,0.7139,0.0,0.7139,0.7139,0.0,0.0,0.0,0.7064,0.0,0.0,0.0,0.7068,0.7068,0.0,0.0,0.0,0.0,0.0,0.0,0.0,0.0,0.0,0.0,0.0,0.0,0.0,0.0,0.0,0.0,0.0,0.0,0.0,0.0,0.0,0.0,0.0,0.0,0.0,0.0,0.0,0.0,0.0,0.0,0.0,0.0,0.0,0.0,0.0,0.0,0.0,0.0,0.0,0.0,0.0,0.0,0.0,0.0,0.0,0.0,0.0,0.0,0.0,-1.0269,-1.0269,-1.0178,-1.0005,-0.9144,-0.854,-0.854,-0.7753,0.0,0.0,0.0,0.0,0.0,0.0,0.0,0.0,0.0,0.0,0.0,0.0,-0.4047,-0.018,0.0,0.0449,0.1348,0.5133,0.522,0.1346,0.0,0.0,0.0,0.0,0.0,0.0,0.0,0.0,0.0,0.0,0.0,0.7098,0.0,0.7068,0.7139,0.7139,0.7139,0.7139,0.7139,0.7139,0.7139,0.7139,0.0,0.7139,0.7139,0.7139,0.0,0.0,0.0,0.0,0.0,0.0,0.0,0.0,0.0,0.7139,0.0,0.0,0.0,0.0,0.0,0.0,0.0,0.0,0.0,0.0,0.0,0.0,0.0,0.0,0.0,0.0,0.0,0.0,0.0,0.0,0.0,0.0,0.0,0.0,0.0,0.0,0.0,0.0,0.0,0.0,0.0,0.0,0.0,0.0,0.0,0.0,0.0,0.0,0.0,0.0,0.0,0.0,0.0,0.0,0.0,0.0,0.0,0.0,0.0,0.0,0.0,0.0,-0.8886,-0.9061,-0.8711,-0.7665,-0.7401,-0.7316,-0.7316,-0.7228,0.0,0.0,0.0,0.0,0.0,0.0,0.0,0.0,0.0,0.0,-0.7135,0.0,0.0,-0.0,0.0,0.1976,0.6224,0.6863,0.6853,0.6287,0.0,0.0,0.0,0.0,0.0,0.0,0.6192,0.0,0.0,0.0,0.7084,0.0,0.7064,0.7143,0.0,0.7139,0.7139,0.7139,0.7139,0.7139,0.7139,0.0,0.7139,0.7139,0.0,0.7139,0.0,0.0,0.0,0.0,0.0,0.0,0.0,0.0,0.7139,0.0,0.0,0.0,0.0,0.0,0.0,0.0,0.0,0.0,0.0,0.0,0.0,0.0,0.0,0.0,0.0,0.0,0.0,0.0,0.0,0.0,0.0,0.0,0.0,0.0,0.0,0.0,0.0,0.0,0.0,0.0,0.0,0.0,0.0,0.0,0.0,0.0,0.0,0.0,0.0,0.0,0.0,0.0,0.0,0.0,0.0,0.0,0.0,0.0,0.0,0.0,0.0,0.0,-0.7753,-0.7841,-0.7665,-0.7228,-0.7139,-0.7139,-0.7139,-0.7139,0.0,0.0,0.0,0.0,0.0,0.0,0.0,0.0,0.0,-0.595,0.0,0.0,0.0,0.0,0.2606,0.5041,0.7045,0.7118,0.7104,0.7101,0.608,0.0,0.0,0.0,0.0,0.0,0.6269,0.0,0.7101,0.0,0.0,0.0,0.0,0.0,0.0,0.7139,0.7139,0.7139,0.7139,0.7139,0.7139,0.0,0.7139,0.0,0.0,0.0,0.0,0.0,0.0,0.0,0.0,0.0,0.0,0.0,0.0,0.0,0.0,0.0,0.7139,0.0,0.0,0.0,0.0,0.0,0.0,0.0,0.678,0.0,0.0,0.0,0.0,0.0,0.0,0.0,0.0,0.0,0.0,0.0,0.0,0.0,0.0,0.0,0.0,0.0,0.0,0.0,0.0,0.0,0.0,0.0,0.0,0.0,0.0,0.0,0.0,0.0,0.0,0.0,0.0,0.0,0.0,0.0,0.0,0.0,0.0,0.0,0.0,0.0,-0.7139,0.0,0.0,0.0,0.0,-0.7139,-0.7139,0.0,0.0,0.0,0.0,0.0,-0.7098,-0.4385,0.0,0.0,0.0,-0.3687,0.0,0.0,0.0539,0.1887,0.4047,0.0,0.0,0.7101,0.7088,0.7088,0.7064,0.0,0.0,0.0,0.0,0.0,0.0,0.7088,0.7088,0.0,0.0,0.7074,0.7058,0.7139,0.7139,0.7139,0.7139,0.7139,0.7139,0.7139,0.7139,0.7139,0.7139,0.0,0.7139,0.0,0.0,0.0,0.0,0.0,0.7139,0.0,0.0,0.0,0.0,0.0,0.0,0.0,0.0,0.0,0.0,0.0,0.0,0.0,0.0,0.0,0.0,0.7089,0.0,0.0,0.0,0.0,0.0,0.0,0.0,0.0,0.0,0.0,0.0,0.0,0.0,0.0,0.0,0.0,0.0,0.0,0.0,0.0,0.0,0.0,0.0,0.0,0.0,0.0,0.0,0.0,0.0,0.0,0.0,0.0,0.0,0.0,0.0,0.0,0.0,0.0,0.0,0.0,-0.7139,-0.7139,0.0,0.0,0.0,0.0,0.0,0.0,0.0,0.0,0.0,0.0,0.0,0.0,0.0,0.0,0.0,-0.018,-0.0,0.0,0.2066,0.0,0.0,0.242,0.0,0.0,0.7084,0.7143,0.7139,0.0,0.0,0.0,0.0,0.0,0.0,0.7074,0.7143,0.7139,0.7139,0.7143,0.7139,0.7139,0.7139,0.0,0.7139,0.7139,0.7139,0.0,0.0,0.7139,0.7139,0.0,0.0,0.0,0.0,0.0,0.0,0.0,0.0,0.0,0.0,0.7139,0.0,0.0,0.0,0.0,0.7139,0.0,0.0,0.0,0.0,0.0,0.7061,0.7088,0.6015,0.0,0.0,0.0,0.0,0.0,0.0,0.0,0.0,0.0,0.0,0.0,0.0,0.0,0.0,0.0,0.0,0.0,0.0,0.0,0.0,0.0,0.0,0.0,0.0,0.0,0.0,0.0,0.0,0.0,0.0,0.0,0.0,0.0,0.0,0.0,0.0,0.0,0.0,0.0,0.0,0.0,-0.7139,0.0,0.0,0.0,0.0,0.0,0.0,-0.7074,0.0,0.0,0.0,0.0,0.0,0.0,0.0,0.0,0.0,0.0,0.0,0.0,0.0,0.0,0.0,0.5471,0.0,0.0,0.0,0.0,0.0,0.0,0.0,0.0,0.0,0.0,0.0,0.7058,0.0,0.0,0.0,0.0,0.0,0.7139,0.7139,0.0,0.0,0.7139,0.7139,0.7139,0.0,0.7139,0.7139,0.7139,0.7139,0.7139,0.7139,0.7139,0.7139,0.0,0.0,0.0,0.7139,0.7139,0.0,0.0,0.0,0.0,0.0,0.0,0.0,0.0,0.0,0.0,0.7183,0.741,0.7018,0.6979,0.0,0.0,0.0,0.0,0.0,0.0,0.0,0.0,0.0,0.0,0.0,0.0,0.0,0.0,0.0,0.0,0.0,0.0,0.0,0.0,0.0,0.0,0.0,0.0,0.0,0.0,0.0,0.0,0.0,0.0,0.0,0.0,0.0,0.0,0.0,0.0,0.0,0.0,0.0,0.0,-0.7139,0.0,0.0,0.0,0.0,0.0,0.0,0.0,0.0,0.0,-0.7128,0.0,-0.477,0.0,0.0,0.0,0.0,0.0,0.0,0.1617,0.0,0.5752,0.6653,0.0,0.0,0.0,0.0,0.0,0.0,0.7139,0.0,0.0,0.0,0.0,0.0,0.0,0.0,0.0,0.7139,0.0,0.0,0.7139,0.0,0.0,0.7139,0.7139,0.0,0.7139,0.7139,0.7139,0.7139,0.7139,0.7139,0.7139,0.7139,0.7139,0.7139,0.7139,0.7139,0.7139,0.0,0.7207,0.7221,0.0,0.7221,0.0,0.0,0.0,0.0,0.0,0.0,0.0,0.6274,0.7366,0.751,0.7657,0.0,0.6509,0.0,0.0,0.0,0.0,0.0,0.0,0.0,0.0,0.0,0.0,0.0,0.0,0.0,0.0,0.0,0.0,0.0,0.0,0.0,0.0,0.0,0.0,0.0,0.0,0.0,0.0,0.0,0.0,0.0,0.0,0.0,0.0,0.0,0.0,0.0,0.0,0.0,0.0,-0.7143,-0.7143,0.0,0.0,-0.7143,0.0,0.0,0.0,-0.7009,0.0,-0.677,-0.5041,-0.0449,0.0,0.0,0.0,0.0,0.0,0.0359,0.4589,0.0,0.0,0.5916,0.7084,0.7139,0.0,0.0,0.0,0.0,0.0,0.0,0.0,0.0,0.0,0.7139,0.0,0.7139,0.7139,0.7139,0.7139,0.7139,0.7139,0.7139,0.7139,0.7139,0.7139,0.7139,0.7139,0.7139,0.7139,0.7139,0.7139,0.7139,0.7146,0.7149,0.7149,0.7156,0.7163,0.7163,0.7163,0.7197,0.7346,0.0,0.0,0.0,0.0,0.7383,0.0,0.0,0.0,0.0,0.0,0.0,0.7208,0.7654,0.7808,0.0,0.0,0.0,0.0,0.0,0.0,0.0,0.0,0.0,0.0,0.0,0.0,0.0,0.0,0.0,0.0,0.0,0.0,0.0,0.0,0.0,0.0,0.0,0.0,0.0,0.0,0.0,0.0,0.0,0.0,0.0,0.0,0.0,0.0,0.0,0.0,0.0,0.0,0.0,0.0,-0.7088,-0.7081,-0.7078,0.0,-0.7081,-0.7088,0.0,0.0,0.0,0.0,-0.1797,-0.1348,-0.009,0.0,0.0,0.0,0.0,0.0,0.0,0.0,0.0,0.6269,0.6815,0.7078,0.7139,0.7058,0.0,0.7139,0.0,0.0,0.7139,0.0,0.0,0.0,0.0,0.0,0.7139,0.7139,0.7139,0.7139,0.7139,0.7139,0.0,0.0,0.7139,0.7139,0.7139,0.7139,0.7139,0.7139,0.7139,0.7139,0.7139,0.7217,0.7312,0.7312,0.7394,0.7482,0.7482,0.7482,0.7492,0.7533,0.7543,0.7543,0.0,0.0,0.0,0.0,0.0,0.0,0.0,0.0,0.0,0.0,0.7828,0.7928,0.0,0.0,0.0,0.0,0.0,0.0,0.0,0.0,0.0,0.0,0.0,0.0,0.0,0.0,0.0,0.0,0.0,0.0,0.0,0.0,0.0,0.0,0.0,0.0,0.0,0.0,0.0,0.0,0.0,0.0,0.0,0.0,0.0,0.0,0.0,0.0,0.0,0.0,0.0,0.0,-0.5552,0.0,0.0,-0.693,0.0,0.0,-0.7131,0.0,0.0,-0.0629,0.0,0.0,0.0,0.0,0.0809,0.2966,0.3145,0.0,0.0,0.0,0.0,0.7084,0.7074,0.7064,0.7139,0.7139,0.0,0.7139,0.0,0.0,0.7139,0.0,0.0,0.0,0.0,0.7139,0.0,0.7139,0.7139,0.7139,0.7139,0.0,0.0,0.7139,0.7139,0.7139,0.7139,0.7139,0.7139,0.7139,0.7139,0.7153,0.7221,0.7302,0.7383,0.7451,0.7533,0.76,0.76,0.76,0.7614,0.7678,0.7692,0.7692,0.7692,0.7692,0.7692,0.0,0.0,0.0,0.0,0.0,0.0,0.0,0.0,0.0,0.0,0.0,0.0,0.0,0.0,0.0,0.0,0.0,0.0,0.0,0.0,0.0,0.0,0.0,0.0,0.0,0.0,0.0,0.0,0.0,0.0,0.0,0.0,0.0,0.0,0.0,0.0,0.0,0.0,0.0,0.0,0.0,0.0,0.0,0.0,0.0,0.0,0.0,0.0,0.0,-0.3126,0.0,0.0,0.0,0.0,0.0,0.0,-0.6132,0.0,-0.0539,0.0,0.0,0.0,0.0539,0.2606,0.677,0.0,0.6207,0.4198,0.5997,0.7084,0.7081,0.7061,0.7139,0.7139,0.7139,0.0,0.0,0.0,0.0,0.0,0.0,0.0,0.0,0.0,0.0,0.0,0.7139,0.7139,0.7139,0.7139,0.7139,0.7139,0.7139,0.7139,0.7143,0.7163,0.7156,0.7143,0.7163,0.717,0.7197,0.7353,0.7414,0.7455,0.7587,0.7641,0.7658,0.7658,0.7658,0.7689,0.7811,0.7841,0.7841,0.7841,0.7841,0.7841,0.7841,0.7753,0.775,0.0,0.0,0.0,0.0,0.0,0.0,0.0,0.0,0.0,0.0,0.0,0.0,0.0,0.0,0.0,0.0,0.0,0.0,0.0,0.0,0.0,0.0,0.0,0.0,0.0,0.0,0.0,0.0,0.0,0.0,0.0,0.0,0.0,0.0,0.0,0.0,0.0,0.0,0.0,0.0,0.0,0.0,0.0,0.0,0.0,0.0,0.0,0.0,0.0,0.0,0.0,-0.5768,-0.1887,-0.1257,-0.0988,-0.009,0.0,0.0,0.0,0.3506,0.6224,0.7045,0.7118,0.0,0.0,0.0,0.0,0.7058,0.7143,0.7139,0.7139,0.7139,0.7139,0.0,0.0,0.0,0.0,0.0,0.0,0.0,0.0,0.0,0.7139,0.7139,0.0,0.7139,0.7139,0.7139,0.7139,0.7139,0.7139,0.7156,0.7285,0.7248,0.716,0.7288,0.7329,0.7356,0.7512,0.7641,0.774,0.7767,0.7865,0.7963,0.7963,0.7963,0.797,0.7994,0.7997,0.7997,0.7997,0.7997,0.7997,0.7997,0.798,0.7987,0.7955,0.0,0.0,0.0,0.0,0.0,0.0,0.0,0.0,0.0,0.0,0.0,0.0,0.0,0.0,0.0,0.0,0.0,0.0,0.0,0.0,0.0,0.0,0.0,0.0,0.0,0.0,0.0,0.0,0.0,0.0,0.0,0.0,0.0,0.0,0.0,0.0,0.0,0.0,0.0,0.0,0.0,0.0,0.0,0.0,0.0,0.0,0.0,0.0,0.0,0.0,0.0,0.0,0.3687,0.0,0.0359,0.2156,0.3687,0.3687,0.467,0.5746,0.7019,0.7101,0.7084,0.7068,0.7068,0.7064,0.7139,0.7139,0.0,0.7139,0.7139,0.7139,0.7139,0.0,0.0,0.0,0.0,0.0,0.0,0.0,0.7139,0.0,0.0,0.0,0.7139,0.7139,0.7139,0.7139,0.7139,0.719,0.7272,0.7346,0.7373,0.739,0.7465,0.7489,0.7516,0.7662,0.7756,0.7828,0.7906,0.798,0.8038,0.8038,0.8038,0.8038,0.8038,0.8038,0.8038,0.8038,0.8038,0.8038,0.8038,0.8038,0.8045,0.7969,0.6951,0.0,0.0,0.0,0.0,0.0,0.0,0.0,0.0,0.0,0.0,0.0,0.0,0.0,0.0,0.0,0.0,0.0,0.0,0.0,0.0,0.0,0.0,0.0,0.0,0.0,0.0,0.0,0.0,0.0,0.0,0.0,0.0,0.0,0.0,0.0,0.0,0.0,0.0,0.0,0.0,0.0,0.0,0.0,0.0,0.0,0.1527,0.0,0.0,-0.2334,0.0,0.5213,0.6764,0.5581,0.1345,0.4039,0.6579,0.7039,0.5468,0.5095,0.6903,0.7081,0.7071,0.7143,0.7139,0.7139,0.7139,0.7139,0.7139,0.7139,0.7139,0.7139,0.0,0.0,0.0,0.0,0.0,0.0,0.0,0.0,0.0,0.0,0.0,0.7139,0.7139,0.7139,0.716,0.719,0.719,0.7285,0.7424,0.7455,0.7543,0.7648,0.7682,0.7672,0.7672,0.7814,0.7862,0.7882,0.8004,0.8038,0.8038,0.8038,0.8038,0.8038,0.8038,0.8038,0.8038,0.8038,0.8038,0.8038,0.8038,0.8038,0.8045,0.7962,0.7965,0.0,0.0,0.0,0.0,0.0,0.0,0.0,0.0,0.0,0.0,0.0,0.0,0.0,0.0,0.0,0.0,0.0,0.0,0.0,0.0,0.0,0.0,0.0,0.0,0.0,0.0,0.0,0.0,0.0,0.0,0.0,0.0,0.0,0.0,0.0,0.0,0.0,0.0,0.0,0.0,0.0,0.0,0.0,0.0,0.0,0.0,0.0,0.0,0.0,0.0,0.0,0.5735,0.6192,0.3573,0.3662,0.4741,0.6831,0.691,0.6903,0.7084,0.7068,0.7143,0.7139,0.7139,0.7139,0.7139,0.7139,0.7139,0.7139,0.7139,0.7139,0.0,0.0,0.0,0.0,0.0,0.0,0.0,0.0,0.0,0.0,0.7139,0.7139,0.7139,0.7139,0.7224,0.735,0.735,0.7444,0.7594,0.7723,0.778,0.7814,0.795,0.7906,0.7818,0.797,0.8018,0.8021,0.8035,0.8038,0.8038,0.8038,0.8038,0.8038,0.8038,0.8038,0.8038,0.8038,0.8038,0.8038,0.8038,0.8038,0.8038,0.8041,0.8041,0.8041,0.0,0.0,0.0,0.0,0.0,0.0,0.0,0.0,0.0,0.0,0.0,0.0,0.0,0.0,0.0,0.0,0.0,0.0,0.0,0.0,0.0,0.0,0.0,0.0,0.0,0.0,0.0,0.0,0.0,0.0,0.0,0.0,0.0,0.0,0.0,0.0,0.0,0.0,0.0,0.0,0.0,0.0,0.0,0.0,0.0,0.0,0.0,0.0,0.0,0.0,0.6453,0.6844,0.5995,0.5763,0.6088,0.6999,0.7248,0.7292,0.7292,0.737,0.7417,0.7417,0.7329,0.7278,0.7278,0.719,0.7139,0.7139,0.7139,0.7139,0.0,0.0,0.0,0.0,0.0,0.0,0.0,0.0,0.7139,0.7139,0.7139,0.7139,0.7149,0.7241,0.7316,0.7383,0.7472,0.76,0.7733,0.779,0.7872,0.7957,0.8018,0.7997,0.796,0.8021,0.8038,0.8038,0.8038,0.8038,0.8038,0.8038,0.8038,0.8038,0.8038,0.8038,0.8038,0.8038,0.8038,0.8038,0.8038,0.8038,0.8038,0.8038,0.8038,0.8038,0.0,0.0,0.0,0.0,0.0,0.0,0.0,0.0,0.0,0.0,0.0,0.0,0.0,0.0,0.0,0.0,0.0,0.0,0.0,0.0,0.0,0.0,0.0,0.0,0.0,0.0,0.0,0.0,0.0,0.0,0.0,0.0,0.0,0.0,0.0,0.0,0.0,0.0,0.0,0.0,0.0,0.0,0.0,0.4645,0.0,0.7094,0.0,0.7088,0.7101,0.7138,0.7231,0.7282,0.7421,0.7356,0.7208,0.7208,0.7383,0.7438,0.7438,0.7536,0.76,0.76,0.7499,0.7438,0.7438,0.7333,0.0,0.721,0.7207,0.7187,0.7139,0.7139,0.0,0.0,0.0,0.0,0.0,0.7139,0.7139,0.7143,0.7187,0.7207,0.7221,0.7377,0.7461,0.7512,0.7621,0.775,0.7879,0.7879,0.7946,0.8038,0.8038,0.8038,0.8038,0.8038,0.8038,0.8038,0.8038,0.8038,0.8038,0.8038,0.8038,0.8038,0.8038,0.8038,0.8038,0.8038,0.8038,0.8038,0.8038,0.8038,0.8038,0.8038,0.8038,0.8038,0.8038,0.0,0.0,0.0,0.0,0.0,0.0,0.4174,0.1965,0.0218,0.0,0.0,0.0,0.0,0.0,0.0,0.0,0.0,0.0,0.0,0.0,0.0,0.0,0.0,0.0,0.0,0.0,0.0,0.0,0.0,0.0,0.0,0.0,0.0,0.0,0.0,0.0,0.0,0.0,0.0,0.0,0.0,0.0,0.7084,0.7084,0.7078,0.7058,0.7139,0.719,0.7346,0.737,0.7424,0.7577,0.7597,0.7594,0.7594,0.7597,0.7597,0.7597,0.7597,0.76,0.76,0.7597,0.7597,0.0,0.0,0.7522,0.737,0.7366,0.7292,0.7139,0.0,0.0,0.7139,0.0,0.7139,0.7139,0.7139,0.7139,0.7149,0.7302,0.7366,0.7383,0.7536,0.7682,0.7804,0.7807,0.7902,0.8035,0.8035,0.8038,0.8038,0.8038,0.8038,0.8038,0.8038,0.8038,0.8038,0.8038,0.8038,0.8038,0.8038,0.8038,0.8038,0.8038,0.8038,0.8038,0.8038,0.8038,0.8038,0.8038,0.8038,0.8038,0.8038,0.8038,0.8038,0.8038,0.0,0.0,0.0,0.0,0.0,0.0,0.8693,0.6471,0.0545,0.0,0.0,0.0,0.0,0.0,0.0,0.0,0.0,0.0,0.0,0.0,0.0,0.0,0.0,0.0,0.0,0.0,0.0,0.0,0.0,0.0,0.0,0.0,0.0,0.0,0.0,0.0,0.0,0.0,0.0,0.0,0.0,0.0,0.7064,0.7234,0.7305,0.7299,0.7383,0.7472,0.7519,0.7529,0.758,0.7726,0.7743,0.7784,0.7889,0.7804,0.7743,0.0,0.7838,0.7899,0.0,0.7801,0.7743,0.7743,0.7651,0.7577,0.7529,0.7529,0.7502,0.7455,0.0,0.0,0.0,0.7299,0.7299,0.7302,0.7407,0.7455,0.7458,0.7506,0.7529,0.7539,0.7685,0.777,0.7821,0.7926,0.7997,0.8038,0.8038,0.8038,0.8038,0.8038,0.8109,0.8197,0.8197,0.8126,0.8062,0.8167,0.8197,0.8218,0.8316,0.834,0.834,0.834,0.834,0.834,0.834,0.8265,0.8197,0.8197,0.8113,0.8038,0.8038,0.8038,0.8072,0.818,0.8197,0.0,0.0,0.0,0.0,0.0,0.8811,0.7677,0.0,0.1559,0.0,0.0,0.0,0.0,0.0,0.0,0.0,0.0,0.0,0.0,0.0,0.0,0.0,0.0,0.0,0.0,0.0,0.0,0.0,0.0,0.0,0.0,0.0,0.0,0.0,0.0,0.0,0.0,0.0,0.0,0.0,0.0,0.7312,0.739,0.7458,0.7458,0.7536,0.7617,0.7672,0.7678,0.7733,0.7879,0.7896,0.7933,0.8028,0.7953,0.0,0.7896,0.7984,0.8038,0.8038,0.795,0.7896,0.7896,0.7814,0.774,0.7682,0.0,0.0,0.76,0.76,0.755,0.7458,0.7458,0.7458,0.7461,0.7556,0.76,0.7604,0.7655,0.7678,0.7692,0.7838,0.7896,0.7909,0.8004,0.8038,0.8038,0.8038,0.8075,0.8126,0.8126,0.8225,0.835,0.835,0.8286,0.8225,0.8323,0.835,0.837,0.8459,0.8482,0.8482,0.8482,0.8482,0.8482,0.8482,0.8414,0.835,0.835,0.8272,0.8204,0.8204,0.8204,0.8238,0.8333,0.835,0.8401,0.8547,0.0,0.0,0.0,0.0,0.0,0.0,0.4804,0.2458,0.0,0.0,0.0,0.0,0.0,0.0,0.0,0.0,0.0,0.0,0.0,0.0,0.0,0.0,0.0,0.0,0.0,0.0,0.0,0.0,0.0,0.0,0.0,0.0,0.0,0.0,0.0,0.0,0.0,0.0,0.0,0.76,0.7607,0.0,0.0,0.7624,0.0,0.7807,0.7828,0.7879,0.8021,0.8038,0.8038,0.8038,0.8038,0.8038,0.8038,0.0,0.0,0.0,0.8038,0.8038,0.8038,0.8038,0.7974,0.7831,0.7828,0.7763,0.7631,0.7617,0.7614,0.7614,0.7614,0.7614,0.7614,0.7628,0.7631,0.7638,0.777,0.7828,0.7838,0.798,0.8038,0.8038,0.8038,0.8045,0.8055,0.8055,0.8153,0.8286,0.8286,0.8381,0.8499,0.8499,0.8506,0.8513,0.8503,0.8499,0.8499,0.8509,0.8513,0.8513,0.8513,0.8513,0.8513,0.8513,0.8506,0.8499,0.8499,0.8489,0.8482,0.8482,0.8482,0.8486,0.8496,0.8499,0.855,0.8706,0.0,0.0,0.0,0.0,0.0,0.0,0.888,0.6616,0.0,0.0,0.0,0.0,0.0,0.0,0.0,0.0,0.0,0.0,0.0,0.0,0.0,0.0,0.0,0.0,0.0,0.0,0.0,0.0,0.0,0.0,0.0,0.0,0.0,0.0,0.0,0.0,0.0,0.0,0.0,0.0,0.0,0.7763,0.7763,0.7858,0.7946,0.798,0.7984,0.7997,0.8035,0.8038,0.8038,0.8038,0.8038,0.8038,0.8038,0.8038,0.8038,0.8038,0.8038,0.8038,0.8038,0.8038,0.8021,0.7987,0.7984,0.797,0.7936,0.7818,0.7763,0.7763,0.7763,0.7763,0.7767,0.7882,0.7936,0.7936,0.797,0.7984,0.7987,0.8024,0.8038,0.8038,0.8038,0.8113,0.8214,0.8214,0.8309,0.8431,0.8431,0.853,0.8655,0.8655,0.8737,0.8808,0.8693,0.8655,0.8682,0.8798,0.8828,0.8828,0.8828,0.8828,0.8828,0.8828,0.874,0.8655,0.8655,0.8564,0.8482,0.8482,0.8482,0.852,0.8635,0.8655,0.871,0.8862,0.8882,0.0,0.0,0.8944,0.8947,0.8947,0.8856,0.8298,0.0,0.0,0.0,0.0,0.0,0.0,0.0,0.0,0.0,0.0,0.0,0.0,0.0,0.0,0.0,0.0,0.0,0.0,0.0,0.0,0.0,0.0,0.0,0.0,0.0,0.0,0.0,0.0,0.0,0.0,0.0,0.7801,0.7862,0.7916,0.7916,0.7984,0.8038,0.8038,0.8038,0.8038,0.8038,0.8038,0.8038,0.8038,0.8038,0.8038,0.8038,0.8038,0.8038,0.8038,0.8038,0.8038,0.8038,0.8038,0.8038,0.8038,0.8038,0.8038,0.8038,0.7957,0.7916,0.7916,0.7916,0.7916,0.7919,0.8004,0.8038,0.8038,0.8038,0.8038,0.8038,0.8038,0.8082,0.8143,0.8143,0.8238,0.8367,0.8367,0.8462,0.8584,0.8584,0.8686,0.8815,0.8815,0.8872,0.8923,0.8838,0.8815,0.8832,0.8916,0.894,0.894,0.894,0.894,0.894,0.894,0.8872,0.8815,0.8815,0.875,0.8693,0.8693,0.8693,0.8716,0.8801,0.8815,0.8845,0.8927,0.894,0.0,0.894,0.894,0.894,0.894,0.895,0.885,0.8863,0.5931,0.0,0.0112,0.0,0.0,0.0,0.0,0.0,0.0,0.0,0.0,0.0,0.0,0.0,0.0,0.0,0.0,0.0,0.0,0.0,0.0,0.0,0.0,0.0,0.0,0.0,0.0,0.0,0.0,0.0,0.8038,0.8038,0.8038,0.8038,0.8038,0.8038,0.8038,0.8038,0.8048,0.7969,0.7972,0.7979,0.8002,0.8006,0.8006,0.8006,0.8006,0.7995,0.7972,0.7992,0.8006,0.8006,0.7982,0.7972,0.7972,0.7952,0.8038,0.8038,0.8237,0.8333,0.8333,0.8333,0.8432,0.8528,0.8134,0.8137,0.8336,0.8161,0.8075,0.8075,0.8099,0.8184,0.8303,0.8303,0.8391,0.8516,0.8516,0.8615,0.8747,0.8747,0.8832,0.894,0.894,0.894,0.894,0.894,0.894,0.894,0.894,0.894,0.894,0.894,0.894,0.894,0.894,0.894,0.894,0.894,0.894,0.894,0.894,0.894,0.894,0.894,0.894,0.894,0.894,0.0,0.894,0.894,0.894,0.894,0.894,0.894,0.895,0.886,0.8883,0.6738,0.157,0.0456,0.0,0.0,0.0,0.0,0.0,0.0,0.0,0.0,0.0,0.0,0.0,0.0,0.0,0.0,0.0,0.0,0.0,0.0,0.0,0.0,0.0,0.0,0.0,0.0,0.0,0.0,0.8038,0.8038,0.8038,0.8038,0.8038,0.8038,0.8038,0.8038,0.7982,0.8008,0.8024,0.7965,0.7972,0.7985,0.7985,0.7985,0.7985,0.804,0.8031,0.8027,0.7985,0.7985,0.7981,0.8024,0.8024,0.8006,0.8038,0.8038,0.9118,0.9706,0.9706,0.9706,1.0293,1.1165,0.9019,0.8627,0.9616,0.8679,0.8235,0.8245,0.8367,0.8428,0.8448,0.8448,0.8543,0.8676,0.8676,0.8774,0.8903,0.8903,0.892,0.894,0.894,0.894,0.894,0.894,0.894,0.894,0.894,0.894,0.894,0.894,0.894,0.894,0.894,0.894,0.894,0.894,0.894,0.894,0.894,0.894,0.894,0.894,0.894,0.894,0.894,0.0,0.894,0.894,0.894,0.894,0.894,0.894,0.895,0.886,0.8883,0.8495,0.7578,0.2754,0.0,0.0,0.0,0.0,0.0,0.0,0.0,0.0,0.0,0.0,0.0,0.0,0.0,0.0,0.0,0.0,0.0,0.0,0.0,0.0,0.0,0.0,0.0,0.0,0.0,0.0,0.8038,0.8038,0.8038,0.8038,0.8006,0.7958,0.7958,0.8018,0.7988,0.7949,0.8277,0.8515,0.8476,0.8482,0.8482,0.8482,0.8448,0.8468,0.8509,0.8381,0.8266,0.8266,0.831,0.8153,0.8011,0.8014,0.8589,0.9746,1.0348,1.0965,1.1501,1.1501,1.14,1.1194,0.9989,0.9388,0.9191,0.866,0.8384,0.8391,0.8455,0.853,0.8604,0.8604,0.8699,0.8832,0.8832,0.8879,0.894,0.894,0.894,0.894,0.894,0.894,0.894,0.894,0.894,0.894,0.894,0.894,0.894,0.894,0.894,0.894,0.894,0.894,0.894,0.894,0.894,0.894,0.894,0.894,0.894,0.894,0.894,0.0,0.0,0.894,0.894,0.894,0.894,0.894,0.894,0.895,0.885,0.8863,0.8848,0.894,0.8899,0.3273,0.0,0.0,0.0,0.0,0.0,0.0,0.0,0.0,0.0,0.0,0.0,0.0,0.0,0.0,0.0,0.0,0.0,0.0,0.0,0.0,0.0,0.0,0.0,0.0,0.0,0.0,0.7982,0.7992,0.8002,0.8032,0.8028,0.8004,0.8213,0.8196,0.8171,0.8203,0.8642,0.8878,0.8913,0.8917,0.8917,0.8917,0.8918,0.8876,0.8876,0.8655,0.8587,0.8587,0.8554,0.914,1.0236,0.9534,0.9828,1.1241,1.1223,1.1644,1.2196,1.2196,1.1779,1.1057,1.0439,0.9719,0.8898,0.8622,0.8533,0.8537,0.8574,0.8659,0.8764,0.8764,0.8835,0.894,0.894,0.894,0.894,0.894,0.894,0.894,0.894,0.894,0.894,0.894,0.894,0.894,0.894,0.894,0.894,0.894,0.894,0.894,0.894,0.894,0.894,0.894,0.894,0.894,0.894,0.894,0.894,0.894,0.0,0.0,0.0,0.894,0.894,0.894,0.894,0.894,0.894,0.8876,0.8568,0.7885,0.8502,0.8262,0.6879,0.2499,0.0,0.0,0.0,0.0,0.0,0.0,0.0,0.0,0.0,0.0,0.0,0.0,0.0,0.0,0.0,0.0,0.0,0.0,0.0,0.0,0.0,0.0,0.0,0.0,0.0,0.0,0.8014,0.8041,0.7978,0.7998,0.8027,0.8144,0.879,0.88,0.886,0.8786,0.8915,0.8862,0.8889,0.8906,0.8906,0.8906,0.8916,0.892,0.892,0.891,0.8906,0.8906,0.8879,1.1403,1.6787,1.3997,1.2087,1.1526,1.1453,1.1196,1.0547,1.0547,1.116,1.2196,0.9723,0.9309,1.0144,0.9158,0.8693,0.8706,0.8849,0.8913,0.892,0.892,0.8927,0.894,0.894,0.894,0.894,0.894,0.894,0.894,0.894,0.894,0.894,0.894,0.894,0.894,0.894,0.894,0.894,0.894,0.894,0.894,0.894,0.894,0.894,0.894,0.894,0.894,0.894,0.894,0.894,0.894,0.0,0.0,0.894,0.894,0.894,0.894,0.894,0.894,0.894,0.8851,0.778,0.5026,0.7348,0.6523,0.0961,0.0241,0.0,0.0,0.0,0.0,0.0,0.0,0.0,0.0,0.0,0.0,0.0,0.0,0.0,0.0,0.0,0.0,0.0,0.0,0.0,0.0,0.0,0.0,0.0,0.0,0.0,0.0,0.8007,0.8263,0.8525,0.858,0.856,0.8625,0.8845,0.8925,0.89,0.8845,0.8855,0.8859,0.8872,0.8913,0.892,0.8879,0.8913,0.894,0.894,0.894,0.894,0.894,0.8951,0.9884,1.2187,1.1052,1.0221,0.9887,0.9918,1.0649,1.2197,1.2197,1.2775,1.3825,1.2765,1.225,1.206,1.0754,1.014,1.0147,0.924,0.894,0.894,0.894,0.894,0.894,0.894,0.894,0.894,0.894,0.894,0.894,0.894,0.894,0.894,0.894,0.894,0.894,0.894,0.894,0.894,0.894,0.894,0.894,0.894,0.894,0.894,0.894,0.894,0.894,0.894,0.894,0.894,0.894,0.0,0.894,0.894,0.9015,0.9069,0.9069,0.9154,0.9211,0.9211,0.9164,0.8147,0.5803,0.4249,0.2391,0.012,0.0,0.0,0.0,0.0,0.0,0.0,0.0,0.0,0.0,0.0,0.0,0.0,0.0,0.0,0.0,0.0,0.0,0.0,0.0,0.0,0.0,0.0,0.0,0.0,0.0,0.0,0.0,0.8404,0.8455,0.8829,0.8878,0.8866,0.8939,0.8939,0.8917,0.8882,0.8903,0.8906,0.8896,0.8869,1.0512,1.0871,0.9095,0.891,0.9728,1.1546,1.0822,0.9904,0.8906,0.8862,0.8934,0.8913,0.8925,0.9766,1.167,1.1607,1.2245,1.3275,1.3275,1.3651,1.4303,1.4545,1.4234,1.3264,1.2186,1.1638,1.1298,1.0558,1.0025,0.9588,0.9588,0.9265,0.894,0.894,0.894,0.894,0.894,0.894,0.894,0.894,0.894,0.8947,0.8991,0.9008,0.9018,0.9066,0.9079,0.9066,0.9018,0.9042,0.9079,0.9079,0.9079,0.9079,0.9079,0.9079,0.9079,0.9079,0.9079,0.9079,0.9079,0.9079,0.9079,0.9079,0.9164,0.9225,0.9225,0.9317,0.9381,0.9381,0.9325,0.8762,0.7442,0.4676,0.2179,0.0121,0.0,0.0,0.0,0.0,0.0,0.0,0.0,0.0,0.0,0.0,0.0,0.0,0.0,0.0,0.0,0.0,0.0,0.0,0.0,0.0,0.0,0.0,0.0,0.0,0.0,0.0,0.0,0.9122,0.8503,0.8656,0.8925,0.8953,0.8953,0.8953,0.8953,0.8977,0.8937,0.8948,0.8862,0.893,1.4056,1.5248,0.9396,0.8937,1.1431,1.7251,1.4853,1.2041,0.9057,0.8944,0.8913,0.8953,0.8953,1.1769,1.7646,1.7639,1.6192,1.3372,1.3372,1.3372,1.3378,1.431,1.4191,1.3372,1.3372,1.2798,1.1887,1.2916,1.2403,1.1105,1.1105,1.0131,0.894,0.894,0.894,0.894,0.894,0.894,0.894,0.894,0.894,0.8967,0.9113,0.9154,0.9188,0.934,0.9381,0.9347,0.9195,0.9269,0.9381,0.9381,0.9381,0.9381,0.9381,0.9381,0.9381,0.9381,0.9381,0.9381,0.9381,0.9381,0.9381,0.9381,0.9384,0.9384,0.9384,0.9384,0.9384,0.9384,0.9422,0.9523,0.9523,0.9684,0.6908,0.0369,0.0,0.0,0.0,0.0,0.0,0.0,0.0,0.0,0.0,0.0,0.0,0.0,0.0,0.0,0.0,0.0,0.0,0.0,0.0,0.0,0.0,0.0,0.0,0.0,0.0,0.0,0.0,1.487,1.3225,1.2495,1.4645,1.4967,1.5023,1.5023,1.4981,1.5043,1.4966,1.1489,0.8934,0.8907,1.0482,1.0799,0.9054,1.0791,1.2999,1.5429,1.4797,1.452,1.4951,1.5024,1.5047,1.5013,1.5041,1.5833,1.7622,1.7636,1.7119,1.6287,1.6287,1.6287,1.6287,1.6636,1.663,1.6293,1.6267,1.6178,1.5612,1.3202,1.1773,1.1,0.9915,0.9265,0.894,0.894,0.894,0.894,0.894,0.894,0.8957,0.9055,0.9089,0.912,0.9269,0.9313,0.9323,0.9367,0.9459,0.9503,0.9351,0.9347,0.9381,0.9381,0.9381,0.9381,0.9381,0.9381,0.9381,0.9381,0.9381,0.9381,0.9381,0.9381,0.9381,0.9381,0.9473,0.954,0.954,0.9629,0.969,0.969,0.9737,0.9768,0.9768,0.971,0.9045,0.7259,0.2635,0.0,0.0,0.0,0.0,0.0,0.0,0.0,0.0,0.0,0.0,0.0,0.0,0.0,0.0,0.0,0.0,0.0,0.0,0.0,0.0,0.0,0.0,0.0,0.0,0.0,0.0,1.7463,1.623,1.5577,1.7248,1.7561,1.6769,1.4515,1.4104,1.4163,1.4206,1.1038,0.9753,1.2112,1.2342,1.2318,1.2369,1.3992,1.4968,1.5007,1.5511,1.6367,1.7589,1.7562,1.7602,1.7602,1.7636,1.7589,1.7589,1.7622,1.7582,1.7582,1.7582,1.7582,1.7582,1.7582,1.7582,1.7589,1.7563,1.7623,1.7329,1.4175,1.2309,1.1232,1.0135,0.9372,0.894,0.894,0.894,0.8947,0.9005,0.9062,0.9127,0.9215,0.9242,0.9273,0.9425,0.9469,0.9483,0.954,0.9622,0.9673,0.9578,0.9554,0.9554,0.9554,0.9554,0.9554,0.9554,0.9554,0.9554,0.9554,0.9554,0.9554,0.9554,0.9554,0.9554,0.9554,0.9635,0.9693,0.9693,0.9768,0.9822,0.9822,0.9822,0.9822,0.9822,0.989,0.9985,1.0228,0.6362,0.2836,0.0131,0.0,0.0,0.0,0.0,0.0,0.0,0.0,0.0,0.0,0.0,0.0,0.0,0.0,0.0,0.0,0.0,0.0,0.0,0.0,0.0,0.0,0.0,0.0,0.0,1.7582,1.7582,1.7582,1.7582,1.7589,1.5828,1.0497,0.9625,0.9655,0.9728,0.9728,1.1661,1.7016,1.7613,1.7613,1.7613,1.7615,1.6996,1.5683,1.6887,1.7582,1.7582,1.7582,1.7582,1.7582,1.7582,1.7582,1.7582,1.7582,1.7582,1.7582,1.7582,1.7582,1.7582,1.7582,1.7582,1.7582,1.7582,1.7649,1.7416,1.5411,1.3567,1.2005,1.1437,1.0351,0.9047,0.9061,0.9068,0.8981,0.9123,0.9266,0.9384,0.9398,0.9401,0.9432,0.9585,0.9629,0.9656,0.9785,0.9822,0.9822,0.9822,0.9822,0.9822,0.9822,0.9822,0.9822,0.9822,0.9822,0.9822,0.9822,0.9822,0.9822,0.9822,0.9822,0.9822,0.9822,0.9822,0.9822,0.9822,0.9822,0.9822,0.9822,0.9822,0.9825,0.9839,0.9971,1.007,1.012,1.026,0.7493,0.1183,0.04,0.0,0.0,0.0,0.0,0.0,0.0,0.0,0.0,0.0673,0.0673,0.0,0.0404,0.0673,0.0942,0.0269,0.0,0.0,0.0,0.0,0.0,0.0,0.0,0.0,1.7582,1.7582,1.7582,1.7582,1.7563,1.7151,1.5962,1.5702,1.566,1.5683,1.5714,1.6248,1.7475,1.7623,1.7563,1.7563,1.7642,1.7411,1.7186,1.7384,1.7582,1.7582,1.7582,1.7582,1.7582,1.7582,1.7582,1.7582,1.7582,1.7582,1.7582,1.7582,1.7582,1.7582,1.7582,1.7582,1.7582,1.7582,1.7595,1.7397,1.468,1.3816,1.3987,1.3151,1.1864,1.0692,1.0711,1.01,0.913,0.9279,0.9354,0.9401,0.952,0.9561,0.9588,0.9734,0.9774,0.9781,0.9812,0.9822,0.9822,0.9822,0.9822,0.9822,0.9822,0.9822,0.9822,0.9822,0.9822,0.9822,0.9822,0.9822,0.9822,0.9822,0.9822,0.9822,0.9822,0.9822,0.9822,0.9822,0.9822,0.9822,0.9822,0.9822,0.9869,0.9992,1.0029,1.0154,1.0392,1.036,0.9792,0.8411,0.2942,0.0,0.0,0.0,0.0,0.0,0.0,0.0,0.0135,0.5794,0.5255,0.0135,0.2954,0.5781,0.7965,0.2283,0.0,0.0,0.0,0.0,0.0,0.0,0.0,0.0,1.7582,1.7582,1.7582,1.7582,1.7635,1.7576,1.7576,1.7636,1.7569,1.7569,1.7616,1.7576,1.7576,1.7622,1.7582,1.7582,1.7582,1.7582,1.7582,1.7582,1.7582,1.7582,1.7582,1.7582,1.7582,1.7582,1.7582,1.7582,1.7582,1.7582,1.7582,1.7582,1.7582,1.7582,1.7582,1.7582,1.7582,1.7582,1.7615,1.745,1.598,1.5642,1.5928,1.3983,1.3167,1.2957,1.2114,1.1313,1.0405,0.9693,0.9537,0.9605,0.9686,0.971,0.9727,0.9798,0.9822,0.9822,0.9822,0.9822,0.9822,0.9822,0.9822,0.9822,0.9822,0.9822,0.9822,0.9822,0.9822,0.9822,0.9822,0.9822,0.9822,0.9822,0.9822,0.9822,0.9822,0.9822,0.9822,0.9822,0.9822,0.9849,0.9924,0.993,0.9995,1.0148,1.0222,1.0327,1.0483,1.0575,1.0534,1.0751,0.7105,0.4288,0.2546,0.255,0.2551,0.2551,0.0807,0.0,0.0135,0.3905,0.5389,0.5253,0.7139,0.9043,1.043,0.6594,0.3088,0.0,0.0,0.0,0.0,0.0,0.0,0.0,1.7582,1.7582,1.7582,1.7582,1.7582,1.7582,1.7582,1.7582,1.7582,1.7582,1.7582,1.7582,1.7582,1.7582,1.7582,1.7582,1.7582,1.7582,1.7582,1.7748,1.7775,1.7662,1.7709,1.7736,1.7736,1.7736,1.7682,1.7582,1.7582,1.7582,1.7582,1.7582,1.7582,1.7582,1.7582,1.7635,1.7609,1.7583,1.7649,1.7554,1.7554,1.7636,1.7344,1.5027,1.491,1.5603,1.406,1.2601,1.1394,1.0112,0.9724,0.9822,0.9822,0.9822,0.9822,0.9822,0.9822,0.9822,0.9822,0.9822,0.9822,0.9822,0.9822,0.9822,0.9822,0.9822,0.9822,0.9822,0.9822,0.9822,0.9822,0.9822,0.9822,0.9822,0.9822,0.9822,0.9822,0.9822,0.9822,0.9822,0.9842,0.992,1.0073,1.009,1.0151,1.0304,1.0426,1.0504,1.0527,1.0653,1.0727,1.0748,1.0751,0.9265,0.6303,0.6305,0.6307,0.6307,0.3225,0.1479,0.0941,0.1613,0.4708,0.9872,1.0414,1.0689,1.0689,1.0257,0.6857,0.1747,0.0537,0.0,0.0,0.0,0.0,0.0,1.7582,1.7582,1.7582,1.7582,1.7582,1.7582,1.7582,1.7582,1.7582,1.7582,1.7582,1.7582,1.7582,1.7582,1.7582,1.7582,1.7582,1.7582,1.7582,1.8083,1.8232,1.7983,1.823,1.837,1.837,1.824,1.7981,1.7582,1.7582,1.7582,1.7582,1.7582,1.7582,1.7582,1.7582,1.7628,1.7611,1.7579,1.7605,1.7644,1.7644,1.7565,1.761,1.774,1.7942,1.7998,1.774,1.4365,1.0027,0.9791,0.9805,0.9822,0.9822,0.9822,0.9822,0.9822,0.9822,0.9822,0.9822,0.9822,0.9822,0.9822,0.9822,0.9822,0.9822,0.9822,0.9822,0.9822,0.9822,0.9822,0.9822,0.9822,0.9822,0.9822,0.9822,0.9822,0.9822,0.9822,0.9822,0.9822,0.9937,1.008,1.0236,1.0249,1.0307,1.0453,1.048,1.0551,1.068,1.0711,1.0721,1.0724,1.0744,1.0482,0.9943,0.9968,0.9984,0.9984,0.9442,0.7667,0.4829,0.7917,0.8056,0.6309,0.9392,1.0748,1.0495,0.8446,0.831,0.859,0.2412,0.0,0.0,0.0,0.0,0.0,1.7582,1.7582,1.7582,1.7582,1.7582,1.7582,1.7582,1.7842,1.7849,1.7609,1.762,1.7597,1.7597,1.7597,1.7564,1.7574,1.7652,1.7636,1.7624,1.7902,1.818,1.8789,1.8554,1.8561,1.87,1.8437,1.8233,1.7961,1.7976,1.7906,1.7935,1.8017,1.8058,1.7939,1.7939,1.7923,1.7988,1.8393,1.8255,1.7623,1.836,1.8591,1.8612,1.8863,1.8998,1.8728,1.7008,1.4237,1.1398,1.0183,0.9822,0.9822,0.9822,0.9822,0.9822,0.9822,0.9822,0.9822,0.9822,0.9822,0.9822,0.9822,0.9822,0.9822,0.9822,0.9822,0.9822,0.9822,0.9822,0.9822,0.9822,0.9822,0.9822,0.9822,0.9893,0.9947,0.9947,1.0022,1.0076,1.0076,1.0137,1.0236,1.0385,1.0399,1.046,1.0609,1.0619,1.0649,1.0717,1.0721,1.0721,1.0721,1.0731,1.0734,1.0734,1.0751,1.0758,1.0758,1.0758,0.9819,0.8478,0.9968,0.9822,0.8454,1.0066,1.0744,1.0618,0.9513,0.9797,1.0375,0.7259,0.3491,0.0,0.0,0.0,0.0]}]]